<?xml version="1.0" encoding="UTF-8" standalone="no" ?>
<gpx xmlns="http://www.topografix.com/GPX/1/1" xmlns:xsi="http://www.w3.org/2001/XMLSchema-instance" xsi:schemaLocation="http://www.topografix.com/GPX/1/1 http://www.topografix.com/GPX/1/1/gpx.xsd" version="1.1" creator="VisuGPX - https://www.visugpx.com">
  <metadata>
    <name>Stevenson 2</name>
  </metadata>
  <trk>
    <name><![CDATA[Stevenson 2_3]]></name>
    <trkseg>
      <trkpt lat="44.55088" lon="3.82587">
        <ele>1164.327</ele>
        <time>2016-06-08T03:52:33Z</time>
      </trkpt>
      <trkpt lat="44.55069" lon="3.82564">
        <ele>1165.512</ele>
        <time>2016-06-08T03:52:53Z</time>
      </trkpt>
      <trkpt lat="44.55087" lon="3.82554">
        <ele>1167.423</ele>
        <time>2016-06-08T03:53:13Z</time>
      </trkpt>
      <trkpt lat="44.55115" lon="3.82556">
        <ele>1169.449</ele>
        <time>2016-06-08T03:53:33Z</time>
      </trkpt>
      <trkpt lat="44.5511" lon="3.82526">
        <ele>1172.448</ele>
        <time>2021-02-02T21:13:32Z</time>
      </trkpt>
      <trkpt lat="44.55119" lon="3.82506">
        <ele>1175.099</ele>
        <time>2021-02-02T21:13:52Z</time>
      </trkpt>
      <trkpt lat="44.55118" lon="3.82476">
        <ele>1176.951</ele>
        <time>2021-02-02T21:14:12Z</time>
      </trkpt>
      <trkpt lat="44.55122" lon="3.82456">
        <ele>1178.174</ele>
        <time>2016-06-08T03:54:33Z</time>
      </trkpt>
      <trkpt lat="44.55108" lon="3.82416">
        <ele>1178.956</ele>
        <time>2016-06-08T03:54:53Z</time>
      </trkpt>
      <trkpt lat="44.55099" lon="3.82324">
        <ele>1180.121</ele>
        <time>2016-06-08T03:55:13Z</time>
      </trkpt>
      <trkpt lat="44.55089" lon="3.8224">
        <ele>1175.608</ele>
        <time>2021-02-02T21:15:32Z</time>
      </trkpt>
      <trkpt lat="44.55092" lon="3.82137">
        <ele>1167.083</ele>
        <time>2016-06-08T03:55:33Z</time>
      </trkpt>
      <trkpt lat="44.551" lon="3.82039">
        <ele>1159.872</ele>
        <time>2016-06-08T03:55:53Z</time>
      </trkpt>
      <trkpt lat="44.5509" lon="3.81955">
        <ele>1155.387</ele>
        <time>2021-02-02T21:16:32Z</time>
      </trkpt>
      <trkpt lat="44.55077" lon="3.81919">
        <ele>1152.218</ele>
        <time>2021-02-02T21:16:52Z</time>
      </trkpt>
      <trkpt lat="44.54955" lon="3.81755">
        <ele>1134.894</ele>
        <time>2016-06-08T03:57:13Z</time>
      </trkpt>
      <trkpt lat="44.54937" lon="3.81643">
        <ele>1122.073</ele>
        <time>2016-06-08T03:57:33Z</time>
      </trkpt>
      <trkpt lat="44.54948" lon="3.81614">
        <ele>1121.844</ele>
        <time>2016-06-08T03:57:53Z</time>
      </trkpt>
      <trkpt lat="44.54923" lon="3.81603">
        <ele>1115.646</ele>
        <time>2016-06-08T03:58:13Z</time>
      </trkpt>
      <trkpt lat="44.54917" lon="3.8158">
        <ele>1112.627</ele>
        <time>2016-06-08T03:58:33Z</time>
      </trkpt>
      <trkpt lat="44.54948" lon="3.81561">
        <ele>1113.868</ele>
        <time>2016-06-08T03:58:53Z</time>
      </trkpt>
      <trkpt lat="44.54981" lon="3.81557">
        <ele>1114.214</ele>
        <time>2016-06-08T03:59:13Z</time>
      </trkpt>
      <trkpt lat="44.54972" lon="3.8154">
        <ele>1111.908</ele>
        <time>2016-06-08T03:59:33Z</time>
      </trkpt>
      <trkpt lat="44.54912" lon="3.81528">
        <ele>1103.438</ele>
        <time>2016-06-08T03:59:53Z</time>
      </trkpt>
      <trkpt lat="44.5485" lon="3.81454">
        <ele>1094.687</ele>
        <time>2016-06-08T04:00:13Z</time>
      </trkpt>
      <trkpt lat="44.5481" lon="3.81473">
        <ele>1094.822</ele>
        <time>2016-06-08T04:00:33Z</time>
      </trkpt>
      <trkpt lat="44.54794" lon="3.81514">
        <ele>1096.663</ele>
        <time>2016-06-08T04:00:53Z</time>
      </trkpt>
      <trkpt lat="44.54745" lon="3.81542">
        <ele>1099.989</ele>
        <time>2016-06-08T04:01:13Z</time>
      </trkpt>
      <trkpt lat="44.54693" lon="3.8151">
        <ele>1106.268</ele>
        <time>2019-03-26T00:19:31Z</time>
      </trkpt>
      <trkpt lat="44.54642" lon="3.81517">
        <ele>1107.049</ele>
        <time>2019-03-26T00:19:51Z</time>
      </trkpt>
      <trkpt lat="44.54592" lon="3.81506">
        <ele>1114.091</ele>
        <time>2019-03-26T00:20:11Z</time>
      </trkpt>
      <trkpt lat="44.54569" lon="3.81472">
        <ele>1119.194</ele>
        <time>2019-03-26T00:20:31Z</time>
      </trkpt>
      <trkpt lat="44.54511" lon="3.81424">
        <ele>1125.857</ele>
        <time>2019-03-26T00:20:51Z</time>
      </trkpt>
      <trkpt lat="44.5448" lon="3.81381">
        <ele>1128.722</ele>
        <time>2019-03-26T00:21:11Z</time>
      </trkpt>
      <trkpt lat="44.54501" lon="3.81315">
        <ele>1127.908</ele>
        <time>2016-06-08T04:04:13Z</time>
      </trkpt>
      <trkpt lat="44.54511" lon="3.81298">
        <ele>1127.075</ele>
        <time>2016-06-08T04:04:33Z</time>
      </trkpt>
      <trkpt lat="44.54502" lon="3.81243">
        <ele>1121.954</ele>
        <time>2016-06-08T04:04:53Z</time>
      </trkpt>
      <trkpt lat="44.54454" lon="3.81167">
        <ele>1112.759</ele>
        <time>2016-06-08T04:05:13Z</time>
      </trkpt>
      <trkpt lat="44.54379" lon="3.81134">
        <ele>1112.55</ele>
        <time>2016-06-08T04:05:33Z</time>
      </trkpt>
      <trkpt lat="44.54371" lon="3.81111">
        <ele>1111.666</ele>
        <time>2016-06-08T04:05:53Z</time>
      </trkpt>
      <trkpt lat="44.54386" lon="3.81083">
        <ele>1112.035</ele>
        <time>2016-06-08T04:06:13Z</time>
      </trkpt>
      <trkpt lat="44.54507" lon="3.80976">
        <ele>1126.266</ele>
        <time>2016-06-08T04:06:33Z</time>
      </trkpt>
      <trkpt lat="44.54514" lon="3.8094">
        <ele>1127.728</ele>
        <time>2016-06-08T04:06:53Z</time>
      </trkpt>
      <trkpt lat="44.54514" lon="3.80873">
        <ele>1130.551</ele>
        <time>2016-06-08T04:07:13Z</time>
      </trkpt>
      <trkpt lat="44.54535" lon="3.80705">
        <ele>1129.601</ele>
        <time>2016-06-08T04:07:33Z</time>
      </trkpt>
      <trkpt lat="44.54535" lon="3.80585">
        <ele>1127.311</ele>
        <time>2016-06-08T04:07:53Z</time>
      </trkpt>
      <trkpt lat="44.54513" lon="3.80499">
        <ele>1129.008</ele>
        <time>2016-06-08T04:08:13Z</time>
      </trkpt>
      <trkpt lat="44.54466" lon="3.80418">
        <ele>1133.081</ele>
        <time>2016-06-08T04:08:33Z</time>
      </trkpt>
      <trkpt lat="44.54423" lon="3.80378">
        <ele>1134.52</ele>
        <time>2016-06-08T04:08:53Z</time>
      </trkpt>
      <trkpt lat="44.54364" lon="3.80351">
        <ele>1138.725</ele>
        <time>2016-06-08T04:09:13Z</time>
      </trkpt>
      <trkpt lat="44.54302" lon="3.80332">
        <ele>1144.586</ele>
        <time>2016-06-08T04:09:33Z</time>
      </trkpt>
      <trkpt lat="44.54282" lon="3.80313">
        <ele>1144.142</ele>
        <time>2016-06-08T04:09:53Z</time>
      </trkpt>
      <trkpt lat="44.54224" lon="3.80286">
        <ele>1141.781</ele>
        <time>2016-06-08T04:10:13Z</time>
      </trkpt>
      <trkpt lat="44.5418" lon="3.80279">
        <ele>1143.762</ele>
        <time>2016-06-08T04:10:33Z</time>
      </trkpt>
      <trkpt lat="44.54106" lon="3.80282">
        <ele>1149.064</ele>
        <time>2016-06-08T04:10:53Z</time>
      </trkpt>
      <trkpt lat="44.54042" lon="3.80198">
        <ele>1155.985</ele>
        <time>2016-06-08T04:11:13Z</time>
      </trkpt>
      <trkpt lat="44.54037" lon="3.80149">
        <ele>1156.289</ele>
        <time>2016-06-08T04:11:33Z</time>
      </trkpt>
      <trkpt lat="44.54003" lon="3.80064">
        <ele>1163.617</ele>
        <time>2016-06-08T04:11:53Z</time>
      </trkpt>
      <trkpt lat="44.53998" lon="3.80011">
        <ele>1164.508</ele>
        <time>2016-06-08T04:12:13Z</time>
      </trkpt>
      <trkpt lat="44.54011" lon="3.79982">
        <ele>1167.774</ele>
        <time>2016-06-08T04:12:33Z</time>
      </trkpt>
      <trkpt lat="44.5404" lon="3.7999">
        <ele>1168.863</ele>
        <time>2016-06-08T04:12:53Z</time>
      </trkpt>
      <trkpt lat="44.5409" lon="3.80058">
        <ele>1164.748</ele>
        <time>2016-06-08T04:13:13Z</time>
      </trkpt>
      <trkpt lat="44.54108" lon="3.80054">
        <ele>1166.289</ele>
        <time>2016-06-08T04:13:33Z</time>
      </trkpt>
      <trkpt lat="44.54145" lon="3.79989">
        <ele>1173.185</ele>
        <time>2016-06-08T04:13:53Z</time>
      </trkpt>
      <trkpt lat="44.54147" lon="3.79927">
        <ele>1174.644</ele>
        <time>2016-06-08T04:14:13Z</time>
      </trkpt>
      <trkpt lat="44.54126" lon="3.79862">
        <ele>1178.975</ele>
        <time>2016-06-08T04:14:33Z</time>
      </trkpt>
      <trkpt lat="44.54086" lon="3.79792">
        <ele>1181.317</ele>
        <time>2016-06-08T04:14:53Z</time>
      </trkpt>
      <trkpt lat="44.54058" lon="3.797">
        <ele>1188.772</ele>
        <time>2016-06-08T04:15:13Z</time>
      </trkpt>
      <trkpt lat="44.54029" lon="3.79694">
        <ele>1191.813</ele>
        <time>2016-06-08T04:15:33Z</time>
      </trkpt>
      <trkpt lat="44.53957" lon="3.79764">
        <ele>1194.914</ele>
        <time>2016-06-08T04:15:53Z</time>
      </trkpt>
      <trkpt lat="44.53925" lon="3.79781">
        <ele>1197.608</ele>
        <time>2016-06-08T04:16:13Z</time>
      </trkpt>
      <trkpt lat="44.5392" lon="3.79717">
        <ele>1202.223</ele>
        <time>2016-06-08T04:16:33Z</time>
      </trkpt>
      <trkpt lat="44.53886" lon="3.79656">
        <ele>1205.422</ele>
        <time>2016-06-08T04:16:53Z</time>
      </trkpt>
      <trkpt lat="44.53886" lon="3.79656">
        <ele>1205.457</ele>
        <time>2016-06-08T04:17:13Z</time>
      </trkpt>
      <trkpt lat="44.53831" lon="3.79613">
        <ele>1219.148</ele>
        <time>2016-06-08T04:17:33Z</time>
      </trkpt>
      <trkpt lat="44.53738" lon="3.79519">
        <ele>1244.674</ele>
        <time>2016-06-08T04:17:53Z</time>
      </trkpt>
      <trkpt lat="44.53725" lon="3.79495">
        <ele>1244.543</ele>
        <time>2016-06-08T04:18:13Z</time>
      </trkpt>
      <trkpt lat="44.53596" lon="3.79435">
        <ele>1270.834</ele>
        <time>2016-06-08T04:18:33Z</time>
      </trkpt>
      <trkpt lat="44.53442" lon="3.79474">
        <ele>1307.826</ele>
        <time>2016-06-08T04:18:53Z</time>
      </trkpt>
      <trkpt lat="44.53388" lon="3.79482">
        <ele>1324.387</ele>
        <time>2016-06-08T04:19:13Z</time>
      </trkpt>
      <trkpt lat="44.53357" lon="3.79428">
        <ele>1330.442</ele>
        <time>2016-06-08T04:19:33Z</time>
      </trkpt>
      <trkpt lat="44.53348" lon="3.7945">
        <ele>1334.226</ele>
        <time>2016-06-08T04:19:53Z</time>
      </trkpt>
      <trkpt lat="44.53357" lon="3.79511">
        <ele>1336.708</ele>
        <time>2016-06-08T04:20:13Z</time>
      </trkpt>
      <trkpt lat="44.53426" lon="3.79593">
        <ele>1340.734</ele>
        <time>2016-06-08T04:20:33Z</time>
      </trkpt>
      <trkpt lat="44.53451" lon="3.79651">
        <ele>1345.443</ele>
        <time>2016-06-08T04:20:53Z</time>
      </trkpt>
      <trkpt lat="44.53425" lon="3.79617">
        <ele>1345.748</ele>
        <time>2016-06-08T04:21:13Z</time>
      </trkpt>
      <trkpt lat="44.53371" lon="3.79594">
        <ele>1350.759</ele>
        <time>2016-06-08T04:21:33Z</time>
      </trkpt>
      <trkpt lat="44.5333" lon="3.79564">
        <ele>1355.215</ele>
        <time>2016-06-08T04:21:53Z</time>
      </trkpt>
      <trkpt lat="44.53257" lon="3.79463">
        <ele>1364.294</ele>
        <time>2016-06-08T04:22:13Z</time>
      </trkpt>
      <trkpt lat="44.53212" lon="3.79377">
        <ele>1371.795</ele>
        <time>2016-06-08T04:22:33Z</time>
      </trkpt>
      <trkpt lat="44.53208" lon="3.79336">
        <ele>1373.467</ele>
        <time>2016-06-08T04:22:53Z</time>
      </trkpt>
      <trkpt lat="44.53233" lon="3.79287">
        <ele>1372.269</ele>
        <time>2016-06-08T04:23:13Z</time>
      </trkpt>
      <trkpt lat="44.53252" lon="3.79201">
        <ele>1377.004</ele>
        <time>2016-06-08T04:23:33Z</time>
      </trkpt>
      <trkpt lat="44.53252" lon="3.79122">
        <ele>1381.024</ele>
        <time>2016-06-08T04:23:53Z</time>
      </trkpt>
      <trkpt lat="44.53245" lon="3.78968">
        <ele>1385.508</ele>
        <time>2016-06-08T04:24:13Z</time>
      </trkpt>
      <trkpt lat="44.53232" lon="3.78898">
        <ele>1391.312</ele>
        <time>2016-06-08T04:24:33Z</time>
      </trkpt>
      <trkpt lat="44.53234" lon="3.7881">
        <ele>1396.251</ele>
        <time>2016-06-08T04:24:53Z</time>
      </trkpt>
      <trkpt lat="44.53222" lon="3.78738">
        <ele>1396.146</ele>
        <time>2016-06-08T04:25:13Z</time>
      </trkpt>
      <trkpt lat="44.53198" lon="3.78701">
        <ele>1399.667</ele>
        <time>2016-06-08T04:25:33Z</time>
      </trkpt>
      <trkpt lat="44.5313" lon="3.78641">
        <ele>1406.483</ele>
        <time>2016-06-08T04:25:53Z</time>
      </trkpt>
      <trkpt lat="44.53069" lon="3.7859">
        <ele>1410.432</ele>
        <time>2016-06-08T04:26:13Z</time>
      </trkpt>
      <trkpt lat="44.53014" lon="3.78517">
        <ele>1413.513</ele>
        <time>2016-06-08T04:26:33Z</time>
      </trkpt>
      <trkpt lat="44.52993" lon="3.78534">
        <ele>1411.695</ele>
        <time>2016-06-08T04:26:53Z</time>
      </trkpt>
      <trkpt lat="44.52961" lon="3.78596">
        <ele>1410.173</ele>
        <time>2016-06-08T04:27:13Z</time>
      </trkpt>
      <trkpt lat="44.52863" lon="3.7872">
        <ele>1402.285</ele>
        <time>2016-06-08T04:27:33Z</time>
      </trkpt>
      <trkpt lat="44.52832" lon="3.78806">
        <ele>1401.713</ele>
        <time>2016-06-08T04:27:53Z</time>
      </trkpt>
      <trkpt lat="44.52812" lon="3.78876">
        <ele>1398.808</ele>
        <time>2016-06-08T04:28:13Z</time>
      </trkpt>
      <trkpt lat="44.52782" lon="3.78931">
        <ele>1396.083</ele>
        <time>2016-06-08T04:28:33Z</time>
      </trkpt>
      <trkpt lat="44.52743" lon="3.78976">
        <ele>1391.852</ele>
        <time>2016-06-08T04:28:53Z</time>
      </trkpt>
      <trkpt lat="44.52689" lon="3.78996">
        <ele>1391.937</ele>
        <time>2016-06-08T04:29:13Z</time>
      </trkpt>
      <trkpt lat="44.52615" lon="3.79001">
        <ele>1394.258</ele>
        <time>2016-06-08T04:29:33Z</time>
      </trkpt>
      <trkpt lat="44.52549" lon="3.79031">
        <ele>1392.474</ele>
        <time>2016-06-08T04:29:53Z</time>
      </trkpt>
      <trkpt lat="44.52482" lon="3.79086">
        <ele>1390.773</ele>
        <time>2016-06-08T04:30:13Z</time>
      </trkpt>
      <trkpt lat="44.52446" lon="3.79139">
        <ele>1389.274</ele>
        <time>2016-06-08T04:30:33Z</time>
      </trkpt>
      <trkpt lat="44.52374" lon="3.79337">
        <ele>1385.446</ele>
        <time>2016-06-08T04:30:53Z</time>
      </trkpt>
      <trkpt lat="44.52368" lon="3.79395">
        <ele>1386.115</ele>
        <time>2016-06-08T04:31:13Z</time>
      </trkpt>
      <trkpt lat="44.52343" lon="3.79503">
        <ele>1384.665</ele>
        <time>2016-06-08T04:31:33Z</time>
      </trkpt>
      <trkpt lat="44.52305" lon="3.79595">
        <ele>1374.411</ele>
        <time>2016-06-08T04:31:53Z</time>
      </trkpt>
      <trkpt lat="44.52271" lon="3.79638">
        <ele>1367.508</ele>
        <time>2016-06-08T04:32:13Z</time>
      </trkpt>
      <trkpt lat="44.52187" lon="3.79623">
        <ele>1354.597</ele>
        <time>2016-06-08T04:32:33Z</time>
      </trkpt>
      <trkpt lat="44.52085" lon="3.79586">
        <ele>1335.756</ele>
        <time>2016-06-08T04:32:53Z</time>
      </trkpt>
      <trkpt lat="44.52037" lon="3.79581">
        <ele>1328.551</ele>
        <time>2016-06-08T04:33:13Z</time>
      </trkpt>
      <trkpt lat="44.51956" lon="3.79614">
        <ele>1314.752</ele>
        <time>2016-06-08T04:33:33Z</time>
      </trkpt>
      <trkpt lat="44.5189" lon="3.79684">
        <ele>1300.988</ele>
        <time>2016-06-08T04:33:53Z</time>
      </trkpt>
      <trkpt lat="44.51778" lon="3.79763">
        <ele>1283.987</ele>
        <time>2016-06-08T04:34:13Z</time>
      </trkpt>
      <trkpt lat="44.51778" lon="3.79763">
        <ele>1283.938</ele>
        <time>2016-06-08T04:34:33Z</time>
      </trkpt>
      <trkpt lat="44.51706" lon="3.79806">
        <ele>1274.65</ele>
        <time>2016-06-08T04:34:53Z</time>
      </trkpt>
      <trkpt lat="44.51663" lon="3.79778">
        <ele>1259.248</ele>
        <time>2016-06-08T04:35:13Z</time>
      </trkpt>
      <trkpt lat="44.51684" lon="3.7974">
        <ele>1257.161</ele>
        <time>2016-06-08T04:35:33Z</time>
      </trkpt>
      <trkpt lat="44.51711" lon="3.79684">
        <ele>1254.617</ele>
        <time>2016-06-08T04:35:53Z</time>
      </trkpt>
      <trkpt lat="44.51748" lon="3.79631">
        <ele>1257.108</ele>
        <time>2016-06-08T04:36:13Z</time>
      </trkpt>
      <trkpt lat="44.51778" lon="3.7952">
        <ele>1256.04</ele>
        <time>2016-06-08T04:36:33Z</time>
      </trkpt>
      <trkpt lat="44.51804" lon="3.7948">
        <ele>1255.649</ele>
        <time>2016-06-08T04:36:53Z</time>
      </trkpt>
      <trkpt lat="44.51809" lon="3.79424">
        <ele>1255.834</ele>
        <time>2016-06-08T04:37:13Z</time>
      </trkpt>
      <trkpt lat="44.5182" lon="3.7936">
        <ele>1261.675</ele>
        <time>2016-06-08T04:37:33Z</time>
      </trkpt>
      <trkpt lat="44.5181" lon="3.7935">
        <ele>1264.861</ele>
        <time>2016-06-08T04:37:53Z</time>
      </trkpt>
      <trkpt lat="44.51718" lon="3.79452">
        <ele>1274.35</ele>
        <time>2016-06-08T04:38:13Z</time>
      </trkpt>
      <trkpt lat="44.51779" lon="3.79331">
        <ele>1278.861</ele>
        <time>2016-06-08T04:38:33Z</time>
      </trkpt>
      <trkpt lat="44.51829" lon="3.79205">
        <ele>1289.273</ele>
        <time>2016-06-08T04:38:53Z</time>
      </trkpt>
      <trkpt lat="44.51861" lon="3.79111">
        <ele>1287.144</ele>
        <time>2016-06-08T04:39:13Z</time>
      </trkpt>
      <trkpt lat="44.51881" lon="3.79019">
        <ele>1294.705</ele>
        <time>2016-06-08T04:39:33Z</time>
      </trkpt>
      <trkpt lat="44.51861" lon="3.78946">
        <ele>1306.815</ele>
        <time>2016-06-08T04:39:53Z</time>
      </trkpt>
      <trkpt lat="44.51873" lon="3.78942">
        <ele>1306.708</ele>
        <time>2016-06-08T04:40:13Z</time>
      </trkpt>
      <trkpt lat="44.5191" lon="3.78958">
        <ele>1301.24</ele>
        <time>2016-06-08T04:40:33Z</time>
      </trkpt>
      <trkpt lat="44.51932" lon="3.78948">
        <ele>1301.849</ele>
        <time>2016-06-08T04:40:53Z</time>
      </trkpt>
      <trkpt lat="44.5197" lon="3.78887">
        <ele>1307.724</ele>
        <time>2016-06-08T04:41:13Z</time>
      </trkpt>
      <trkpt lat="44.52022" lon="3.78783">
        <ele>1307.675</ele>
        <time>2016-06-08T04:41:33Z</time>
      </trkpt>
      <trkpt lat="44.52061" lon="3.78673">
        <ele>1313.971</ele>
        <time>2016-06-08T04:41:53Z</time>
      </trkpt>
      <trkpt lat="44.52074" lon="3.78613">
        <ele>1318.95</ele>
        <time>2016-06-08T04:42:13Z</time>
      </trkpt>
      <trkpt lat="44.52104" lon="3.78541">
        <ele>1317.231</ele>
        <time>2016-06-08T04:42:33Z</time>
      </trkpt>
      <trkpt lat="44.52139" lon="3.78433">
        <ele>1320.493</ele>
        <time>2016-06-08T04:42:53Z</time>
      </trkpt>
      <trkpt lat="44.52145" lon="3.78393">
        <ele>1322.834</ele>
        <time>2016-06-08T04:43:13Z</time>
      </trkpt>
      <trkpt lat="44.52072" lon="3.78504">
        <ele>1331.755</ele>
        <time>2016-06-08T04:43:33Z</time>
      </trkpt>
      <trkpt lat="44.5199" lon="3.78593">
        <ele>1345.01</ele>
        <time>2016-06-08T04:43:53Z</time>
      </trkpt>
      <trkpt lat="44.5188" lon="3.78679">
        <ele>1354.708</ele>
        <time>2016-06-08T04:44:13Z</time>
      </trkpt>
      <trkpt lat="44.51829" lon="3.78692">
        <ele>1358.419</ele>
        <time>2016-06-08T04:44:33Z</time>
      </trkpt>
      <trkpt lat="44.51776" lon="3.7868">
        <ele>1361.018</ele>
        <time>2016-06-08T04:44:53Z</time>
      </trkpt>
      <trkpt lat="44.51708" lon="3.78648">
        <ele>1363.963</ele>
        <time>2016-06-08T04:45:13Z</time>
      </trkpt>
      <trkpt lat="44.51599" lon="3.78634">
        <ele>1366.434</ele>
        <time>2016-06-08T04:45:33Z</time>
      </trkpt>
      <trkpt lat="44.51499" lon="3.78592">
        <ele>1362.03</ele>
        <time>2016-06-08T04:45:53Z</time>
      </trkpt>
      <trkpt lat="44.51521" lon="3.78562">
        <ele>1363.319</ele>
        <time>2016-06-08T04:46:13Z</time>
      </trkpt>
      <trkpt lat="44.51495" lon="3.78497">
        <ele>1356.36</ele>
        <time>2016-06-08T04:46:33Z</time>
      </trkpt>
      <trkpt lat="44.51491" lon="3.78438">
        <ele>1351.062</ele>
        <time>2016-06-08T04:46:53Z</time>
      </trkpt>
      <trkpt lat="44.51491" lon="3.78438">
        <ele>1351.099</ele>
        <time>2016-06-08T04:47:13Z</time>
      </trkpt>
      <trkpt lat="44.51444" lon="3.78257">
        <ele>1325.707</ele>
        <time>2016-06-08T04:47:33Z</time>
      </trkpt>
      <trkpt lat="44.51395" lon="3.78223">
        <ele>1317.027</ele>
        <time>2016-06-08T04:47:53Z</time>
      </trkpt>
      <trkpt lat="44.51263" lon="3.78136">
        <ele>1316.808</ele>
        <time>2016-06-08T04:48:13Z</time>
      </trkpt>
      <trkpt lat="44.5125" lon="3.78115">
        <ele>1313.925</ele>
        <time>2016-06-08T04:48:33Z</time>
      </trkpt>
      <trkpt lat="44.51142" lon="3.77975">
        <ele>1304.014</ele>
        <time>2016-06-08T04:48:53Z</time>
      </trkpt>
      <trkpt lat="44.51098" lon="3.77957">
        <ele>1300.619</ele>
        <time>2016-06-08T04:49:13Z</time>
      </trkpt>
      <trkpt lat="44.50991" lon="3.77774">
        <ele>1277.37</ele>
        <time>2016-06-08T04:49:33Z</time>
      </trkpt>
      <trkpt lat="44.51081" lon="3.7776">
        <ele>1269.666</ele>
        <time>2016-06-08T04:49:53Z</time>
      </trkpt>
      <trkpt lat="44.51267" lon="3.77789">
        <ele>1263.355</ele>
        <time>2021-01-05T06:00:54Z</time>
      </trkpt>
      <trkpt lat="44.51257" lon="3.77691">
        <ele>1249.156</ele>
        <time>2021-01-05T06:01:14Z</time>
      </trkpt>
      <trkpt lat="44.51135" lon="3.77548">
        <ele>1231.498</ele>
        <time>2016-06-08T04:51:33Z</time>
      </trkpt>
      <trkpt lat="44.51027" lon="3.77503">
        <ele>1226.728</ele>
        <time>2016-06-08T04:51:53Z</time>
      </trkpt>
      <trkpt lat="44.50987" lon="3.77454">
        <ele>1226.889</ele>
        <time>2016-06-08T04:52:13Z</time>
      </trkpt>
      <trkpt lat="44.50952" lon="3.77355">
        <ele>1219.517</ele>
        <time>2016-06-08T04:52:33Z</time>
      </trkpt>
      <trkpt lat="44.50939" lon="3.77221">
        <ele>1213.708</ele>
        <time>2016-06-08T04:52:53Z</time>
      </trkpt>
      <trkpt lat="44.50895" lon="3.77085">
        <ele>1200.888</ele>
        <time>2016-06-08T04:53:13Z</time>
      </trkpt>
      <trkpt lat="44.50837" lon="3.76997">
        <ele>1197.727</ele>
        <time>2016-06-08T04:53:33Z</time>
      </trkpt>
      <trkpt lat="44.50707" lon="3.76919">
        <ele>1186.542</ele>
        <time>2016-06-08T04:53:53Z</time>
      </trkpt>
      <trkpt lat="44.50561" lon="3.76869">
        <ele>1171.333</ele>
        <time>2016-06-08T04:54:13Z</time>
      </trkpt>
      <trkpt lat="44.50473" lon="3.76853">
        <ele>1171.089</ele>
        <time>2016-06-08T04:54:33Z</time>
      </trkpt>
      <trkpt lat="44.50356" lon="3.76764">
        <ele>1164.288</ele>
        <time>2016-06-08T04:54:53Z</time>
      </trkpt>
      <trkpt lat="44.50228" lon="3.76741">
        <ele>1159.269</ele>
        <time>2016-06-08T04:55:13Z</time>
      </trkpt>
      <trkpt lat="44.50196" lon="3.76722">
        <ele>1154.241</ele>
        <time>2016-06-08T04:55:33Z</time>
      </trkpt>
      <trkpt lat="44.50131" lon="3.76657">
        <ele>1150.345</ele>
        <time>2016-06-08T04:55:53Z</time>
      </trkpt>
      <trkpt lat="44.50092" lon="3.76655">
        <ele>1154.647</ele>
        <time>2016-06-08T04:56:13Z</time>
      </trkpt>
      <trkpt lat="44.50006" lon="3.76636">
        <ele>1163.011</ele>
        <time>2016-06-08T04:56:33Z</time>
      </trkpt>
      <trkpt lat="44.49939" lon="3.76631">
        <ele>1169.508</ele>
        <time>2016-06-08T04:56:53Z</time>
      </trkpt>
      <trkpt lat="44.49858" lon="3.7664">
        <ele>1172.81</ele>
        <time>2016-06-08T04:57:13Z</time>
      </trkpt>
      <trkpt lat="44.4979" lon="3.76658">
        <ele>1173.329</ele>
        <time>2016-06-08T04:57:33Z</time>
      </trkpt>
      <trkpt lat="44.49722" lon="3.76657">
        <ele>1179.434</ele>
        <time>2016-06-08T04:57:53Z</time>
      </trkpt>
      <trkpt lat="44.49699" lon="3.76647">
        <ele>1183.855</ele>
        <time>2016-06-08T04:58:13Z</time>
      </trkpt>
      <trkpt lat="44.49693" lon="3.76634">
        <ele>1185.511</ele>
        <time>2016-06-08T04:58:33Z</time>
      </trkpt>
      <trkpt lat="44.49734" lon="3.76597">
        <ele>1185.27</ele>
        <time>2016-06-08T04:58:53Z</time>
      </trkpt>
      <trkpt lat="44.49785" lon="3.76526">
        <ele>1188.961</ele>
        <time>2016-06-08T04:59:13Z</time>
      </trkpt>
      <trkpt lat="44.49792" lon="3.76486">
        <ele>1191.083</ele>
        <time>2016-06-08T04:59:33Z</time>
      </trkpt>
      <trkpt lat="44.49821" lon="3.76441">
        <ele>1192.628</ele>
        <time>2016-06-08T04:59:53Z</time>
      </trkpt>
      <trkpt lat="44.49851" lon="3.76407">
        <ele>1195.589</ele>
        <time>2016-06-08T05:00:13Z</time>
      </trkpt>
      <trkpt lat="44.49875" lon="3.76361">
        <ele>1199.017</ele>
        <time>2016-06-08T05:00:33Z</time>
      </trkpt>
      <trkpt lat="44.49888" lon="3.76316">
        <ele>1199.908</ele>
        <time>2016-06-08T05:00:53Z</time>
      </trkpt>
      <trkpt lat="44.49888" lon="3.76316">
        <ele>1199.928</ele>
        <time>2016-06-08T05:01:13Z</time>
      </trkpt>
      <trkpt lat="44.49894" lon="3.76251">
        <ele>1201.887</ele>
        <time>2016-06-08T05:01:33Z</time>
      </trkpt>
      <trkpt lat="44.49887" lon="3.76158">
        <ele>1201.872</ele>
        <time>2016-06-08T05:01:53Z</time>
      </trkpt>
      <trkpt lat="44.49894" lon="3.76052">
        <ele>1200.583</ele>
        <time>2016-06-08T05:02:13Z</time>
      </trkpt>
      <trkpt lat="44.49897" lon="3.75978">
        <ele>1198.639</ele>
        <time>2016-06-08T05:02:33Z</time>
      </trkpt>
      <trkpt lat="44.49919" lon="3.75923">
        <ele>1196.938</ele>
        <time>2016-06-08T05:02:53Z</time>
      </trkpt>
      <trkpt lat="44.49968" lon="3.75868">
        <ele>1191.969</ele>
        <time>2016-06-08T05:03:13Z</time>
      </trkpt>
      <trkpt lat="44.50005" lon="3.7587">
        <ele>1190.041</ele>
        <time>2016-06-08T05:03:33Z</time>
      </trkpt>
      <trkpt lat="44.50035" lon="3.75861">
        <ele>1190.841</ele>
        <time>2021-02-02T22:22:32Z</time>
      </trkpt>
      <trkpt lat="44.50058" lon="3.75827">
        <ele>1187.881</ele>
        <time>2021-02-02T22:22:52Z</time>
      </trkpt>
      <trkpt lat="44.50067" lon="3.75794">
        <ele>1185.409</ele>
        <time>2021-02-02T22:23:12Z</time>
      </trkpt>
      <trkpt lat="44.50073" lon="3.75745">
        <ele>1181.508</ele>
        <time>2021-02-02T22:23:32Z</time>
      </trkpt>
      <trkpt lat="44.50085" lon="3.75707">
        <ele>1180.78</ele>
        <time>2021-02-02T22:23:52Z</time>
      </trkpt>
      <trkpt lat="44.5005" lon="3.75695">
        <ele>1175.289</ele>
        <time>2021-02-02T22:24:12Z</time>
      </trkpt>
      <trkpt lat="44.5007" lon="3.7565">
        <ele>1175.474</ele>
        <time>2016-06-08T05:04:53Z</time>
      </trkpt>
      <trkpt lat="44.50064" lon="3.75601">
        <ele>1171.585</ele>
        <time>2016-06-08T05:05:13Z</time>
      </trkpt>
      <trkpt lat="44.49995" lon="3.7555">
        <ele>1163.821</ele>
        <time>2016-06-08T05:05:33Z</time>
      </trkpt>
      <trkpt lat="44.49983" lon="3.75529">
        <ele>1163.89</ele>
        <time>2021-02-02T22:25:32Z</time>
      </trkpt>
      <trkpt lat="44.49979" lon="3.75503">
        <ele>1163.951</ele>
        <time>2016-06-08T05:05:53Z</time>
      </trkpt>
      <trkpt lat="44.49983" lon="3.75408">
        <ele>1162.463</ele>
        <time>2016-06-08T05:06:13Z</time>
      </trkpt>
      <trkpt lat="44.5" lon="3.75346">
        <ele>1161.679</ele>
        <time>2021-02-02T22:26:32Z</time>
      </trkpt>
      <trkpt lat="44.49995" lon="3.75316">
        <ele>1161.805</ele>
        <time>2021-02-02T22:26:52Z</time>
      </trkpt>
      <trkpt lat="44.49945" lon="3.75253">
        <ele>1160.925</ele>
        <time>2016-06-08T05:06:53Z</time>
      </trkpt>
      <trkpt lat="44.49914" lon="3.75238">
        <ele>1161.908</ele>
        <time>2016-06-08T05:07:13Z</time>
      </trkpt>
      <trkpt lat="44.4989" lon="3.75238">
        <ele>1163.673</ele>
        <time>2021-02-02T22:27:52Z</time>
      </trkpt>
      <trkpt lat="44.49844" lon="3.75251">
        <ele>1163.432</ele>
        <time>2021-02-02T22:28:12Z</time>
      </trkpt>
      <trkpt lat="44.49825" lon="3.75246">
        <ele>1163.967</ele>
        <time>2021-02-02T22:28:32Z</time>
      </trkpt>
      <trkpt lat="44.49794" lon="3.75205">
        <ele>1165.338</ele>
        <time>2016-06-08T05:07:53Z</time>
      </trkpt>
      <trkpt lat="44.49766" lon="3.75152">
        <ele>1166.934</ele>
        <time>2016-06-08T05:08:13Z</time>
      </trkpt>
      <trkpt lat="44.49734" lon="3.75124">
        <ele>1164.373</ele>
        <time>2016-06-08T05:08:33Z</time>
      </trkpt>
      <trkpt lat="44.49724" lon="3.75047">
        <ele>1161.994</ele>
        <time>2016-06-08T05:08:53Z</time>
      </trkpt>
      <trkpt lat="44.49691" lon="3.74991">
        <ele>1155.786</ele>
        <time>2016-06-08T05:09:13Z</time>
      </trkpt>
      <trkpt lat="44.49578" lon="3.74883">
        <ele>1147.116</ele>
        <time>2016-06-08T05:09:33Z</time>
      </trkpt>
      <trkpt lat="44.49513" lon="3.74791">
        <ele>1142.876</ele>
        <time>2016-06-08T05:09:53Z</time>
      </trkpt>
      <trkpt lat="44.49499" lon="3.74764">
        <ele>1141.413</ele>
        <time>2016-06-08T05:10:13Z</time>
      </trkpt>
      <trkpt lat="44.49467" lon="3.74715">
        <ele>1139.308</ele>
        <time>2016-06-08T05:10:33Z</time>
      </trkpt>
      <trkpt lat="44.49432" lon="3.74695">
        <ele>1136.987</ele>
        <time>2016-06-08T05:10:53Z</time>
      </trkpt>
      <trkpt lat="44.49408" lon="3.74648">
        <ele>1136.826</ele>
        <time>2016-06-08T05:11:13Z</time>
      </trkpt>
      <trkpt lat="44.49347" lon="3.74464">
        <ele>1124.941</ele>
        <time>2016-06-08T05:11:33Z</time>
      </trkpt>
      <trkpt lat="44.49293" lon="3.74364">
        <ele>1113.732</ele>
        <time>2016-06-08T05:11:53Z</time>
      </trkpt>
      <trkpt lat="44.49241" lon="3.74304">
        <ele>1106.088</ele>
        <time>2016-06-08T05:12:13Z</time>
      </trkpt>
      <trkpt lat="44.49228" lon="3.74277">
        <ele>1105.287</ele>
        <time>2016-06-08T05:12:33Z</time>
      </trkpt>
      <trkpt lat="44.4917" lon="3.74192">
        <ele>1087.728</ele>
        <time>2016-06-08T05:12:53Z</time>
      </trkpt>
      <trkpt lat="44.49156" lon="3.74131">
        <ele>1079.65</ele>
        <time>2016-06-08T05:13:13Z</time>
      </trkpt>
      <trkpt lat="44.49143" lon="3.74149">
        <ele>1077.488</ele>
        <time>2016-06-08T05:13:33Z</time>
      </trkpt>
      <trkpt lat="44.49142" lon="3.74227">
        <ele>1081.224</ele>
        <time>2016-06-08T05:13:53Z</time>
      </trkpt>
      <trkpt lat="44.49124" lon="3.74189">
        <ele>1075.026</ele>
        <time>2016-06-08T05:14:13Z</time>
      </trkpt>
      <trkpt lat="44.49108" lon="3.74095">
        <ele>1073.008</ele>
        <time>2016-06-08T05:14:33Z</time>
      </trkpt>
      <trkpt lat="44.49027" lon="3.73995">
        <ele>1070.134</ele>
        <time>2016-06-08T05:14:53Z</time>
      </trkpt>
      <trkpt lat="44.49016" lon="3.73952">
        <ele>1070.913</ele>
        <time>2016-06-08T05:15:13Z</time>
      </trkpt>
      <trkpt lat="44.48922" lon="3.73925">
        <ele>1064.578</ele>
        <time>2016-06-08T05:15:33Z</time>
      </trkpt>
      <trkpt lat="44.48899" lon="3.73837">
        <ele>1069.689</ele>
        <time>2016-06-08T05:15:53Z</time>
      </trkpt>
      <trkpt lat="44.48876" lon="3.73792">
        <ele>1073.245</ele>
        <time>2016-06-08T05:16:13Z</time>
      </trkpt>
      <trkpt lat="44.48828" lon="3.7375">
        <ele>1081.074</ele>
        <time>2016-06-08T05:16:33Z</time>
      </trkpt>
      <trkpt lat="44.48794" lon="3.73682">
        <ele>1082.195</ele>
        <time>2016-06-08T05:16:53Z</time>
      </trkpt>
      <trkpt lat="44.48753" lon="3.73624">
        <ele>1082.377</ele>
        <time>2021-02-02T22:38:12Z</time>
      </trkpt>
      <trkpt lat="44.48694" lon="3.73567">
        <ele>1080.076</ele>
        <time>2021-02-02T22:38:32Z</time>
      </trkpt>
      <trkpt lat="44.48663" lon="3.73545">
        <ele>1078.79</ele>
        <time>2021-02-02T22:38:52Z</time>
      </trkpt>
      <trkpt lat="44.48658" lon="3.73563">
        <ele>1081.619</ele>
        <time>2021-02-02T22:39:12Z</time>
      </trkpt>
      <trkpt lat="44.48642" lon="3.73563">
        <ele>1081.908</ele>
        <time>2021-02-02T22:39:32Z</time>
      </trkpt>
      <trkpt lat="44.4863" lon="3.73572">
        <ele>1083.463</ele>
        <time>2021-02-02T22:39:52Z</time>
      </trkpt>
      <trkpt lat="44.48632" lon="3.73592">
        <ele>1086.112</ele>
        <time>2021-02-02T22:40:12Z</time>
      </trkpt>
      <trkpt lat="44.4866" lon="3.7359">
        <ele>1086.037</ele>
        <time>2021-02-02T22:40:32Z</time>
      </trkpt>
      <trkpt lat="44.48657" lon="3.73636">
        <ele>1092.498</ele>
        <time>2021-02-02T22:40:52Z</time>
      </trkpt>
      <trkpt lat="44.48695" lon="3.73655">
        <ele>1092.694</ele>
        <time>2021-02-02T22:41:12Z</time>
      </trkpt>
      <trkpt lat="44.48654" lon="3.73683">
        <ele>1098.623</ele>
        <time>2021-02-02T22:41:32Z</time>
      </trkpt>
      <trkpt lat="44.48616" lon="3.73733">
        <ele>1104.094</ele>
        <time>2021-02-02T22:41:52Z</time>
      </trkpt>
      <trkpt lat="44.4863" lon="3.73758">
        <ele>1107.146</ele>
        <time>2021-02-02T22:42:12Z</time>
      </trkpt>
      <trkpt lat="44.48602" lon="3.73785">
        <ele>1111.888</ele>
        <time>2021-02-02T22:42:32Z</time>
      </trkpt>
      <trkpt lat="44.48566" lon="3.73807">
        <ele>1113.924</ele>
        <time>2016-06-08T05:19:13Z</time>
      </trkpt>
      <trkpt lat="44.48355" lon="3.74017">
        <ele>1131.326</ele>
        <time>2016-06-08T05:19:33Z</time>
      </trkpt>
      <trkpt lat="44.48329" lon="3.74015">
        <ele>1134.308</ele>
        <time>2016-06-08T05:19:53Z</time>
      </trkpt>
      <trkpt lat="44.48279" lon="3.73899">
        <ele>1146.114</ele>
        <time>2016-06-08T05:20:13Z</time>
      </trkpt>
      <trkpt lat="44.48252" lon="3.73891">
        <ele>1145.463</ele>
        <time>2016-06-08T05:20:33Z</time>
      </trkpt>
      <trkpt lat="44.48205" lon="3.73904">
        <ele>1147.378</ele>
        <time>2016-06-08T05:20:53Z</time>
      </trkpt>
      <trkpt lat="44.4816" lon="3.73939">
        <ele>1156.279</ele>
        <time>2016-06-08T05:21:13Z</time>
      </trkpt>
      <trkpt lat="44.48062" lon="3.7397">
        <ele>1167.965</ele>
        <time>2016-06-08T05:21:33Z</time>
      </trkpt>
      <trkpt lat="44.47934" lon="3.74038">
        <ele>1188.224</ele>
        <time>2016-06-08T05:21:53Z</time>
      </trkpt>
      <trkpt lat="44.47864" lon="3.74046">
        <ele>1186.815</ele>
        <time>2016-06-08T05:22:13Z</time>
      </trkpt>
      <trkpt lat="44.4776" lon="3.74044">
        <ele>1184.447</ele>
        <time>2016-06-08T05:22:33Z</time>
      </trkpt>
      <trkpt lat="44.47707" lon="3.74017">
        <ele>1184.845</ele>
        <time>2016-06-08T05:22:53Z</time>
      </trkpt>
      <trkpt lat="44.47641" lon="3.73999">
        <ele>1190.047</ele>
        <time>2016-06-08T05:23:13Z</time>
      </trkpt>
      <trkpt lat="44.47581" lon="3.73992">
        <ele>1192.211</ele>
        <time>2016-06-08T05:23:33Z</time>
      </trkpt>
      <trkpt lat="44.4754" lon="3.73975">
        <ele>1194.708</ele>
        <time>2016-06-08T05:23:53Z</time>
      </trkpt>
      <trkpt lat="44.4754" lon="3.73975">
        <ele>1194.79</ele>
        <time>2016-06-08T05:24:13Z</time>
      </trkpt>
      <trkpt lat="44.47505" lon="3.73936">
        <ele>1194.639</ele>
        <time>2016-06-08T05:24:33Z</time>
      </trkpt>
      <trkpt lat="44.47456" lon="3.73869">
        <ele>1192.794</ele>
        <time>2016-06-08T05:24:53Z</time>
      </trkpt>
      <trkpt lat="44.47355" lon="3.73828">
        <ele>1196.255</ele>
        <time>2016-06-08T05:25:13Z</time>
      </trkpt>
      <trkpt lat="44.47297" lon="3.73832">
        <ele>1205.051</ele>
        <time>2016-06-08T05:25:33Z</time>
      </trkpt>
      <trkpt lat="44.47237" lon="3.73808">
        <ele>1219.37</ele>
        <time>2016-06-08T05:25:53Z</time>
      </trkpt>
      <trkpt lat="44.47185" lon="3.7381">
        <ele>1226.181</ele>
        <time>2016-06-08T05:26:13Z</time>
      </trkpt>
      <trkpt lat="44.47094" lon="3.73853">
        <ele>1241.833</ele>
        <time>2016-06-08T05:26:33Z</time>
      </trkpt>
      <trkpt lat="44.47051" lon="3.73955">
        <ele>1249.775</ele>
        <time>2016-06-08T05:26:53Z</time>
      </trkpt>
      <trkpt lat="44.47008" lon="3.74019">
        <ele>1254.228</ele>
        <time>2016-06-08T05:27:13Z</time>
      </trkpt>
      <trkpt lat="44.46881" lon="3.74161">
        <ele>1266.82</ele>
        <time>2016-06-08T05:27:33Z</time>
      </trkpt>
      <trkpt lat="44.46845" lon="3.74236">
        <ele>1276.108</ele>
        <time>2016-06-08T05:27:53Z</time>
      </trkpt>
      <trkpt lat="44.46865" lon="3.74414">
        <ele>1277.393</ele>
        <time>2016-06-08T05:28:13Z</time>
      </trkpt>
      <trkpt lat="44.46857" lon="3.74449">
        <ele>1280.852</ele>
        <time>2016-06-08T05:28:33Z</time>
      </trkpt>
      <trkpt lat="44.46751" lon="3.74578">
        <ele>1302.267</ele>
        <time>2016-06-08T05:28:53Z</time>
      </trkpt>
      <trkpt lat="44.46678" lon="3.74639">
        <ele>1325.878</ele>
        <time>2016-06-08T05:29:13Z</time>
      </trkpt>
      <trkpt lat="44.46576" lon="3.74672">
        <ele>1340.994</ele>
        <time>2016-06-08T05:29:33Z</time>
      </trkpt>
      <trkpt lat="44.46535" lon="3.74723">
        <ele>1342.053</ele>
        <time>2016-06-08T05:29:53Z</time>
      </trkpt>
      <trkpt lat="44.46483" lon="3.74769">
        <ele>1348.644</ele>
        <time>2016-06-08T05:30:13Z</time>
      </trkpt>
      <trkpt lat="44.46399" lon="3.74825">
        <ele>1369.566</ele>
        <time>2016-06-08T05:30:33Z</time>
      </trkpt>
      <trkpt lat="44.46313" lon="3.74829">
        <ele>1381.157</ele>
        <time>2016-06-08T05:30:53Z</time>
      </trkpt>
      <trkpt lat="44.46247" lon="3.74811">
        <ele>1391.2</ele>
        <time>2016-06-08T05:31:13Z</time>
      </trkpt>
      <trkpt lat="44.46147" lon="3.74789">
        <ele>1401.42</ele>
        <time>2016-06-08T05:31:33Z</time>
      </trkpt>
      <trkpt lat="44.46002" lon="3.74827">
        <ele>1409.008</ele>
        <time>2016-06-08T05:31:53Z</time>
      </trkpt>
      <trkpt lat="44.45822" lon="3.74883">
        <ele>1405.841</ele>
        <time>2016-06-08T05:32:13Z</time>
      </trkpt>
      <trkpt lat="44.45686" lon="3.74952">
        <ele>1401.23</ele>
        <time>2016-06-08T05:32:33Z</time>
      </trkpt>
      <trkpt lat="44.45639" lon="3.74941">
        <ele>1402.835</ele>
        <time>2016-06-08T05:32:53Z</time>
      </trkpt>
      <trkpt lat="44.45424" lon="3.74929">
        <ele>1413.346</ele>
        <time>2016-06-08T05:33:13Z</time>
      </trkpt>
      <trkpt lat="44.4536" lon="3.7491">
        <ele>1416.332</ele>
        <time>2016-06-08T05:33:33Z</time>
      </trkpt>
      <trkpt lat="44.45289" lon="3.74855">
        <ele>1417.081</ele>
        <time>2016-06-08T05:33:53Z</time>
      </trkpt>
      <trkpt lat="44.45164" lon="3.74782">
        <ele>1412.152</ele>
        <time>2016-06-08T05:34:13Z</time>
      </trkpt>
      <trkpt lat="44.45144" lon="3.74766">
        <ele>1412.244</ele>
        <time>2016-06-08T05:34:33Z</time>
      </trkpt>
      <trkpt lat="44.45041" lon="3.74741">
        <ele>1418.916</ele>
        <time>2019-03-26T01:52:11Z</time>
      </trkpt>
      <trkpt lat="44.44892" lon="3.74677">
        <ele>1434.076</ele>
        <time>2019-03-26T01:52:31Z</time>
      </trkpt>
      <trkpt lat="44.44757" lon="3.74679">
        <ele>1441.513</ele>
        <time>2016-06-08T05:36:13Z</time>
      </trkpt>
      <trkpt lat="44.44527" lon="3.74756">
        <ele>1474.408</ele>
        <time>2016-06-08T05:36:33Z</time>
      </trkpt>
      <trkpt lat="44.44511" lon="3.74808">
        <ele>1476.927</ele>
        <time>2016-06-08T05:36:53Z</time>
      </trkpt>
      <trkpt lat="44.44403" lon="3.74829">
        <ele>1490.416</ele>
        <time>2016-06-08T05:37:13Z</time>
      </trkpt>
      <trkpt lat="44.44342" lon="3.74886">
        <ele>1498.211</ele>
        <time>2016-06-08T05:37:33Z</time>
      </trkpt>
      <trkpt lat="44.44261" lon="3.74938">
        <ele>1512.372</ele>
        <time>2016-06-08T05:37:53Z</time>
      </trkpt>
      <trkpt lat="44.44174" lon="3.7495">
        <ele>1519.758</ele>
        <time>2016-06-08T05:38:13Z</time>
      </trkpt>
      <trkpt lat="44.43903" lon="3.74936">
        <ele>1538.227</ele>
        <time>2016-06-08T05:38:33Z</time>
      </trkpt>
      <trkpt lat="44.43669" lon="3.74919">
        <ele>1557.298</ele>
        <time>2016-06-08T05:38:53Z</time>
      </trkpt>
      <trkpt lat="44.4358" lon="3.7493">
        <ele>1561.15</ele>
        <time>2016-06-08T05:39:13Z</time>
      </trkpt>
      <trkpt lat="44.43401" lon="3.74886">
        <ele>1569.172</ele>
        <time>2016-06-08T05:39:33Z</time>
      </trkpt>
      <trkpt lat="44.43304" lon="3.74887">
        <ele>1573.113</ele>
        <time>2016-06-08T05:39:53Z</time>
      </trkpt>
      <trkpt lat="44.4314" lon="3.74922">
        <ele>1592.514</ele>
        <time>2016-06-08T05:40:13Z</time>
      </trkpt>
      <trkpt lat="44.42946" lon="3.75">
        <ele>1614.808</ele>
        <time>2016-06-08T05:40:33Z</time>
      </trkpt>
      <trkpt lat="44.42689" lon="3.75118">
        <ele>1631.843</ele>
        <time>2016-06-08T05:41:33Z</time>
      </trkpt>
      <trkpt lat="44.42635" lon="3.75141">
        <ele>1632.332</ele>
        <time>2016-06-08T05:41:53Z</time>
      </trkpt>
      <trkpt lat="44.4267" lon="3.74664">
        <ele>1675.957</ele>
        <time>2016-06-08T05:42:33Z</time>
      </trkpt>
      <trkpt lat="44.42691" lon="3.74581">
        <ele>1681.128</ele>
        <time>2016-06-08T05:42:53Z</time>
      </trkpt>
      <trkpt lat="44.4274" lon="3.74513">
        <ele>1683.054</ele>
        <time>2016-06-08T05:43:13Z</time>
      </trkpt>
      <trkpt lat="44.4271" lon="3.74442">
        <ele>1682.553</ele>
        <time>2016-06-08T05:43:33Z</time>
      </trkpt>
      <trkpt lat="44.4266" lon="3.74272">
        <ele>1677.254</ele>
        <time>2016-06-08T05:43:53Z</time>
      </trkpt>
      <trkpt lat="44.42614" lon="3.74">
        <ele>1698.916</ele>
        <time>2016-06-08T05:44:13Z</time>
      </trkpt>
      <trkpt lat="44.42607" lon="3.73916">
        <ele>1698.897</ele>
        <time>2016-06-08T05:44:33Z</time>
      </trkpt>
      <trkpt lat="44.42451" lon="3.73871">
        <ele>1688.523</ele>
        <time>2016-06-08T05:44:53Z</time>
      </trkpt>
      <trkpt lat="44.42272" lon="3.73887">
        <ele>1662.325</ele>
        <time>2016-06-08T05:45:13Z</time>
      </trkpt>
      <trkpt lat="44.42246" lon="3.74025">
        <ele>1660.608</ele>
        <time>2016-06-08T05:45:33Z</time>
      </trkpt>
      <trkpt lat="44.42224" lon="3.74083">
        <ele>1658.345</ele>
        <time>2016-06-08T05:45:53Z</time>
      </trkpt>
      <trkpt lat="44.42181" lon="3.74035">
        <ele>1649.914</ele>
        <time>2016-06-08T05:46:13Z</time>
      </trkpt>
      <trkpt lat="44.42061" lon="3.73974">
        <ele>1629.089</ele>
        <time>2019-03-26T02:02:11Z</time>
      </trkpt>
      <trkpt lat="44.41918" lon="3.7393">
        <ele>1599.24</ele>
        <time>2019-03-26T02:02:31Z</time>
      </trkpt>
      <trkpt lat="44.41895" lon="3.74038">
        <ele>1601.116</ele>
        <time>2019-03-26T02:02:51Z</time>
      </trkpt>
      <trkpt lat="44.41842" lon="3.74143">
        <ele>1601.715</ele>
        <time>2019-03-26T02:03:11Z</time>
      </trkpt>
      <trkpt lat="44.41802" lon="3.74193">
        <ele>1598.786</ele>
        <time>2019-03-26T02:03:31Z</time>
      </trkpt>
      <trkpt lat="44.41685" lon="3.74462">
        <ele>1559.828</ele>
        <time>2019-03-26T02:03:51Z</time>
      </trkpt>
      <trkpt lat="44.41589" lon="3.74186">
        <ele>1545.584</ele>
        <time>2019-03-26T02:04:11Z</time>
      </trkpt>
      <trkpt lat="44.4158" lon="3.74134">
        <ele>1538.907</ele>
        <time>2019-03-26T02:04:31Z</time>
      </trkpt>
      <trkpt lat="44.41549" lon="3.74103">
        <ele>1528.817</ele>
        <time>2019-03-26T02:04:51Z</time>
      </trkpt>
      <trkpt lat="44.41528" lon="3.74015">
        <ele>1516.708</ele>
        <time>2019-03-26T02:05:11Z</time>
      </trkpt>
      <trkpt lat="44.41533" lon="3.73942">
        <ele>1508.874</ele>
        <time>2019-03-26T02:05:31Z</time>
      </trkpt>
      <trkpt lat="44.41524" lon="3.73892">
        <ele>1500.633</ele>
        <time>2019-03-26T02:05:51Z</time>
      </trkpt>
      <trkpt lat="44.41523" lon="3.73845">
        <ele>1496.368</ele>
        <time>2019-03-26T02:06:11Z</time>
      </trkpt>
      <trkpt lat="44.41498" lon="3.73832">
        <ele>1490.649</ele>
        <time>2019-03-26T02:06:31Z</time>
      </trkpt>
      <trkpt lat="44.41486" lon="3.73769">
        <ele>1483.915</ele>
        <time>2016-06-08T05:48:13Z</time>
      </trkpt>
      <trkpt lat="44.41519" lon="3.73692">
        <ele>1477.524</ele>
        <time>2016-06-08T05:48:33Z</time>
      </trkpt>
      <trkpt lat="44.41306" lon="3.73805">
        <ele>1462.065</ele>
        <time>2016-06-08T05:48:53Z</time>
      </trkpt>
      <trkpt lat="44.41277" lon="3.73876">
        <ele>1460.337</ele>
        <time>2016-06-08T05:49:13Z</time>
      </trkpt>
      <trkpt lat="44.41264" lon="3.73869">
        <ele>1458.227</ele>
        <time>2016-06-08T05:49:33Z</time>
      </trkpt>
      <trkpt lat="44.41219" lon="3.73779">
        <ele>1452.968</ele>
        <time>2016-06-08T05:49:53Z</time>
      </trkpt>
      <trkpt lat="44.41161" lon="3.73636">
        <ele>1449.714</ele>
        <time>2016-06-08T05:50:13Z</time>
      </trkpt>
      <trkpt lat="44.41094" lon="3.73499">
        <ele>1444.808</ele>
        <time>2019-03-26T02:09:11Z</time>
      </trkpt>
      <trkpt lat="44.4104" lon="3.73414">
        <ele>1436.878</ele>
        <time>2019-03-26T02:09:31Z</time>
      </trkpt>
      <trkpt lat="44.40853" lon="3.73296">
        <ele>1431.287</ele>
        <time>2016-06-08T05:51:13Z</time>
      </trkpt>
      <trkpt lat="44.40759" lon="3.73165">
        <ele>1423.182</ele>
        <time>2016-06-08T05:51:33Z</time>
      </trkpt>
      <trkpt lat="44.40721" lon="3.73147">
        <ele>1422.173</ele>
        <time>2016-06-08T05:51:53Z</time>
      </trkpt>
      <trkpt lat="44.40617" lon="3.7313">
        <ele>1417.729</ele>
        <time>2016-06-08T05:52:13Z</time>
      </trkpt>
      <trkpt lat="44.40548" lon="3.7314">
        <ele>1412.938</ele>
        <time>2016-06-08T05:52:33Z</time>
      </trkpt>
      <trkpt lat="44.40545" lon="3.72951">
        <ele>1407.719</ele>
        <time>2016-06-08T05:52:53Z</time>
      </trkpt>
      <trkpt lat="44.40435" lon="3.72904">
        <ele>1388.911</ele>
        <time>2016-06-08T05:53:13Z</time>
      </trkpt>
      <trkpt lat="44.40363" lon="3.72893">
        <ele>1377.485</ele>
        <time>2016-06-08T05:53:33Z</time>
      </trkpt>
      <trkpt lat="44.40304" lon="3.72876">
        <ele>1370.089</ele>
        <time>2016-06-08T05:53:53Z</time>
      </trkpt>
      <trkpt lat="44.40235" lon="3.72885">
        <ele>1356.017</ele>
        <time>2016-06-08T05:54:13Z</time>
      </trkpt>
      <trkpt lat="44.40194" lon="3.72909">
        <ele>1351.208</ele>
        <time>2016-06-08T05:54:33Z</time>
      </trkpt>
      <trkpt lat="44.40208" lon="3.73074">
        <ele>1339.334</ele>
        <time>2016-06-08T05:54:53Z</time>
      </trkpt>
      <trkpt lat="44.40186" lon="3.73197">
        <ele>1330.273</ele>
        <time>2016-06-08T05:55:13Z</time>
      </trkpt>
      <trkpt lat="44.40144" lon="3.7332">
        <ele>1318.948</ele>
        <time>2016-06-08T05:55:33Z</time>
      </trkpt>
      <trkpt lat="44.40132" lon="3.73441">
        <ele>1308.349</ele>
        <time>2016-06-08T05:55:53Z</time>
      </trkpt>
      <trkpt lat="44.40132" lon="3.73441">
        <ele>1308.355</ele>
        <time>2016-06-08T05:56:13Z</time>
      </trkpt>
      <trkpt lat="44.4016" lon="3.73562">
        <ele>1305.124</ele>
        <time>2016-06-08T05:56:33Z</time>
      </trkpt>
      <trkpt lat="44.40147" lon="3.73713">
        <ele>1292.625</ele>
        <time>2016-06-08T05:56:53Z</time>
      </trkpt>
      <trkpt lat="44.40206" lon="3.74032">
        <ele>1265.867</ele>
        <time>2016-06-08T05:57:13Z</time>
      </trkpt>
      <trkpt lat="44.40229" lon="3.74071">
        <ele>1264.267</ele>
        <time>2016-06-08T05:57:33Z</time>
      </trkpt>
      <trkpt lat="44.40266" lon="3.74092">
        <ele>1263.581</ele>
        <time>2016-06-08T05:57:53Z</time>
      </trkpt>
      <trkpt lat="44.40309" lon="3.74181">
        <ele>1255.219</ele>
        <time>2016-06-08T05:58:13Z</time>
      </trkpt>
      <trkpt lat="44.40349" lon="3.74228">
        <ele>1251.108</ele>
        <time>2016-06-08T05:58:33Z</time>
      </trkpt>
      <trkpt lat="44.40371" lon="3.74272">
        <ele>1251.232</ele>
        <time>2016-06-08T05:58:53Z</time>
      </trkpt>
      <trkpt lat="44.40414" lon="3.74307">
        <ele>1254.591</ele>
        <time>2016-06-08T05:59:13Z</time>
      </trkpt>
      <trkpt lat="44.40433" lon="3.74364">
        <ele>1251.716</ele>
        <time>2016-06-08T05:59:33Z</time>
      </trkpt>
      <trkpt lat="44.40423" lon="3.74416">
        <ele>1244.077</ele>
        <time>2016-06-08T05:59:53Z</time>
      </trkpt>
      <trkpt lat="44.40406" lon="3.7442">
        <ele>1240.613</ele>
        <time>2016-06-08T06:00:13Z</time>
      </trkpt>
      <trkpt lat="44.4042" lon="3.74464">
        <ele>1241.062</ele>
        <time>2016-06-08T06:00:33Z</time>
      </trkpt>
      <trkpt lat="44.40407" lon="3.74507">
        <ele>1235.723</ele>
        <time>2016-06-08T06:00:53Z</time>
      </trkpt>
      <trkpt lat="44.40361" lon="3.74533">
        <ele>1230.655</ele>
        <time>2016-06-08T06:01:13Z</time>
      </trkpt>
      <trkpt lat="44.40308" lon="3.74482">
        <ele>1226.518</ele>
        <time>2016-06-08T06:01:33Z</time>
      </trkpt>
      <trkpt lat="44.40281" lon="3.74484">
        <ele>1224.698</ele>
        <time>2016-06-08T06:01:53Z</time>
      </trkpt>
      <trkpt lat="44.40194" lon="3.74431">
        <ele>1217.917</ele>
        <time>2016-06-08T06:02:13Z</time>
      </trkpt>
      <trkpt lat="44.40098" lon="3.74428">
        <ele>1208.208</ele>
        <time>2016-06-08T06:02:33Z</time>
      </trkpt>
      <trkpt lat="44.4008" lon="3.74379">
        <ele>1208.987</ele>
        <time>2016-06-08T06:02:53Z</time>
      </trkpt>
      <trkpt lat="44.40025" lon="3.74362">
        <ele>1204.846</ele>
        <time>2019-03-26T02:21:51Z</time>
      </trkpt>
      <trkpt lat="44.39997" lon="3.74437">
        <ele>1195.251</ele>
        <time>2019-03-26T02:22:11Z</time>
      </trkpt>
      <trkpt lat="44.39895" lon="3.74462">
        <ele>1195.382</ele>
        <time>2019-03-26T02:22:31Z</time>
      </trkpt>
      <trkpt lat="44.39849" lon="3.74442">
        <ele>1196.378</ele>
        <time>2019-03-26T02:22:51Z</time>
      </trkpt>
      <trkpt lat="44.39783" lon="3.74448">
        <ele>1192.097</ele>
        <time>2016-06-08T06:04:13Z</time>
      </trkpt>
      <trkpt lat="44.39751" lon="3.74508">
        <ele>1187.528</ele>
        <time>2016-06-08T06:04:33Z</time>
      </trkpt>
      <trkpt lat="44.39751" lon="3.74508">
        <ele>1187.51</ele>
        <time>2016-06-08T06:04:53Z</time>
      </trkpt>
      <trkpt lat="44.39684" lon="3.74506">
        <ele>1186.076</ele>
        <time>2016-06-08T06:05:13Z</time>
      </trkpt>
      <trkpt lat="44.39665" lon="3.74516">
        <ele>1184.49</ele>
        <time>2016-06-08T06:05:33Z</time>
      </trkpt>
      <trkpt lat="44.39633" lon="3.74505">
        <ele>1183.619</ele>
        <time>2016-06-08T06:05:53Z</time>
      </trkpt>
      <trkpt lat="44.39593" lon="3.7452">
        <ele>1181.208</ele>
        <time>2016-06-08T06:06:13Z</time>
      </trkpt>
      <trkpt lat="44.39499" lon="3.74533">
        <ele>1177.833</ele>
        <time>2016-06-08T06:06:33Z</time>
      </trkpt>
      <trkpt lat="44.39444" lon="3.74557">
        <ele>1175.912</ele>
        <time>2019-03-26T02:25:51Z</time>
      </trkpt>
      <trkpt lat="44.39391" lon="3.74613">
        <ele>1171.077</ele>
        <time>2019-03-26T02:26:11Z</time>
      </trkpt>
      <trkpt lat="44.39367" lon="3.74618">
        <ele>1167.718</ele>
        <time>2019-03-26T02:26:31Z</time>
      </trkpt>
      <trkpt lat="44.39354" lon="3.7458">
        <ele>1165.294</ele>
        <time>2019-03-26T02:26:51Z</time>
      </trkpt>
      <trkpt lat="44.39358" lon="3.74537">
        <ele>1161.043</ele>
        <time>2019-03-26T02:27:11Z</time>
      </trkpt>
      <trkpt lat="44.39391" lon="3.74446">
        <ele>1155.624</ele>
        <time>2019-03-26T02:27:31Z</time>
      </trkpt>
      <trkpt lat="44.39386" lon="3.74415">
        <ele>1153.136</ele>
        <time>2019-03-26T02:27:51Z</time>
      </trkpt>
      <trkpt lat="44.39359" lon="3.74387">
        <ele>1154.233</ele>
        <time>2019-03-26T02:28:11Z</time>
      </trkpt>
      <trkpt lat="44.39342" lon="3.74347">
        <ele>1157.523</ele>
        <time>2019-03-26T02:28:31Z</time>
      </trkpt>
      <trkpt lat="44.39216" lon="3.7436">
        <ele>1148.315</ele>
        <time>2019-03-26T02:28:51Z</time>
      </trkpt>
      <trkpt lat="44.39177" lon="3.74299">
        <ele>1154.908</ele>
        <time>2019-03-26T02:29:11Z</time>
      </trkpt>
      <trkpt lat="44.39129" lon="3.74298">
        <ele>1157.949</ele>
        <time>2019-03-26T02:29:31Z</time>
      </trkpt>
      <trkpt lat="44.39098" lon="3.74348">
        <ele>1147.318</ele>
        <time>2019-03-26T02:29:51Z</time>
      </trkpt>
      <trkpt lat="44.39048" lon="3.74367">
        <ele>1147.873</ele>
        <time>2019-03-26T02:30:11Z</time>
      </trkpt>
      <trkpt lat="44.38997" lon="3.7443">
        <ele>1141.264</ele>
        <time>2019-03-26T02:30:31Z</time>
      </trkpt>
      <trkpt lat="44.38938" lon="3.74472">
        <ele>1142.27</ele>
        <time>2019-03-26T02:30:51Z</time>
      </trkpt>
      <trkpt lat="44.38886" lon="3.74477">
        <ele>1143.569</ele>
        <time>2019-03-26T02:31:11Z</time>
      </trkpt>
      <trkpt lat="44.38845" lon="3.74467">
        <ele>1141.67</ele>
        <time>2019-03-26T02:31:31Z</time>
      </trkpt>
      <trkpt lat="44.38726" lon="3.74503">
        <ele>1134.932</ele>
        <time>2019-03-26T02:31:51Z</time>
      </trkpt>
      <trkpt lat="44.38695" lon="3.74566">
        <ele>1135.336</ele>
        <time>2021-02-02T23:38:32Z</time>
      </trkpt>
      <trkpt lat="44.38686" lon="3.7456">
        <ele>1135.717</ele>
        <time>2021-02-02T23:38:52Z</time>
      </trkpt>
      <trkpt lat="44.38664" lon="3.74564">
        <ele>1136.118</ele>
        <time>2021-02-02T23:39:12Z</time>
      </trkpt>
      <trkpt lat="44.3862" lon="3.7456">
        <ele>1134.508</ele>
        <time>2021-02-02T23:39:32Z</time>
      </trkpt>
      <trkpt lat="44.38613" lon="3.7454">
        <ele>1133.989</ele>
        <time>2021-02-02T23:39:52Z</time>
      </trkpt>
      <trkpt lat="44.38592" lon="3.74539">
        <ele>1132.828</ele>
        <time>2021-02-02T23:40:12Z</time>
      </trkpt>
      <trkpt lat="44.38578" lon="3.74549">
        <ele>1132.453</ele>
        <time>2021-02-02T23:40:32Z</time>
      </trkpt>
      <trkpt lat="44.3855" lon="3.74544">
        <ele>1130.114</ele>
        <time>2021-02-02T23:40:52Z</time>
      </trkpt>
      <trkpt lat="44.38535" lon="3.74525">
        <ele>1128.77</ele>
        <time>2021-02-02T23:41:12Z</time>
      </trkpt>
      <trkpt lat="44.38504" lon="3.74499">
        <ele>1126.469</ele>
        <time>2021-02-02T23:41:32Z</time>
      </trkpt>
      <trkpt lat="44.38486" lon="3.74475">
        <ele>1128.23</ele>
        <time>2021-02-02T23:41:52Z</time>
      </trkpt>
      <trkpt lat="44.38444" lon="3.74481">
        <ele>1124.692</ele>
        <time>2019-03-26T02:33:31Z</time>
      </trkpt>
      <trkpt lat="44.384" lon="3.74453">
        <ele>1123.942</ele>
        <time>2019-03-26T02:33:51Z</time>
      </trkpt>
      <trkpt lat="44.38353" lon="3.7446">
        <ele>1122.422</ele>
        <time>2019-03-26T02:34:11Z</time>
      </trkpt>
      <trkpt lat="44.38315" lon="3.74442">
        <ele>1123.214</ele>
        <time>2019-03-26T02:34:31Z</time>
      </trkpt>
      <trkpt lat="44.38275" lon="3.74488">
        <ele>1121.908</ele>
        <time>2019-03-26T02:34:51Z</time>
      </trkpt>
      <trkpt lat="44.38246" lon="3.745">
        <ele>1121.85</ele>
        <time>2019-03-26T02:35:11Z</time>
      </trkpt>
      <trkpt lat="44.38221" lon="3.74523">
        <ele>1119.439</ele>
        <time>2019-03-26T02:35:31Z</time>
      </trkpt>
      <trkpt lat="44.38201" lon="3.74512">
        <ele>1117.974</ele>
        <time>2021-02-02T23:44:32Z</time>
      </trkpt>
      <trkpt lat="44.38188" lon="3.74521">
        <ele>1116.515</ele>
        <time>2021-02-02T23:44:52Z</time>
      </trkpt>
      <trkpt lat="44.38168" lon="3.74513">
        <ele>1116.681</ele>
        <time>2021-02-02T23:45:12Z</time>
      </trkpt>
      <trkpt lat="44.38138" lon="3.74505">
        <ele>1115.22</ele>
        <time>2021-02-02T23:45:32Z</time>
      </trkpt>
      <trkpt lat="44.38103" lon="3.74514">
        <ele>1111.491</ele>
        <time>2021-02-02T23:45:52Z</time>
      </trkpt>
      <trkpt lat="44.38074" lon="3.74501">
        <ele>1110.053</ele>
        <time>2021-02-02T23:46:12Z</time>
      </trkpt>
      <trkpt lat="44.38061" lon="3.74486">
        <ele>1109.796</ele>
        <time>2019-03-26T02:36:31Z</time>
      </trkpt>
      <trkpt lat="44.38046" lon="3.74446">
        <ele>1108.031</ele>
        <time>2019-03-26T02:36:51Z</time>
      </trkpt>
      <trkpt lat="44.37973" lon="3.74453">
        <ele>1105.824</ele>
        <time>2019-03-26T02:37:11Z</time>
      </trkpt>
      <trkpt lat="44.37952" lon="3.74439">
        <ele>1108.908</ele>
        <time>2019-03-26T02:37:31Z</time>
      </trkpt>
      <trkpt lat="44.37893" lon="3.74448">
        <ele>1105.125</ele>
        <time>2019-03-26T02:37:51Z</time>
      </trkpt>
      <trkpt lat="44.37863" lon="3.74395">
        <ele>1110.024</ele>
        <time>2019-03-26T02:38:11Z</time>
      </trkpt>
      <trkpt lat="44.37847" lon="3.74341">
        <ele>1117.699</ele>
        <time>2019-03-26T02:38:31Z</time>
      </trkpt>
      <trkpt lat="44.37833" lon="3.7432">
        <ele>1118.97</ele>
        <time>2019-03-26T02:38:51Z</time>
      </trkpt>
      <trkpt lat="44.37788" lon="3.74329">
        <ele>1116.466</ele>
        <time>2019-03-26T02:39:11Z</time>
      </trkpt>
      <trkpt lat="44.37747" lon="3.74383">
        <ele>1114.215</ele>
        <time>2019-03-26T02:39:31Z</time>
      </trkpt>
      <trkpt lat="44.37681" lon="3.74362">
        <ele>1112.916</ele>
        <time>2019-03-26T02:39:51Z</time>
      </trkpt>
      <trkpt lat="44.37617" lon="3.74364">
        <ele>1104.748</ele>
        <time>2019-03-26T02:40:11Z</time>
      </trkpt>
      <trkpt lat="44.37569" lon="3.74251">
        <ele>1104.372</ele>
        <time>2019-03-26T02:40:31Z</time>
      </trkpt>
      <trkpt lat="44.37539" lon="3.74284">
        <ele>1096.313</ele>
        <time>2019-03-26T02:40:51Z</time>
      </trkpt>
      <trkpt lat="44.37506" lon="3.74296">
        <ele>1100.514</ele>
        <time>2019-03-26T02:41:11Z</time>
      </trkpt>
      <trkpt lat="44.37427" lon="3.74366">
        <ele>1096.208</ele>
        <time>2019-03-26T02:41:31Z</time>
      </trkpt>
      <trkpt lat="44.37426" lon="3.74395">
        <ele>1092.113</ele>
        <time>2019-03-26T02:41:51Z</time>
      </trkpt>
      <trkpt lat="44.37377" lon="3.74488">
        <ele>1085.212</ele>
        <time>2019-03-26T02:42:11Z</time>
      </trkpt>
      <trkpt lat="44.37327" lon="3.74528">
        <ele>1079.617</ele>
        <time>2019-03-26T02:42:31Z</time>
      </trkpt>
      <trkpt lat="44.37253" lon="3.74524">
        <ele>1069.418</ele>
        <time>2019-03-26T02:42:51Z</time>
      </trkpt>
      <trkpt lat="44.37219" lon="3.74578">
        <ele>1061.724</ele>
        <time>2019-03-26T02:43:11Z</time>
      </trkpt>
      <trkpt lat="44.37193" lon="3.74598">
        <ele>1056.593</ele>
        <time>2019-03-26T02:43:31Z</time>
      </trkpt>
      <trkpt lat="44.37185" lon="3.74615">
        <ele>1053.374</ele>
        <time>2019-03-26T02:43:51Z</time>
      </trkpt>
      <trkpt lat="44.37141" lon="3.74603">
        <ele>1041.686</ele>
        <time>2019-03-26T02:44:11Z</time>
      </trkpt>
      <trkpt lat="44.37132" lon="3.74624">
        <ele>1041.049</ele>
        <time>2019-03-26T02:44:31Z</time>
      </trkpt>
      <trkpt lat="44.37109" lon="3.7461">
        <ele>1036.402</ele>
        <time>2019-03-26T02:44:51Z</time>
      </trkpt>
      <trkpt lat="44.37082" lon="3.74611">
        <ele>1030.722</ele>
        <time>2019-03-26T02:45:11Z</time>
      </trkpt>
      <trkpt lat="44.37104" lon="3.74566">
        <ele>1028.008</ele>
        <time>2019-03-26T02:45:31Z</time>
      </trkpt>
      <trkpt lat="44.37111" lon="3.74507">
        <ele>1025.94</ele>
        <time>2019-03-26T02:45:51Z</time>
      </trkpt>
      <trkpt lat="44.37045" lon="3.74505">
        <ele>1012.329</ele>
        <time>2019-03-26T02:46:11Z</time>
      </trkpt>
      <trkpt lat="44.3701" lon="3.74484">
        <ele>1008.124</ele>
        <time>2019-03-26T02:46:31Z</time>
      </trkpt>
      <trkpt lat="44.36974" lon="3.74481">
        <ele>1002.195</ele>
        <time>2019-03-26T02:46:51Z</time>
      </trkpt>
      <trkpt lat="44.36969" lon="3.74521">
        <ele>993.591</ele>
        <time>2019-03-26T02:47:11Z</time>
      </trkpt>
      <trkpt lat="44.36939" lon="3.745">
        <ele>987.62</ele>
        <time>2019-03-26T02:47:31Z</time>
      </trkpt>
      <trkpt lat="44.36914" lon="3.74502">
        <ele>980.971</ele>
        <time>2019-03-26T02:47:51Z</time>
      </trkpt>
      <trkpt lat="44.3686" lon="3.74456">
        <ele>975.943</ele>
        <time>2019-03-26T02:48:11Z</time>
      </trkpt>
      <trkpt lat="44.36807" lon="3.74453">
        <ele>960.562</ele>
        <time>2019-03-26T02:48:31Z</time>
      </trkpt>
      <trkpt lat="44.36771" lon="3.74439">
        <ele>952.383</ele>
        <time>2019-03-26T02:48:51Z</time>
      </trkpt>
      <trkpt lat="44.36747" lon="3.74394">
        <ele>959.211</ele>
        <time>2019-03-26T02:49:11Z</time>
      </trkpt>
      <trkpt lat="44.36685" lon="3.74437">
        <ele>936.608</ele>
        <time>2019-03-26T02:49:31Z</time>
      </trkpt>
      <trkpt lat="44.3663" lon="3.74425">
        <ele>929.552</ele>
        <time>2019-03-26T02:49:51Z</time>
      </trkpt>
      <trkpt lat="44.36581" lon="3.74444">
        <ele>916.751</ele>
        <time>2019-03-26T02:50:11Z</time>
      </trkpt>
      <trkpt lat="44.36489" lon="3.74404">
        <ele>909.216</ele>
        <time>2019-03-26T02:50:31Z</time>
      </trkpt>
      <trkpt lat="44.36464" lon="3.74415">
        <ele>901.687</ele>
        <time>2019-03-26T02:50:51Z</time>
      </trkpt>
      <trkpt lat="44.3643" lon="3.74369">
        <ele>896.223</ele>
        <time>2019-03-26T02:51:11Z</time>
      </trkpt>
      <trkpt lat="44.36405" lon="3.74388">
        <ele>887.112</ele>
        <time>2019-03-26T02:51:31Z</time>
      </trkpt>
      <trkpt lat="44.36386" lon="3.74377">
        <ele>882.223</ele>
        <time>2019-03-26T02:51:51Z</time>
      </trkpt>
      <trkpt lat="44.36376" lon="3.7433">
        <ele>880.075</ele>
        <time>2019-03-26T02:52:11Z</time>
      </trkpt>
      <trkpt lat="44.36329" lon="3.74362">
        <ele>874.927</ele>
        <time>2019-03-26T02:52:31Z</time>
      </trkpt>
      <trkpt lat="44.36285" lon="3.74342">
        <ele>876.368</ele>
        <time>2019-03-26T02:52:51Z</time>
      </trkpt>
      <trkpt lat="44.36274" lon="3.74361">
        <ele>876.514</ele>
        <time>2019-03-26T02:53:11Z</time>
      </trkpt>
      <trkpt lat="44.36265" lon="3.74354">
        <ele>878.508</ele>
        <time>2019-03-26T02:53:31Z</time>
      </trkpt>
      <trkpt lat="44.36259" lon="3.74335">
        <ele>881.338</ele>
        <time>2019-03-26T02:53:51Z</time>
      </trkpt>
      <trkpt lat="44.36232" lon="3.74356">
        <ele>885.327</ele>
        <time>2019-03-26T02:54:11Z</time>
      </trkpt>
      <trkpt lat="44.36225" lon="3.74346">
        <ele>888.462</ele>
        <time>2019-03-26T02:54:31Z</time>
      </trkpt>
      <trkpt lat="44.36242" lon="3.74282">
        <ele>897.743</ele>
        <time>2019-03-26T02:54:51Z</time>
      </trkpt>
      <trkpt lat="44.36172" lon="3.74369">
        <ele>902.459</ele>
        <time>2019-03-26T02:55:11Z</time>
      </trkpt>
      <trkpt lat="44.36136" lon="3.74379">
        <ele>914.448</ele>
        <time>2019-03-26T02:55:31Z</time>
      </trkpt>
      <trkpt lat="44.36133" lon="3.74382">
        <ele>914.789</ele>
        <time>2016-06-08T06:28:53Z</time>
      </trkpt>
      <trkpt lat="44.36086" lon="3.74382">
        <ele>919.421</ele>
        <time>2016-06-08T06:29:13Z</time>
      </trkpt>
      <trkpt lat="44.3607" lon="3.74364">
        <ele>924.846</ele>
        <time>2016-06-08T06:29:33Z</time>
      </trkpt>
      <trkpt lat="44.36088" lon="3.74363">
        <ele>925.388</ele>
        <time>2016-06-08T06:29:53Z</time>
      </trkpt>
      <trkpt lat="44.361" lon="3.74338">
        <ele>932.116</ele>
        <time>2016-06-08T06:30:13Z</time>
      </trkpt>
      <trkpt lat="44.36089" lon="3.74323">
        <ele>936.808</ele>
        <time>2016-06-08T06:30:33Z</time>
      </trkpt>
      <trkpt lat="44.36105" lon="3.74297">
        <ele>940.73</ele>
        <time>2016-06-08T06:30:53Z</time>
      </trkpt>
      <trkpt lat="44.36088" lon="3.74292">
        <ele>943.419</ele>
        <time>2016-06-08T06:31:13Z</time>
      </trkpt>
      <trkpt lat="44.36106" lon="3.74265">
        <ele>947.334</ele>
        <time>2016-06-08T06:31:33Z</time>
      </trkpt>
      <trkpt lat="44.36176" lon="3.74101">
        <ele>977.785</ele>
        <time>2016-06-08T06:31:53Z</time>
      </trkpt>
      <trkpt lat="44.36146" lon="3.74113">
        <ele>982.231</ele>
        <time>2016-06-08T06:32:13Z</time>
      </trkpt>
      <trkpt lat="44.36055" lon="3.74149">
        <ele>995.94</ele>
        <time>2016-06-08T06:32:33Z</time>
      </trkpt>
      <trkpt lat="44.35974" lon="3.7413">
        <ele>1009.991</ele>
        <time>2016-06-08T06:32:53Z</time>
      </trkpt>
      <trkpt lat="44.35949" lon="3.7413">
        <ele>1011.273</ele>
        <time>2016-06-08T06:33:13Z</time>
      </trkpt>
      <trkpt lat="44.35926" lon="3.74104">
        <ele>1019.215</ele>
        <time>2016-06-08T06:33:33Z</time>
      </trkpt>
      <trkpt lat="44.35846" lon="3.7406">
        <ele>1040.165</ele>
        <time>2016-06-08T06:33:53Z</time>
      </trkpt>
      <trkpt lat="44.3582" lon="3.74031">
        <ele>1046.511</ele>
        <time>2016-06-08T06:34:13Z</time>
      </trkpt>
      <trkpt lat="44.35777" lon="3.74031">
        <ele>1053.608</ele>
        <time>2016-06-08T06:34:33Z</time>
      </trkpt>
      <trkpt lat="44.35738" lon="3.74051">
        <ele>1053.877</ele>
        <time>2016-06-08T06:34:53Z</time>
      </trkpt>
      <trkpt lat="44.35684" lon="3.74059">
        <ele>1067.636</ele>
        <time>2016-06-08T06:35:13Z</time>
      </trkpt>
      <trkpt lat="44.35705" lon="3.74034">
        <ele>1072.981</ele>
        <time>2016-06-08T06:35:33Z</time>
      </trkpt>
      <trkpt lat="44.35563" lon="3.74055">
        <ele>1095.222</ele>
        <time>2016-06-08T06:35:53Z</time>
      </trkpt>
      <trkpt lat="44.35519" lon="3.74058">
        <ele>1097.538</ele>
        <time>2016-06-08T06:36:13Z</time>
      </trkpt>
      <trkpt lat="44.35483" lon="3.74041">
        <ele>1103.067</ele>
        <time>2016-06-08T06:36:33Z</time>
      </trkpt>
      <trkpt lat="44.354" lon="3.74038">
        <ele>1103.228</ele>
        <time>2016-06-08T06:36:53Z</time>
      </trkpt>
      <trkpt lat="44.35296" lon="3.73981">
        <ele>1099.38</ele>
        <time>2016-06-08T06:37:13Z</time>
      </trkpt>
      <trkpt lat="44.35148" lon="3.73877">
        <ele>1108.972</ele>
        <time>2016-06-08T06:37:33Z</time>
      </trkpt>
      <trkpt lat="44.3506" lon="3.73789">
        <ele>1104.713</ele>
        <time>2016-06-08T06:37:53Z</time>
      </trkpt>
      <trkpt lat="44.34947" lon="3.73721">
        <ele>1100.914</ele>
        <time>2016-06-08T06:38:13Z</time>
      </trkpt>
      <trkpt lat="44.34856" lon="3.73678">
        <ele>1102.108</ele>
        <time>2016-06-08T06:38:33Z</time>
      </trkpt>
      <trkpt lat="44.34796" lon="3.73686">
        <ele>1101.363</ele>
        <time>2016-06-08T06:38:53Z</time>
      </trkpt>
      <trkpt lat="44.3472" lon="3.73677">
        <ele>1102.782</ele>
        <time>2016-06-08T06:39:13Z</time>
      </trkpt>
      <trkpt lat="44.34624" lon="3.7377">
        <ele>1101.627</ele>
        <time>2016-06-08T06:39:33Z</time>
      </trkpt>
      <trkpt lat="44.34583" lon="3.73768">
        <ele>1099.468</ele>
        <time>2016-06-08T06:39:53Z</time>
      </trkpt>
      <trkpt lat="44.34553" lon="3.73745">
        <ele>1100.414</ele>
        <time>2016-06-08T06:40:13Z</time>
      </trkpt>
      <trkpt lat="44.34479" lon="3.73753">
        <ele>1105.713</ele>
        <time>2016-06-08T06:40:33Z</time>
      </trkpt>
      <trkpt lat="44.34426" lon="3.73783">
        <ele>1105.794</ele>
        <time>2016-06-08T06:40:53Z</time>
      </trkpt>
      <trkpt lat="44.34338" lon="3.73788">
        <ele>1104.116</ele>
        <time>2016-06-08T06:41:13Z</time>
      </trkpt>
      <trkpt lat="44.34296" lon="3.73774">
        <ele>1101.043</ele>
        <time>2016-06-08T06:41:33Z</time>
      </trkpt>
      <trkpt lat="44.34276" lon="3.7378">
        <ele>1100.064</ele>
        <time>2016-06-08T06:41:53Z</time>
      </trkpt>
      <trkpt lat="44.34241" lon="3.73741">
        <ele>1096.01</ele>
        <time>2016-06-08T06:42:13Z</time>
      </trkpt>
      <trkpt lat="44.34199" lon="3.73784">
        <ele>1096.208</ele>
        <time>2016-06-08T06:42:33Z</time>
      </trkpt>
      <trkpt lat="44.34194" lon="3.73861">
        <ele>1090.98</ele>
        <time>2016-06-08T06:42:53Z</time>
      </trkpt>
      <trkpt lat="44.34141" lon="3.73986">
        <ele>1083.529</ele>
        <time>2019-03-26T03:10:11Z</time>
      </trkpt>
      <trkpt lat="44.34085" lon="3.74043">
        <ele>1074.134</ele>
        <time>2019-03-26T03:10:31Z</time>
      </trkpt>
      <trkpt lat="44.34054" lon="3.74122">
        <ele>1069.765</ele>
        <time>2019-03-26T03:10:51Z</time>
      </trkpt>
      <trkpt lat="44.3404" lon="3.74232">
        <ele>1063.681</ele>
        <time>2019-03-26T03:11:11Z</time>
      </trkpt>
      <trkpt lat="44.34016" lon="3.74183">
        <ele>1058.75</ele>
        <time>2019-03-26T03:11:31Z</time>
      </trkpt>
      <trkpt lat="44.33989" lon="3.74181">
        <ele>1053.471</ele>
        <time>2019-03-26T03:11:51Z</time>
      </trkpt>
      <trkpt lat="44.33959" lon="3.74136">
        <ele>1052.443</ele>
        <time>2019-03-26T03:12:11Z</time>
      </trkpt>
      <trkpt lat="44.33924" lon="3.742">
        <ele>1048.736</ele>
        <time>2019-03-26T03:12:31Z</time>
      </trkpt>
      <trkpt lat="44.3392" lon="3.74256">
        <ele>1037.717</ele>
        <time>2019-03-26T03:12:51Z</time>
      </trkpt>
      <trkpt lat="44.33899" lon="3.74299">
        <ele>1029.318</ele>
        <time>2016-06-08T06:44:33Z</time>
      </trkpt>
      <trkpt lat="44.33856" lon="3.74306">
        <ele>1028.008</ele>
        <time>2016-06-08T06:44:53Z</time>
      </trkpt>
      <trkpt lat="44.33833" lon="3.74318">
        <ele>1025.479</ele>
        <time>2016-06-08T06:45:13Z</time>
      </trkpt>
      <trkpt lat="44.33811" lon="3.74315">
        <ele>1027.868</ele>
        <time>2016-06-08T06:45:33Z</time>
      </trkpt>
      <trkpt lat="44.338" lon="3.74404">
        <ele>1013.283</ele>
        <time>2016-06-08T06:45:53Z</time>
      </trkpt>
      <trkpt lat="44.33757" lon="3.74461">
        <ele>1013.114</ele>
        <time>2016-06-08T06:46:13Z</time>
      </trkpt>
      <trkpt lat="44.33799" lon="3.74466">
        <ele>1009.27</ele>
        <time>2016-06-08T06:46:33Z</time>
      </trkpt>
      <trkpt lat="44.33833" lon="3.74446">
        <ele>1008.259</ele>
        <time>2016-06-08T06:46:53Z</time>
      </trkpt>
      <trkpt lat="44.33885" lon="3.74437">
        <ele>1007.05</ele>
        <time>2016-06-08T06:47:13Z</time>
      </trkpt>
      <trkpt lat="44.33927" lon="3.74419">
        <ele>1004.892</ele>
        <time>2016-06-08T06:47:33Z</time>
      </trkpt>
      <trkpt lat="44.33952" lon="3.74463">
        <ele>1006.699</ele>
        <time>2016-06-08T06:47:53Z</time>
      </trkpt>
      <trkpt lat="44.33952" lon="3.74557">
        <ele>1004.207</ele>
        <time>2016-06-08T06:48:13Z</time>
      </trkpt>
      <trkpt lat="44.33929" lon="3.74652">
        <ele>1004.627</ele>
        <time>2016-06-08T06:48:33Z</time>
      </trkpt>
      <trkpt lat="44.33937" lon="3.7471">
        <ele>999.408</ele>
        <time>2016-06-08T06:48:53Z</time>
      </trkpt>
      <trkpt lat="44.33924" lon="3.7478">
        <ele>1001.685</ele>
        <time>2016-06-08T06:49:13Z</time>
      </trkpt>
      <trkpt lat="44.33912" lon="3.74908">
        <ele>1006.314</ele>
        <time>2016-06-08T06:49:33Z</time>
      </trkpt>
      <trkpt lat="44.33896" lon="3.74934">
        <ele>1010.539</ele>
        <time>2016-06-08T06:49:53Z</time>
      </trkpt>
      <trkpt lat="44.33838" lon="3.74963">
        <ele>1020.43</ele>
        <time>2016-06-08T06:50:13Z</time>
      </trkpt>
      <trkpt lat="44.33805" lon="3.74948">
        <ele>1027.766</ele>
        <time>2016-06-08T06:50:33Z</time>
      </trkpt>
      <trkpt lat="44.33752" lon="3.74979">
        <ele>1032.845</ele>
        <time>2016-06-08T06:50:53Z</time>
      </trkpt>
      <trkpt lat="44.33678" lon="3.74999">
        <ele>1047.636</ele>
        <time>2016-06-08T06:51:13Z</time>
      </trkpt>
      <trkpt lat="44.3344" lon="3.75165">
        <ele>1078.868</ele>
        <time>2016-06-08T06:51:33Z</time>
      </trkpt>
      <trkpt lat="44.33306" lon="3.75325">
        <ele>1086.096</ele>
        <time>2016-06-08T06:51:53Z</time>
      </trkpt>
      <trkpt lat="44.33221" lon="3.75355">
        <ele>1088.131</ele>
        <time>2016-06-08T06:52:13Z</time>
      </trkpt>
      <trkpt lat="44.33198" lon="3.7537">
        <ele>1091.824</ele>
        <time>2016-06-08T06:52:33Z</time>
      </trkpt>
      <trkpt lat="44.33172" lon="3.75373">
        <ele>1094.008</ele>
        <time>2016-06-08T06:52:53Z</time>
      </trkpt>
      <trkpt lat="44.33101" lon="3.75432">
        <ele>1109.495</ele>
        <time>2016-06-08T06:53:13Z</time>
      </trkpt>
      <trkpt lat="44.33027" lon="3.75428">
        <ele>1126.074</ele>
        <time>2016-06-08T06:53:33Z</time>
      </trkpt>
      <trkpt lat="44.32952" lon="3.75386">
        <ele>1137.439</ele>
        <time>2016-06-08T06:53:53Z</time>
      </trkpt>
      <trkpt lat="44.32912" lon="3.75283">
        <ele>1150.58</ele>
        <time>2016-06-08T06:54:13Z</time>
      </trkpt>
      <trkpt lat="44.32848" lon="3.75237">
        <ele>1149.176</ele>
        <time>2016-06-08T06:54:33Z</time>
      </trkpt>
      <trkpt lat="44.32745" lon="3.75219">
        <ele>1156.225</ele>
        <time>2016-06-08T06:54:53Z</time>
      </trkpt>
      <trkpt lat="44.32726" lon="3.75199">
        <ele>1160.286</ele>
        <time>2016-06-08T06:55:13Z</time>
      </trkpt>
      <trkpt lat="44.32689" lon="3.75113">
        <ele>1161.138</ele>
        <time>2016-06-08T06:55:33Z</time>
      </trkpt>
      <trkpt lat="44.32649" lon="3.7505">
        <ele>1166.327</ele>
        <time>2016-06-08T06:55:53Z</time>
      </trkpt>
      <trkpt lat="44.32526" lon="3.74909">
        <ele>1180.168</ele>
        <time>2016-06-08T06:56:13Z</time>
      </trkpt>
      <trkpt lat="44.32373" lon="3.74759">
        <ele>1196.814</ele>
        <time>2016-06-08T06:56:33Z</time>
      </trkpt>
      <trkpt lat="44.32307" lon="3.74723">
        <ele>1208.708</ele>
        <time>2016-06-08T06:56:53Z</time>
      </trkpt>
      <trkpt lat="44.32262" lon="3.74727">
        <ele>1213.798</ele>
        <time>2016-06-08T06:57:13Z</time>
      </trkpt>
      <trkpt lat="44.3215" lon="3.74786">
        <ele>1220.947</ele>
        <time>2019-03-26T03:26:11Z</time>
      </trkpt>
      <trkpt lat="44.32146" lon="3.74808">
        <ele>1227.422</ele>
        <time>2019-03-26T03:26:31Z</time>
      </trkpt>
      <trkpt lat="44.32038" lon="3.74933">
        <ele>1255.173</ele>
        <time>2016-06-08T06:58:13Z</time>
      </trkpt>
      <trkpt lat="44.31975" lon="3.74929">
        <ele>1267.429</ele>
        <time>2016-06-08T06:58:33Z</time>
      </trkpt>
      <trkpt lat="44.31897" lon="3.74804">
        <ele>1267.438</ele>
        <time>2016-06-08T06:58:53Z</time>
      </trkpt>
      <trkpt lat="44.31806" lon="3.74699">
        <ele>1289.489</ele>
        <time>2016-06-08T06:59:13Z</time>
      </trkpt>
      <trkpt lat="44.31684" lon="3.74596">
        <ele>1306.871</ele>
        <time>2016-06-08T06:59:33Z</time>
      </trkpt>
      <trkpt lat="44.3167" lon="3.74515">
        <ele>1308.342</ele>
        <time>2016-06-08T06:59:53Z</time>
      </trkpt>
      <trkpt lat="44.31634" lon="3.74431">
        <ele>1312.422</ele>
        <time>2016-06-08T07:00:13Z</time>
      </trkpt>
      <trkpt lat="44.316" lon="3.7431">
        <ele>1323.214</ele>
        <time>2016-06-08T07:00:33Z</time>
      </trkpt>
      <trkpt lat="44.31566" lon="3.74171">
        <ele>1330.808</ele>
        <time>2019-03-26T03:29:31Z</time>
      </trkpt>
      <trkpt lat="44.31535" lon="3.74143">
        <ele>1332.09</ele>
        <time>2019-03-26T03:29:51Z</time>
      </trkpt>
      <trkpt lat="44.31551" lon="3.74092">
        <ele>1337.389</ele>
        <time>2019-03-26T03:30:11Z</time>
      </trkpt>
      <trkpt lat="44.3149" lon="3.73678">
        <ele>1395.514</ele>
        <time>2016-06-08T07:01:13Z</time>
      </trkpt>
      <trkpt lat="44.31556" lon="3.73603">
        <ele>1388.455</ele>
        <time>2016-06-08T07:01:33Z</time>
      </trkpt>
      <trkpt lat="44.31634" lon="3.73497">
        <ele>1375.721</ele>
        <time>2016-06-08T07:01:53Z</time>
      </trkpt>
      <trkpt lat="44.31707" lon="3.72986">
        <ele>1392.76</ele>
        <time>2016-06-08T07:02:13Z</time>
      </trkpt>
      <trkpt lat="44.31765" lon="3.72791">
        <ele>1411.211</ele>
        <time>2016-06-08T07:02:33Z</time>
      </trkpt>
      <trkpt lat="44.31727" lon="3.72505">
        <ele>1413.983</ele>
        <time>2016-06-08T07:02:53Z</time>
      </trkpt>
      <trkpt lat="44.31671" lon="3.72295">
        <ele>1405.967</ele>
        <time>2016-06-08T07:03:13Z</time>
      </trkpt>
      <trkpt lat="44.31663" lon="3.72168">
        <ele>1398.681</ele>
        <time>2016-06-08T07:03:33Z</time>
      </trkpt>
      <trkpt lat="44.31673" lon="3.72039">
        <ele>1385.319</ele>
        <time>2016-06-08T07:03:53Z</time>
      </trkpt>
      <trkpt lat="44.31816" lon="3.71788">
        <ele>1350.408</ele>
        <time>2016-06-08T07:04:13Z</time>
      </trkpt>
      <trkpt lat="44.31997" lon="3.71622">
        <ele>1301.092</ele>
        <time>2016-06-08T07:04:33Z</time>
      </trkpt>
      <trkpt lat="44.31917" lon="3.71501">
        <ele>1294.171</ele>
        <time>2016-06-08T07:04:53Z</time>
      </trkpt>
      <trkpt lat="44.31911" lon="3.71428">
        <ele>1282.136</ele>
        <time>2016-06-08T07:05:13Z</time>
      </trkpt>
      <trkpt lat="44.31891" lon="3.71385">
        <ele>1277.927</ele>
        <time>2016-06-08T07:05:33Z</time>
      </trkpt>
      <trkpt lat="44.31875" lon="3.71277">
        <ele>1260.923</ele>
        <time>2016-06-08T07:05:53Z</time>
      </trkpt>
      <trkpt lat="44.31873" lon="3.71216">
        <ele>1253.492</ele>
        <time>2016-06-08T07:06:13Z</time>
      </trkpt>
      <trkpt lat="44.31859" lon="3.71174">
        <ele>1247.443</ele>
        <time>2016-06-08T07:06:33Z</time>
      </trkpt>
      <trkpt lat="44.3184" lon="3.71154">
        <ele>1242.085</ele>
        <time>2019-03-26T03:36:11Z</time>
      </trkpt>
      <trkpt lat="44.3197" lon="3.70853">
        <ele>1201.281</ele>
        <time>2016-06-08T07:07:13Z</time>
      </trkpt>
      <trkpt lat="44.32006" lon="3.7084">
        <ele>1200.761</ele>
        <time>2016-06-08T07:07:33Z</time>
      </trkpt>
      <trkpt lat="44.32051" lon="3.70783">
        <ele>1197.817</ele>
        <time>2016-06-08T07:07:53Z</time>
      </trkpt>
      <trkpt lat="44.32084" lon="3.70692">
        <ele>1188.608</ele>
        <time>2016-06-08T07:08:13Z</time>
      </trkpt>
      <trkpt lat="44.32105" lon="3.70668">
        <ele>1187.364</ele>
        <time>2016-06-08T07:08:33Z</time>
      </trkpt>
      <trkpt lat="44.32126" lon="3.70606">
        <ele>1180.623</ele>
        <time>2016-06-08T07:08:53Z</time>
      </trkpt>
      <trkpt lat="44.32176" lon="3.70535">
        <ele>1176.178</ele>
        <time>2016-06-08T07:09:13Z</time>
      </trkpt>
      <trkpt lat="44.32186" lon="3.70492">
        <ele>1175.719</ele>
        <time>2016-06-08T07:09:33Z</time>
      </trkpt>
      <trkpt lat="44.32214" lon="3.7042">
        <ele>1179.575</ele>
        <time>2016-06-08T07:09:53Z</time>
      </trkpt>
      <trkpt lat="44.3222" lon="3.70364">
        <ele>1178.354</ele>
        <time>2016-06-08T07:10:13Z</time>
      </trkpt>
      <trkpt lat="44.32252" lon="3.70298">
        <ele>1182.155</ele>
        <time>2016-06-08T07:10:33Z</time>
      </trkpt>
      <trkpt lat="44.32278" lon="3.70166">
        <ele>1178.057</ele>
        <time>2016-06-08T07:10:53Z</time>
      </trkpt>
      <trkpt lat="44.32289" lon="3.70078">
        <ele>1172.037</ele>
        <time>2016-06-08T07:11:13Z</time>
      </trkpt>
      <trkpt lat="44.32311" lon="3.70031">
        <ele>1165.549</ele>
        <time>2016-06-08T07:11:33Z</time>
      </trkpt>
      <trkpt lat="44.32384" lon="3.69953">
        <ele>1151.613</ele>
        <time>2016-06-08T07:11:53Z</time>
      </trkpt>
      <trkpt lat="44.32446" lon="3.69827">
        <ele>1142.008</ele>
        <time>2016-06-08T07:12:13Z</time>
      </trkpt>
      <trkpt lat="44.3243" lon="3.69768">
        <ele>1139.279</ele>
        <time>2016-06-08T07:12:33Z</time>
      </trkpt>
      <trkpt lat="44.32444" lon="3.69753">
        <ele>1138.528</ele>
        <time>2016-06-08T07:12:53Z</time>
      </trkpt>
      <trkpt lat="44.32474" lon="3.69642">
        <ele>1124.443</ele>
        <time>2016-06-08T07:13:13Z</time>
      </trkpt>
      <trkpt lat="44.32495" lon="3.69576">
        <ele>1121.284</ele>
        <time>2016-06-08T07:13:33Z</time>
      </trkpt>
      <trkpt lat="44.3252" lon="3.69282">
        <ele>1106.43</ele>
        <time>2016-06-08T07:13:53Z</time>
      </trkpt>
      <trkpt lat="44.32549" lon="3.69088">
        <ele>1109.629</ele>
        <time>2016-06-08T07:14:13Z</time>
      </trkpt>
      <trkpt lat="44.32511" lon="3.68955">
        <ele>1091.25</ele>
        <time>2016-06-08T07:14:33Z</time>
      </trkpt>
      <trkpt lat="44.32496" lon="3.68871">
        <ele>1087.982</ele>
        <time>2016-06-08T07:14:53Z</time>
      </trkpt>
      <trkpt lat="44.32503" lon="3.68769">
        <ele>1087.419</ele>
        <time>2016-06-08T07:15:13Z</time>
      </trkpt>
      <trkpt lat="44.32497" lon="3.68731">
        <ele>1084.209</ele>
        <time>2016-06-08T07:15:33Z</time>
      </trkpt>
      <trkpt lat="44.32555" lon="3.68498">
        <ele>1078.219</ele>
        <time>2016-06-08T07:15:53Z</time>
      </trkpt>
      <trkpt lat="44.32617" lon="3.68279">
        <ele>1078.708</ele>
        <time>2016-06-08T07:16:13Z</time>
      </trkpt>
      <trkpt lat="44.32622" lon="3.6825">
        <ele>1078.257</ele>
        <time>2016-06-08T07:16:33Z</time>
      </trkpt>
      <trkpt lat="44.32624" lon="3.67984">
        <ele>1075.856</ele>
        <time>2016-06-08T07:16:53Z</time>
      </trkpt>
      <trkpt lat="44.32612" lon="3.67885">
        <ele>1074.981</ele>
        <time>2016-06-08T07:17:13Z</time>
      </trkpt>
      <trkpt lat="44.32655" lon="3.67716">
        <ele>1068.222</ele>
        <time>2016-06-08T07:17:33Z</time>
      </trkpt>
      <trkpt lat="44.32662" lon="3.67555">
        <ele>1065.788</ele>
        <time>2016-06-08T07:17:53Z</time>
      </trkpt>
      <trkpt lat="44.32639" lon="3.67449">
        <ele>1060.447</ele>
        <time>2016-06-08T07:18:13Z</time>
      </trkpt>
      <trkpt lat="44.32594" lon="3.67362">
        <ele>1059.268</ele>
        <time>2016-06-08T07:18:33Z</time>
      </trkpt>
      <trkpt lat="44.32527" lon="3.6728">
        <ele>1056.65</ele>
        <time>2016-06-08T07:18:53Z</time>
      </trkpt>
      <trkpt lat="44.3248" lon="3.67162">
        <ele>1049.431</ele>
        <time>2016-06-08T07:19:13Z</time>
      </trkpt>
      <trkpt lat="44.32496" lon="3.67056">
        <ele>1042.961</ele>
        <time>2016-06-08T07:19:33Z</time>
      </trkpt>
      <trkpt lat="44.3247" lon="3.67015">
        <ele>1048.107</ele>
        <time>2016-06-08T07:19:53Z</time>
      </trkpt>
      <trkpt lat="44.32459" lon="3.66953">
        <ele>1046.308</ele>
        <time>2016-06-08T07:20:13Z</time>
      </trkpt>
      <trkpt lat="44.32483" lon="3.66806">
        <ele>1047.549</ele>
        <time>2016-06-08T07:20:33Z</time>
      </trkpt>
      <trkpt lat="44.32488" lon="3.66693">
        <ele>1057.548</ele>
        <time>2016-06-08T07:20:53Z</time>
      </trkpt>
      <trkpt lat="44.32589" lon="3.6649">
        <ele>1060.773</ele>
        <time>2016-06-08T07:21:13Z</time>
      </trkpt>
      <trkpt lat="44.32641" lon="3.66412">
        <ele>1054.944</ele>
        <time>2016-06-08T07:21:33Z</time>
      </trkpt>
      <trkpt lat="44.32678" lon="3.66346">
        <ele>1057.96</ele>
        <time>2016-06-08T07:21:53Z</time>
      </trkpt>
      <trkpt lat="44.32719" lon="3.66323">
        <ele>1054.439</ele>
        <time>2016-06-08T07:22:13Z</time>
      </trkpt>
      <trkpt lat="44.32785" lon="3.66317">
        <ele>1039.62</ele>
        <time>2016-06-08T07:22:33Z</time>
      </trkpt>
      <trkpt lat="44.32802" lon="3.66286">
        <ele>1037.752</ele>
        <time>2016-06-08T07:22:53Z</time>
      </trkpt>
      <trkpt lat="44.32816" lon="3.66215">
        <ele>1034.093</ele>
        <time>2016-06-08T07:23:13Z</time>
      </trkpt>
      <trkpt lat="44.32807" lon="3.66169">
        <ele>1041.765</ele>
        <time>2016-06-08T07:23:33Z</time>
      </trkpt>
      <trkpt lat="44.3281" lon="3.66084">
        <ele>1044.621</ele>
        <time>2016-06-08T07:23:53Z</time>
      </trkpt>
      <trkpt lat="44.32852" lon="3.66027">
        <ele>1031.308</ele>
        <time>2016-06-08T07:24:13Z</time>
      </trkpt>
      <trkpt lat="44.32902" lon="3.65883">
        <ele>1026.045</ele>
        <time>2016-06-08T07:24:33Z</time>
      </trkpt>
      <trkpt lat="44.32894" lon="3.65812">
        <ele>1034.124</ele>
        <time>2016-06-08T07:24:53Z</time>
      </trkpt>
      <trkpt lat="44.32922" lon="3.65771">
        <ele>1027.369</ele>
        <time>2016-06-08T07:25:13Z</time>
      </trkpt>
      <trkpt lat="44.32923" lon="3.65727">
        <ele>1030.14</ele>
        <time>2016-06-08T07:25:33Z</time>
      </trkpt>
      <trkpt lat="44.32939" lon="3.65681">
        <ele>1027.046</ele>
        <time>2016-06-08T07:25:53Z</time>
      </trkpt>
      <trkpt lat="44.3291" lon="3.65598">
        <ele>1038.065</ele>
        <time>2016-06-08T07:26:13Z</time>
      </trkpt>
      <trkpt lat="44.3287" lon="3.6554">
        <ele>1028.486</ele>
        <time>2016-06-08T07:26:33Z</time>
      </trkpt>
      <trkpt lat="44.32829" lon="3.65373">
        <ele>1017.678</ele>
        <time>2016-06-08T07:26:53Z</time>
      </trkpt>
      <trkpt lat="44.32844" lon="3.6533">
        <ele>1014.179</ele>
        <time>2016-06-08T07:27:13Z</time>
      </trkpt>
      <trkpt lat="44.32929" lon="3.65255">
        <ele>1020.605</ele>
        <time>2016-06-08T07:27:33Z</time>
      </trkpt>
      <trkpt lat="44.32994" lon="3.65157">
        <ele>1019.625</ele>
        <time>2016-06-08T07:27:53Z</time>
      </trkpt>
      <trkpt lat="44.32984" lon="3.65051">
        <ele>1014.208</ele>
        <time>2016-06-08T07:28:13Z</time>
      </trkpt>
      <trkpt lat="44.32898" lon="3.64967">
        <ele>997.933</ele>
        <time>2016-06-08T07:28:33Z</time>
      </trkpt>
      <trkpt lat="44.32868" lon="3.64917">
        <ele>987.532</ele>
        <time>2019-03-26T03:58:11Z</time>
      </trkpt>
      <trkpt lat="44.32858" lon="3.64816">
        <ele>985.047</ele>
        <time>2019-03-26T03:58:31Z</time>
      </trkpt>
      <trkpt lat="44.32873" lon="3.64735">
        <ele>979.838</ele>
        <time>2016-06-08T07:29:13Z</time>
      </trkpt>
      <trkpt lat="44.32968" lon="3.64608">
        <ele>974.554</ele>
        <time>2016-06-08T07:29:33Z</time>
      </trkpt>
      <trkpt lat="44.32985" lon="3.6452">
        <ele>970.873</ele>
        <time>2016-06-08T07:29:53Z</time>
      </trkpt>
      <trkpt lat="44.32969" lon="3.64378">
        <ele>961.724</ele>
        <time>2016-06-08T07:30:13Z</time>
      </trkpt>
      <trkpt lat="44.32931" lon="3.64268">
        <ele>950.496</ele>
        <time>2016-06-08T07:30:33Z</time>
      </trkpt>
      <trkpt lat="44.32903" lon="3.64194">
        <ele>958.439</ele>
        <time>2016-06-08T07:30:53Z</time>
      </trkpt>
      <trkpt lat="44.32909" lon="3.63873">
        <ele>938.901</ele>
        <time>2016-06-08T07:31:13Z</time>
      </trkpt>
      <trkpt lat="44.32929" lon="3.63762">
        <ele>938.721</ele>
        <time>2016-06-08T07:31:33Z</time>
      </trkpt>
      <trkpt lat="44.32972" lon="3.6367">
        <ele>927.208</ele>
        <time>2016-06-08T07:31:53Z</time>
      </trkpt>
      <trkpt lat="44.32968" lon="3.63632">
        <ele>924.079</ele>
        <time>2016-06-08T07:32:13Z</time>
      </trkpt>
      <trkpt lat="44.32916" lon="3.63602">
        <ele>929.368</ele>
        <time>2016-06-08T07:32:33Z</time>
      </trkpt>
      <trkpt lat="44.32865" lon="3.63491">
        <ele>925.293</ele>
        <time>2016-06-08T07:32:53Z</time>
      </trkpt>
      <trkpt lat="44.32889" lon="3.63311">
        <ele>912.524</ele>
        <time>2016-06-08T07:33:13Z</time>
      </trkpt>
      <trkpt lat="44.32927" lon="3.63249">
        <ele>897.99</ele>
        <time>2016-06-08T07:33:33Z</time>
      </trkpt>
      <trkpt lat="44.32956" lon="3.63176">
        <ele>892.519</ele>
        <time>2016-06-08T07:33:53Z</time>
      </trkpt>
      <trkpt lat="44.32989" lon="3.63036">
        <ele>894.01</ele>
        <time>2016-06-08T07:34:13Z</time>
      </trkpt>
      <trkpt lat="44.33023" lon="3.62996">
        <ele>891.882</ele>
        <time>2016-06-08T07:34:33Z</time>
      </trkpt>
      <trkpt lat="44.33065" lon="3.62978">
        <ele>894.317</ele>
        <time>2016-06-08T07:34:53Z</time>
      </trkpt>
      <trkpt lat="44.33104" lon="3.6298">
        <ele>887.487</ele>
        <time>2016-06-08T07:35:13Z</time>
      </trkpt>
      <trkpt lat="44.3313" lon="3.62925">
        <ele>886.015</ele>
        <time>2016-06-08T07:35:33Z</time>
      </trkpt>
      <trkpt lat="44.33074" lon="3.62686">
        <ele>890.808</ele>
        <time>2016-06-08T07:35:53Z</time>
      </trkpt>
      <trkpt lat="44.33099" lon="3.62612">
        <ele>883.117</ele>
        <time>2016-06-08T07:36:13Z</time>
      </trkpt>
      <trkpt lat="44.33113" lon="3.62533">
        <ele>887.726</ele>
        <time>2016-06-08T07:36:33Z</time>
      </trkpt>
      <trkpt lat="44.33153" lon="3.62494">
        <ele>869.631</ele>
        <time>2016-06-08T07:36:53Z</time>
      </trkpt>
      <trkpt lat="44.33185" lon="3.62437">
        <ele>884.062</ele>
        <time>2016-06-08T07:37:13Z</time>
      </trkpt>
      <trkpt lat="44.33222" lon="3.62437">
        <ele>872.138</ele>
        <time>2016-06-08T07:37:33Z</time>
      </trkpt>
      <trkpt lat="44.33307" lon="3.6247">
        <ele>859.517</ele>
        <time>2016-06-08T07:37:53Z</time>
      </trkpt>
      <trkpt lat="44.33361" lon="3.6247">
        <ele>860.748</ele>
        <time>2016-06-08T07:38:13Z</time>
      </trkpt>
      <trkpt lat="44.33449" lon="3.62402">
        <ele>860.08</ele>
        <time>2016-06-08T07:38:33Z</time>
      </trkpt>
      <trkpt lat="44.33503" lon="3.62362">
        <ele>852.151</ele>
        <time>2016-06-08T07:38:53Z</time>
      </trkpt>
      <trkpt lat="44.33504" lon="3.62377">
        <ele>850.501</ele>
        <time>2016-06-08T07:39:13Z</time>
      </trkpt>
      <trkpt lat="44.33459" lon="3.62434">
        <ele>849.311</ele>
        <time>2016-06-08T07:39:33Z</time>
      </trkpt>
      <trkpt lat="44.33424" lon="3.62501">
        <ele>837.708</ele>
        <time>2016-06-08T07:39:53Z</time>
      </trkpt>
      <trkpt lat="44.33376" lon="3.62541">
        <ele>836.731</ele>
        <time>2016-06-08T07:40:13Z</time>
      </trkpt>
      <trkpt lat="44.33322" lon="3.62555">
        <ele>828.97</ele>
        <time>2016-06-08T07:40:33Z</time>
      </trkpt>
      <trkpt lat="44.33275" lon="3.62555">
        <ele>822.975</ele>
        <time>2016-06-08T07:40:53Z</time>
      </trkpt>
      <trkpt lat="44.33226" lon="3.62537">
        <ele>828.246</ele>
        <time>2016-06-08T07:41:13Z</time>
      </trkpt>
      <trkpt lat="44.33182" lon="3.62601">
        <ele>831.362</ele>
        <time>2016-06-08T07:41:33Z</time>
      </trkpt>
      <trkpt lat="44.33195" lon="3.62667">
        <ele>816.721</ele>
        <time>2016-06-08T07:41:53Z</time>
      </trkpt>
      <trkpt lat="44.3318" lon="3.62708">
        <ele>827.642</ele>
        <time>2016-06-08T07:42:13Z</time>
      </trkpt>
      <trkpt lat="44.33183" lon="3.62741">
        <ele>828.824</ele>
        <time>2016-06-08T07:42:33Z</time>
      </trkpt>
      <trkpt lat="44.33229" lon="3.62775">
        <ele>802.286</ele>
        <time>2016-06-08T07:42:53Z</time>
      </trkpt>
      <trkpt lat="44.33282" lon="3.62859">
        <ele>791.56</ele>
        <time>2016-06-08T07:43:13Z</time>
      </trkpt>
      <trkpt lat="44.33335" lon="3.62945">
        <ele>785.826</ele>
        <time>2016-06-08T07:43:33Z</time>
      </trkpt>
      <trkpt lat="44.33358" lon="3.62966">
        <ele>784.608</ele>
        <time>2016-06-08T07:43:53Z</time>
      </trkpt>
      <trkpt lat="44.33359" lon="3.63004">
        <ele>786.364</ele>
        <time>2016-06-08T07:44:13Z</time>
      </trkpt>
      <trkpt lat="44.33337" lon="3.63073">
        <ele>784.383</ele>
        <time>2016-06-08T07:44:33Z</time>
      </trkpt>
      <trkpt lat="44.33304" lon="3.63229">
        <ele>769.738</ele>
        <time>2016-06-08T07:44:53Z</time>
      </trkpt>
      <trkpt lat="44.33285" lon="3.63242">
        <ele>771.859</ele>
        <time>2016-06-08T07:45:13Z</time>
      </trkpt>
      <trkpt lat="44.33207" lon="3.63274">
        <ele>777.455</ele>
        <time>2016-06-08T07:45:33Z</time>
      </trkpt>
      <trkpt lat="44.33209" lon="3.63291">
        <ele>775.214</ele>
        <time>2016-06-08T07:45:53Z</time>
      </trkpt>
      <trkpt lat="44.33262" lon="3.63352">
        <ele>762.085</ele>
        <time>2016-06-08T07:46:13Z</time>
      </trkpt>
      <trkpt lat="44.3331" lon="3.63439">
        <ele>755.917</ele>
        <time>2016-06-08T07:46:33Z</time>
      </trkpt>
      <trkpt lat="44.33351" lon="3.63615">
        <ele>762.468</ele>
        <time>2016-06-08T07:46:53Z</time>
      </trkpt>
      <trkpt lat="44.33378" lon="3.63622">
        <ele>757.442</ele>
        <time>2016-06-08T07:47:13Z</time>
      </trkpt>
      <trkpt lat="44.33389" lon="3.63573">
        <ele>747.526</ele>
        <time>2016-06-08T07:47:33Z</time>
      </trkpt>
      <trkpt lat="44.33415" lon="3.63543">
        <ele>740.508</ele>
        <time>2016-06-08T07:47:53Z</time>
      </trkpt>
      <trkpt lat="44.33395" lon="3.63498">
        <ele>738.782</ele>
        <time>2016-06-08T07:48:13Z</time>
      </trkpt>
      <trkpt lat="44.33454" lon="3.63485">
        <ele>735.471</ele>
        <time>2016-06-08T07:48:33Z</time>
      </trkpt>
      <trkpt lat="44.33466" lon="3.63384">
        <ele>723.656</ele>
        <time>2016-06-08T07:48:53Z</time>
      </trkpt>
      <trkpt lat="44.33509" lon="3.63314">
        <ele>713.087</ele>
        <time>2016-06-08T07:49:13Z</time>
      </trkpt>
      <trkpt lat="44.33585" lon="3.63231">
        <ele>695.623</ele>
        <time>2016-06-08T07:49:33Z</time>
      </trkpt>
      <trkpt lat="44.33678" lon="3.63145">
        <ele>679.632</ele>
        <time>2016-06-08T07:49:53Z</time>
      </trkpt>
      <trkpt lat="44.33727" lon="3.63078">
        <ele>672.513</ele>
        <time>2016-06-08T07:50:13Z</time>
      </trkpt>
      <trkpt lat="44.338" lon="3.63038">
        <ele>662.975</ele>
        <time>2016-06-08T07:50:33Z</time>
      </trkpt>
      <trkpt lat="44.33835" lon="3.63032">
        <ele>658.874</ele>
        <time>2016-06-08T07:50:53Z</time>
      </trkpt>
      <trkpt lat="44.33888" lon="3.63035">
        <ele>658.856</ele>
        <time>2016-06-08T07:51:13Z</time>
      </trkpt>
      <trkpt lat="44.33905" lon="3.62996">
        <ele>654.821</ele>
        <time>2016-06-08T07:51:33Z</time>
      </trkpt>
      <trkpt lat="44.33969" lon="3.62977">
        <ele>646.608</ele>
        <time>2016-06-08T07:51:53Z</time>
      </trkpt>
      <trkpt lat="44.34064" lon="3.62995">
        <ele>645.363</ele>
        <time>2016-06-08T07:52:13Z</time>
      </trkpt>
      <trkpt lat="44.34234" lon="3.62967">
        <ele>628.742</ele>
        <time>2016-06-08T07:52:33Z</time>
      </trkpt>
      <trkpt lat="44.34336" lon="3.62907">
        <ele>616.687</ele>
        <time>2016-06-08T07:52:53Z</time>
      </trkpt>
      <trkpt lat="44.34399" lon="3.62796">
        <ele>603.058</ele>
        <time>2016-06-08T07:53:13Z</time>
      </trkpt>
      <trkpt lat="44.34485" lon="3.62755">
        <ele>602.874</ele>
        <time>2016-06-08T07:53:33Z</time>
      </trkpt>
      <trkpt lat="44.34526" lon="3.62692">
        <ele>598.723</ele>
        <time>2016-06-08T07:53:53Z</time>
      </trkpt>
      <trkpt lat="44.34524" lon="3.62613">
        <ele>598.594</ele>
        <time>2016-06-08T07:54:13Z</time>
      </trkpt>
      <trkpt lat="44.34567" lon="3.62536">
        <ele>587.976</ele>
        <time>2016-06-08T07:54:33Z</time>
      </trkpt>
      <trkpt lat="44.34571" lon="3.62405">
        <ele>599.758</ele>
        <time>2016-06-08T07:54:53Z</time>
      </trkpt>
      <trkpt lat="44.34596" lon="3.62341">
        <ele>588.652</ele>
        <time>2016-06-08T07:55:13Z</time>
      </trkpt>
      <trkpt lat="44.34582" lon="3.62285">
        <ele>595.017</ele>
        <time>2016-06-08T07:55:33Z</time>
      </trkpt>
      <trkpt lat="44.34576" lon="3.62217">
        <ele>590.208</ele>
        <time>2016-06-08T07:55:53Z</time>
      </trkpt>
      <trkpt lat="44.34529" lon="3.6204">
        <ele>583.481</ele>
        <time>2016-06-08T07:56:13Z</time>
      </trkpt>
      <trkpt lat="44.34426" lon="3.6184">
        <ele>583.14</ele>
        <time>2016-06-08T07:56:33Z</time>
      </trkpt>
      <trkpt lat="44.3439" lon="3.6176">
        <ele>579.625</ele>
        <time>2016-06-08T07:56:53Z</time>
      </trkpt>
      <trkpt lat="44.34402" lon="3.61708">
        <ele>576.116</ele>
        <time>2016-06-08T07:57:13Z</time>
      </trkpt>
      <trkpt lat="44.34387" lon="3.61643">
        <ele>576.952</ele>
        <time>2016-06-08T07:57:33Z</time>
      </trkpt>
      <trkpt lat="44.34353" lon="3.61565">
        <ele>580.161</ele>
        <time>2016-06-08T07:57:53Z</time>
      </trkpt>
      <trkpt lat="44.34326" lon="3.61371">
        <ele>587.862</ele>
        <time>2016-06-08T07:58:13Z</time>
      </trkpt>
      <trkpt lat="44.34335" lon="3.61258">
        <ele>584.524</ele>
        <time>2016-06-08T07:58:33Z</time>
      </trkpt>
      <trkpt lat="44.34337" lon="3.61183">
        <ele>590.981</ele>
        <time>2016-06-08T07:58:53Z</time>
      </trkpt>
      <trkpt lat="44.34374" lon="3.61071">
        <ele>587.261</ele>
        <time>2019-03-26T04:28:51Z</time>
      </trkpt>
      <trkpt lat="44.34407" lon="3.61006">
        <ele>586.117</ele>
        <time>2019-03-26T04:29:11Z</time>
      </trkpt>
      <trkpt lat="44.34422" lon="3.60916">
        <ele>583.808</ele>
        <time>2019-03-26T04:29:31Z</time>
      </trkpt>
      <trkpt lat="44.34422" lon="3.60855">
        <ele>578.194</ele>
        <time>2019-03-26T04:29:51Z</time>
      </trkpt>
      <trkpt lat="44.34358" lon="3.6086">
        <ele>578.963</ele>
        <time>2019-03-26T04:30:11Z</time>
      </trkpt>
      <trkpt lat="44.34302" lon="3.6082">
        <ele>576.948</ele>
        <time>2019-03-26T04:30:31Z</time>
      </trkpt>
      <trkpt lat="44.34236" lon="3.60741">
        <ele>581.339</ele>
        <time>2019-03-26T04:30:51Z</time>
      </trkpt>
      <trkpt lat="44.3421" lon="3.60721">
        <ele>580.185</ele>
        <time>2019-03-26T04:31:11Z</time>
      </trkpt>
      <trkpt lat="44.34183" lon="3.6066">
        <ele>577.174</ele>
        <time>2019-03-26T04:31:31Z</time>
      </trkpt>
      <trkpt lat="44.34131" lon="3.6059">
        <ele>578.985</ele>
        <time>2019-03-26T04:31:51Z</time>
      </trkpt>
      <trkpt lat="44.3408" lon="3.60522">
        <ele>583.197</ele>
        <time>2019-03-26T04:32:11Z</time>
      </trkpt>
      <trkpt lat="44.34068" lon="3.60533">
        <ele>583.648</ele>
        <time>2019-03-26T04:32:31Z</time>
      </trkpt>
      <trkpt lat="44.34057" lon="3.60447">
        <ele>583.961</ele>
        <time>2019-03-26T04:32:51Z</time>
      </trkpt>
      <trkpt lat="44.34065" lon="3.60429">
        <ele>583.717</ele>
        <time>2019-03-26T04:33:11Z</time>
      </trkpt>
      <trkpt lat="44.34062" lon="3.60392">
        <ele>584.308</ele>
        <time>2019-03-26T04:33:31Z</time>
      </trkpt>
      <trkpt lat="44.34087" lon="3.60396">
        <ele>581.69</ele>
        <time>2019-03-26T04:33:51Z</time>
      </trkpt>
      <trkpt lat="44.3412" lon="3.60412">
        <ele>579.699</ele>
        <time>2019-03-26T04:34:11Z</time>
      </trkpt>
      <trkpt lat="44.3434" lon="3.60361">
        <ele>565.034</ele>
        <time>2019-03-26T04:34:31Z</time>
      </trkpt>
      <trkpt lat="44.34318" lon="3.60266">
        <ele>565.765</ele>
        <time>2019-03-26T04:34:51Z</time>
      </trkpt>
      <trkpt lat="44.34323" lon="3.60213">
        <ele>572.041</ele>
        <time>2019-03-26T04:35:11Z</time>
      </trkpt>
      <trkpt lat="44.34367" lon="3.6021">
        <ele>567.75</ele>
        <time>2019-03-26T04:35:31Z</time>
      </trkpt>
      <trkpt lat="44.34375" lon="3.60161">
        <ele>567.811</ele>
        <time>2019-03-26T04:35:51Z</time>
      </trkpt>
      <trkpt lat="44.34412" lon="3.60128">
        <ele>560.893</ele>
        <time>2019-03-26T04:36:11Z</time>
      </trkpt>
      <trkpt lat="44.34498" lon="3.60121">
        <ele>557.521</ele>
        <time>2019-03-26T04:36:31Z</time>
      </trkpt>
      <trkpt lat="44.34463" lon="3.59941">
        <ele>556.041</ele>
        <time>2019-03-26T04:36:51Z</time>
      </trkpt>
      <trkpt lat="44.34462" lon="3.59932">
        <ele>556.205</ele>
        <time>2016-06-08T08:03:13Z</time>
      </trkpt>
      <trkpt lat="44.34479" lon="3.59789">
        <ele>555.708</ele>
        <time>2016-06-08T08:03:33Z</time>
      </trkpt>
      <trkpt lat="44.34463" lon="3.59634">
        <ele>551.528</ele>
        <time>2016-06-08T08:03:53Z</time>
      </trkpt>
      <trkpt lat="44.34466" lon="3.59588">
        <ele>550.837</ele>
        <time>2016-06-08T08:04:13Z</time>
      </trkpt>
      <trkpt lat="44.34498" lon="3.59434">
        <ele>552.862</ele>
        <time>2016-06-08T08:04:33Z</time>
      </trkpt>
      <trkpt lat="44.34524" lon="3.59332">
        <ele>553.413</ele>
        <time>2016-06-08T08:04:53Z</time>
      </trkpt>
      <trkpt lat="44.34555" lon="3.5925">
        <ele>553.969</ele>
        <time>2016-06-08T08:05:13Z</time>
      </trkpt>
      <trkpt lat="44.34567" lon="3.59204">
        <ele>555.118</ele>
        <time>2016-06-08T08:05:33Z</time>
      </trkpt>
      <trkpt lat="44.34629" lon="3.59147">
        <ele>564.589</ele>
        <time>2016-06-08T08:05:53Z</time>
      </trkpt>
      <trkpt lat="44.34654" lon="3.59142">
        <ele>572.171</ele>
        <time>2016-06-08T08:06:13Z</time>
      </trkpt>
      <trkpt lat="44.34642" lon="3.59063">
        <ele>577.274</ele>
        <time>2016-06-08T08:06:33Z</time>
      </trkpt>
      <trkpt lat="44.34609" lon="3.58992">
        <ele>575.156</ele>
        <time>2016-06-08T08:06:53Z</time>
      </trkpt>
      <trkpt lat="44.34601" lon="3.58932">
        <ele>592.121</ele>
        <time>2016-06-08T08:07:13Z</time>
      </trkpt>
      <trkpt lat="44.34566" lon="3.58927">
        <ele>582.708</ele>
        <time>2016-06-08T08:07:33Z</time>
      </trkpt>
      <trkpt lat="44.34492" lon="3.58899">
        <ele>582.013</ele>
        <time>2016-06-08T08:07:53Z</time>
      </trkpt>
      <trkpt lat="44.34434" lon="3.58899">
        <ele>575.652</ele>
        <time>2016-06-08T08:08:13Z</time>
      </trkpt>
      <trkpt lat="44.3438" lon="3.5886">
        <ele>591.847</ele>
        <time>2016-06-08T08:08:33Z</time>
      </trkpt>
      <trkpt lat="44.34342" lon="3.58855">
        <ele>589.568</ele>
        <time>2016-06-08T08:08:53Z</time>
      </trkpt>
      <trkpt lat="44.34277" lon="3.58888">
        <ele>579.494</ele>
        <time>2016-06-08T08:09:13Z</time>
      </trkpt>
      <trkpt lat="44.34192" lon="3.58921">
        <ele>577.483</ele>
        <time>2016-06-08T08:09:33Z</time>
      </trkpt>
      <trkpt lat="44.34111" lon="3.58977">
        <ele>579.854</ele>
        <time>2016-06-08T08:09:53Z</time>
      </trkpt>
      <trkpt lat="44.3406" lon="3.58983">
        <ele>581.326</ele>
        <time>2016-06-08T08:10:13Z</time>
      </trkpt>
      <trkpt lat="44.34008" lon="3.58949">
        <ele>575.572</ele>
        <time>2016-06-08T08:10:33Z</time>
      </trkpt>
      <trkpt lat="44.33929" lon="3.58836">
        <ele>557.113</ele>
        <time>2016-06-08T08:10:53Z</time>
      </trkpt>
      <trkpt lat="44.33782" lon="3.58712">
        <ele>547.714</ele>
        <time>2016-06-08T08:11:13Z</time>
      </trkpt>
      <trkpt lat="44.33702" lon="3.58737">
        <ele>540.808</ele>
        <time>2016-06-08T08:11:33Z</time>
      </trkpt>
      <trkpt lat="44.33656" lon="3.58742">
        <ele>541.443</ele>
        <time>2016-06-08T08:11:53Z</time>
      </trkpt>
      <trkpt lat="44.33596" lon="3.58693">
        <ele>554.182</ele>
        <time>2016-06-08T08:12:13Z</time>
      </trkpt>
      <trkpt lat="44.33587" lon="3.58622">
        <ele>545.737</ele>
        <time>2016-06-08T08:12:33Z</time>
      </trkpt>
      <trkpt lat="44.33481" lon="3.58616">
        <ele>552.418</ele>
        <time>2016-06-08T08:12:53Z</time>
      </trkpt>
      <trkpt lat="44.334" lon="3.58657">
        <ele>550.554</ele>
        <time>2016-06-08T08:13:13Z</time>
      </trkpt>
      <trkpt lat="44.3334" lon="3.58718">
        <ele>549.653</ele>
        <time>2016-06-08T08:13:33Z</time>
      </trkpt>
      <trkpt lat="44.33271" lon="3.5886">
        <ele>555.564</ele>
        <time>2016-06-08T08:13:53Z</time>
      </trkpt>
      <trkpt lat="44.33206" lon="3.59026">
        <ele>552.746</ele>
        <time>2016-06-08T08:14:13Z</time>
      </trkpt>
      <trkpt lat="44.33155" lon="3.59123">
        <ele>550.834</ele>
        <time>2016-06-08T08:14:33Z</time>
      </trkpt>
      <trkpt lat="44.33106" lon="3.59057">
        <ele>540.455</ele>
        <time>2016-06-08T08:14:53Z</time>
      </trkpt>
      <trkpt lat="44.33067" lon="3.5905">
        <ele>544.81</ele>
        <time>2016-06-08T08:15:13Z</time>
      </trkpt>
      <trkpt lat="44.32992" lon="3.59096">
        <ele>544.708</ele>
        <time>2016-06-08T08:15:33Z</time>
      </trkpt>
      <trkpt lat="44.32332" lon="3.59617">
        <ele>547.989</ele>
        <time>2016-06-08T08:15:53Z</time>
      </trkpt>
      <trkpt lat="44.32109" lon="3.59661">
        <ele>549.218</ele>
        <time>2016-06-08T08:16:13Z</time>
      </trkpt>
      <trkpt lat="44.3197" lon="3.59756">
        <ele>548.063</ele>
        <time>2016-06-08T08:16:33Z</time>
      </trkpt>
      <trkpt lat="44.31789" lon="3.59804">
        <ele>547.084</ele>
        <time>2016-06-08T08:16:53Z</time>
      </trkpt>
      <trkpt lat="44.31637" lon="3.59808">
        <ele>554.65</ele>
        <time>2016-06-08T08:17:13Z</time>
      </trkpt>
      <trkpt lat="44.31519" lon="3.59771">
        <ele>565.699</ele>
        <time>2016-06-08T08:17:33Z</time>
      </trkpt>
      <trkpt lat="44.31356" lon="3.5978">
        <ele>554.23</ele>
        <time>2016-06-08T08:17:53Z</time>
      </trkpt>
      <trkpt lat="44.31265" lon="3.59824">
        <ele>553.662</ele>
        <time>2016-06-08T08:18:13Z</time>
      </trkpt>
      <trkpt lat="44.31265" lon="3.59824">
        <ele>553.621</ele>
        <time>2016-06-08T08:18:33Z</time>
      </trkpt>
      <trkpt lat="44.31265" lon="3.59866">
        <ele>556.041</ele>
        <time>2016-06-08T08:18:53Z</time>
      </trkpt>
      <trkpt lat="44.31305" lon="3.59889">
        <ele>568.005</ele>
        <time>2016-06-08T08:19:13Z</time>
      </trkpt>
      <trkpt lat="44.3141" lon="3.59884">
        <ele>574.308</ele>
        <time>2016-06-08T08:19:33Z</time>
      </trkpt>
      <trkpt lat="44.31497" lon="3.59931">
        <ele>572.618</ele>
        <time>2016-06-08T08:19:53Z</time>
      </trkpt>
      <trkpt lat="44.31562" lon="3.59997">
        <ele>558.857</ele>
        <time>2016-06-08T08:20:13Z</time>
      </trkpt>
      <trkpt lat="44.31556" lon="3.60104">
        <ele>563.322</ele>
        <time>2016-06-08T08:20:33Z</time>
      </trkpt>
      <trkpt lat="44.31545" lon="3.60131">
        <ele>566.713</ele>
        <time>2016-06-08T08:20:53Z</time>
      </trkpt>
      <trkpt lat="44.3151" lon="3.60333">
        <ele>570.789</ele>
        <time>2016-06-08T08:21:13Z</time>
      </trkpt>
      <trkpt lat="44.31515" lon="3.60383">
        <ele>567.868</ele>
        <time>2016-06-08T08:21:33Z</time>
      </trkpt>
      <trkpt lat="44.31568" lon="3.60567">
        <ele>564.959</ele>
        <time>2016-06-08T08:21:53Z</time>
      </trkpt>
      <trkpt lat="44.31542" lon="3.60614">
        <ele>569.841</ele>
        <time>2016-06-08T08:22:13Z</time>
      </trkpt>
      <trkpt lat="44.31557" lon="3.60643">
        <ele>569.144</ele>
        <time>2016-06-08T08:22:33Z</time>
      </trkpt>
      <trkpt lat="44.3161" lon="3.6062">
        <ele>565.005</ele>
        <time>2016-06-08T08:22:53Z</time>
      </trkpt>
      <trkpt lat="44.31724" lon="3.60722">
        <ele>577.915</ele>
        <time>2016-06-08T08:23:13Z</time>
      </trkpt>
      <trkpt lat="44.31782" lon="3.60812">
        <ele>576.208</ele>
        <time>2016-06-08T08:23:33Z</time>
      </trkpt>
      <trkpt lat="44.3179" lon="3.60902">
        <ele>585.07</ele>
        <time>2016-06-08T08:23:53Z</time>
      </trkpt>
      <trkpt lat="44.31674" lon="3.61102">
        <ele>598.999</ele>
        <time>2016-06-08T08:24:13Z</time>
      </trkpt>
      <trkpt lat="44.31606" lon="3.61133">
        <ele>605.914</ele>
        <time>2016-06-08T08:24:33Z</time>
      </trkpt>
      <trkpt lat="44.31528" lon="3.61139">
        <ele>616.965</ele>
        <time>2016-06-08T08:24:53Z</time>
      </trkpt>
      <trkpt lat="44.31442" lon="3.61183">
        <ele>620.431</ele>
        <time>2016-06-08T08:25:13Z</time>
      </trkpt>
      <trkpt lat="44.31378" lon="3.61243">
        <ele>624.62</ele>
        <time>2016-06-08T08:25:33Z</time>
      </trkpt>
      <trkpt lat="44.31324" lon="3.61355">
        <ele>626.081</ele>
        <time>2016-06-08T08:25:53Z</time>
      </trkpt>
      <trkpt lat="44.31265" lon="3.6173">
        <ele>608.613</ele>
        <time>2016-06-08T08:26:13Z</time>
      </trkpt>
      <trkpt lat="44.31197" lon="3.61799">
        <ele>607.261</ele>
        <time>2016-06-08T08:26:33Z</time>
      </trkpt>
      <trkpt lat="44.31139" lon="3.61849">
        <ele>608.721</ele>
        <time>2016-06-08T08:26:53Z</time>
      </trkpt>
      <trkpt lat="44.31143" lon="3.61872">
        <ele>607.613</ele>
        <time>2016-06-08T08:27:13Z</time>
      </trkpt>
      <trkpt lat="44.31202" lon="3.61892">
        <ele>601.108</ele>
        <time>2016-06-08T08:27:33Z</time>
      </trkpt>
      <trkpt lat="44.3125" lon="3.61877">
        <ele>598.552</ele>
        <time>2016-06-08T08:27:53Z</time>
      </trkpt>
      <trkpt lat="44.313" lon="3.61885">
        <ele>593.871</ele>
        <time>2016-06-08T08:28:13Z</time>
      </trkpt>
      <trkpt lat="44.31301" lon="3.61902">
        <ele>594.756</ele>
        <time>2016-06-08T08:28:33Z</time>
      </trkpt>
      <trkpt lat="44.31251" lon="3.61948">
        <ele>608.967</ele>
        <time>2016-06-08T08:28:53Z</time>
      </trkpt>
      <trkpt lat="44.31243" lon="3.61994">
        <ele>612.183</ele>
        <time>2016-06-08T08:29:13Z</time>
      </trkpt>
      <trkpt lat="44.31241" lon="3.62035">
        <ele>615.042</ele>
        <time>2019-03-26T05:03:31Z</time>
      </trkpt>
      <trkpt lat="44.31242" lon="3.6211">
        <ele>625.723</ele>
        <time>2019-03-26T05:03:51Z</time>
      </trkpt>
      <trkpt lat="44.31323" lon="3.62294">
        <ele>639.765</ele>
        <time>2019-03-26T05:04:11Z</time>
      </trkpt>
      <trkpt lat="44.31426" lon="3.62479">
        <ele>653.869</ele>
        <time>2019-03-26T05:04:31Z</time>
      </trkpt>
      <trkpt lat="44.31428" lon="3.62542">
        <ele>655.504</ele>
        <time>2019-03-26T05:04:51Z</time>
      </trkpt>
      <trkpt lat="44.31397" lon="3.62571">
        <ele>660.724</ele>
        <time>2019-03-26T05:05:11Z</time>
      </trkpt>
      <trkpt lat="44.31358" lon="3.62587">
        <ele>673.408</ele>
        <time>2019-03-26T05:05:31Z</time>
      </trkpt>
      <trkpt lat="44.31301" lon="3.62652">
        <ele>674.892</ele>
        <time>2019-03-26T05:05:51Z</time>
      </trkpt>
      <trkpt lat="44.31205" lon="3.62802">
        <ele>675.621</ele>
        <time>2021-02-03T02:16:12Z</time>
      </trkpt>
      <trkpt lat="44.3119" lon="3.6286">
        <ele>669.396</ele>
        <time>2021-02-03T02:16:32Z</time>
      </trkpt>
      <trkpt lat="44.31149" lon="3.62932">
        <ele>676.067</ele>
        <time>2021-02-03T02:16:52Z</time>
      </trkpt>
      <trkpt lat="44.31155" lon="3.62986">
        <ele>664.743</ele>
        <time>2021-02-03T02:17:12Z</time>
      </trkpt>
      <trkpt lat="44.31142" lon="3.63063">
        <ele>660.082</ele>
        <time>2021-02-03T02:17:32Z</time>
      </trkpt>
      <trkpt lat="44.31096" lon="3.63147">
        <ele>659.973</ele>
        <time>2021-02-03T02:17:52Z</time>
      </trkpt>
      <trkpt lat="44.31007" lon="3.63153">
        <ele>672.115</ele>
        <time>2021-02-03T02:18:12Z</time>
      </trkpt>
      <trkpt lat="44.30938" lon="3.63089">
        <ele>686.316</ele>
        <time>2019-03-26T05:08:11Z</time>
      </trkpt>
      <trkpt lat="44.30861" lon="3.63052">
        <ele>694.876</ele>
        <time>2016-06-08T08:34:13Z</time>
      </trkpt>
      <trkpt lat="44.30855" lon="3.63065">
        <ele>694.813</ele>
        <time>2016-06-08T08:34:33Z</time>
      </trkpt>
      <trkpt lat="44.30895" lon="3.63134">
        <ele>692.308</ele>
        <time>2016-06-08T08:34:53Z</time>
      </trkpt>
      <trkpt lat="44.30935" lon="3.63229">
        <ele>695.587</ele>
        <time>2016-06-08T08:35:13Z</time>
      </trkpt>
      <trkpt lat="44.30941" lon="3.63326">
        <ele>705.036</ele>
        <time>2021-02-03T02:20:12Z</time>
      </trkpt>
      <trkpt lat="44.30951" lon="3.63366">
        <ele>703.541</ele>
        <time>2016-06-08T08:35:33Z</time>
      </trkpt>
      <trkpt lat="44.30974" lon="3.63361">
        <ele>693.272</ele>
        <time>2021-02-03T02:20:52Z</time>
      </trkpt>
      <trkpt lat="44.30978" lon="3.63378">
        <ele>692.448</ele>
        <time>2021-02-03T02:21:12Z</time>
      </trkpt>
      <trkpt lat="44.3095" lon="3.63416">
        <ele>700.667</ele>
        <time>2021-02-03T02:21:32Z</time>
      </trkpt>
      <trkpt lat="44.30902" lon="3.63546">
        <ele>689.568</ele>
        <time>2021-02-03T02:21:52Z</time>
      </trkpt>
      <trkpt lat="44.30806" lon="3.63666">
        <ele>687.98</ele>
        <time>2021-02-03T02:22:12Z</time>
      </trkpt>
      <trkpt lat="44.30771" lon="3.63725">
        <ele>678.981</ele>
        <time>2019-03-26T05:11:11Z</time>
      </trkpt>
      <trkpt lat="44.30732" lon="3.63771">
        <ele>685.661</ele>
        <time>2021-02-03T02:22:52Z</time>
      </trkpt>
      <trkpt lat="44.30682" lon="3.63915">
        <ele>675.617</ele>
        <time>2016-06-08T08:37:13Z</time>
      </trkpt>
      <trkpt lat="44.30616" lon="3.6399">
        <ele>681.808</ele>
        <time>2016-06-08T08:37:33Z</time>
      </trkpt>
      <trkpt lat="44.30656" lon="3.64114">
        <ele>650.194</ele>
        <time>2019-03-26T05:12:31Z</time>
      </trkpt>
      <trkpt lat="44.30601" lon="3.64157">
        <ele>666.933</ele>
        <time>2016-06-08T08:38:13Z</time>
      </trkpt>
      <trkpt lat="44.30639" lon="3.64387">
        <ele>673.338</ele>
        <time>2016-06-08T08:38:33Z</time>
      </trkpt>
      <trkpt lat="44.30567" lon="3.64601">
        <ele>682.729</ele>
        <time>2016-06-08T08:38:53Z</time>
      </trkpt>
      <trkpt lat="44.30503" lon="3.64655">
        <ele>692.915</ele>
        <time>2016-06-08T08:39:13Z</time>
      </trkpt>
      <trkpt lat="44.30515" lon="3.6479">
        <ele>686.774</ele>
        <time>2016-06-08T08:39:33Z</time>
      </trkpt>
      <trkpt lat="44.30452" lon="3.64966">
        <ele>702.695</ele>
        <time>2016-06-08T08:39:53Z</time>
      </trkpt>
      <trkpt lat="44.30397" lon="3.65026">
        <ele>706.887</ele>
        <time>2016-06-08T08:40:13Z</time>
      </trkpt>
      <trkpt lat="44.30334" lon="3.65075">
        <ele>708.657</ele>
        <time>2016-06-08T08:40:33Z</time>
      </trkpt>
      <trkpt lat="44.30257" lon="3.65161">
        <ele>718</ele>
        <time>2016-06-08T08:40:53Z</time>
      </trkpt>
      <trkpt lat="44.30389" lon="3.65487">
        <ele>694.52</ele>
        <time>2019-03-26T05:15:51Z</time>
      </trkpt>
      <trkpt lat="44.30456" lon="3.65602">
        <ele>686.708</ele>
        <time>2019-03-26T05:16:11Z</time>
      </trkpt>
      <trkpt lat="44.30456" lon="3.65744">
        <ele>678.131</ele>
        <time>2019-03-26T05:16:31Z</time>
      </trkpt>
      <trkpt lat="44.30402" lon="3.65827">
        <ele>681.63</ele>
        <time>2019-03-26T05:16:51Z</time>
      </trkpt>
      <trkpt lat="44.30377" lon="3.65913">
        <ele>663.375</ele>
        <time>2019-03-26T05:17:11Z</time>
      </trkpt>
      <trkpt lat="44.30347" lon="3.6597">
        <ele>657.856</ele>
        <time>2019-03-26T05:17:31Z</time>
      </trkpt>
      <trkpt lat="44.30321" lon="3.66057">
        <ele>650.292</ele>
        <time>2019-03-26T05:17:51Z</time>
      </trkpt>
      <trkpt lat="44.30253" lon="3.66216">
        <ele>626.961</ele>
        <time>2019-03-26T05:18:11Z</time>
      </trkpt>
      <trkpt lat="44.30193" lon="3.66328">
        <ele>612.442</ele>
        <time>2021-02-03T02:29:52Z</time>
      </trkpt>
      <trkpt lat="44.30138" lon="3.66329">
        <ele>609.634</ele>
        <time>2019-03-26T05:20:11Z</time>
      </trkpt>
      <trkpt lat="44.30113" lon="3.66389">
        <ele>608.695</ele>
        <time>2019-03-26T05:20:31Z</time>
      </trkpt>
      <trkpt lat="44.30058" lon="3.66368">
        <ele>610.249</ele>
        <time>2016-06-08T08:51:33Z</time>
      </trkpt>
      <trkpt lat="44.29983" lon="3.66382">
        <ele>615.823</ele>
        <time>2021-02-03T02:31:12Z</time>
      </trkpt>
      <trkpt lat="44.29875" lon="3.6648">
        <ele>618.608</ele>
        <time>2016-06-08T08:51:53Z</time>
      </trkpt>
      <trkpt lat="44.2983" lon="3.66507">
        <ele>615.245</ele>
        <time>2016-06-08T08:52:13Z</time>
      </trkpt>
      <trkpt lat="44.29799" lon="3.66566">
        <ele>617.034</ele>
        <time>2016-06-08T08:52:33Z</time>
      </trkpt>
      <trkpt lat="44.2978" lon="3.66631">
        <ele>622.079</ele>
        <time>2016-06-08T08:52:53Z</time>
      </trkpt>
      <trkpt lat="44.29762" lon="3.66934">
        <ele>622.84</ele>
        <time>2016-06-08T08:53:13Z</time>
      </trkpt>
      <trkpt lat="44.29791" lon="3.67067">
        <ele>623.116</ele>
        <time>2016-06-08T08:53:33Z</time>
      </trkpt>
      <trkpt lat="44.29824" lon="3.67133">
        <ele>626.925</ele>
        <time>2016-06-08T08:53:53Z</time>
      </trkpt>
      <trkpt lat="44.29915" lon="3.67212">
        <ele>640.676</ele>
        <time>2016-06-08T08:54:13Z</time>
      </trkpt>
      <trkpt lat="44.29942" lon="3.67293">
        <ele>634.648</ele>
        <time>2016-06-08T08:54:33Z</time>
      </trkpt>
      <trkpt lat="44.29933" lon="3.67463">
        <ele>629.896</ele>
        <time>2016-06-08T08:54:53Z</time>
      </trkpt>
      <trkpt lat="44.29953" lon="3.67583">
        <ele>633.531</ele>
        <time>2016-06-08T08:55:13Z</time>
      </trkpt>
      <trkpt lat="44.30028" lon="3.67738">
        <ele>643.324</ele>
        <time>2016-06-08T08:55:33Z</time>
      </trkpt>
      <trkpt lat="44.30032" lon="3.67829">
        <ele>637.808</ele>
        <time>2016-06-08T08:55:53Z</time>
      </trkpt>
      <trkpt lat="44.2992" lon="3.68029">
        <ele>633.955</ele>
        <time>2016-06-08T08:56:13Z</time>
      </trkpt>
      <trkpt lat="44.29882" lon="3.68184">
        <ele>648.744</ele>
        <time>2016-06-08T08:56:33Z</time>
      </trkpt>
      <trkpt lat="44.29833" lon="3.68308">
        <ele>651.819</ele>
        <time>2016-06-08T08:56:53Z</time>
      </trkpt>
      <trkpt lat="44.29788" lon="3.68362">
        <ele>654.78</ele>
        <time>2016-06-08T08:57:13Z</time>
      </trkpt>
      <trkpt lat="44.29684" lon="3.6838">
        <ele>653.556</ele>
        <time>2016-06-08T08:57:33Z</time>
      </trkpt>
      <trkpt lat="44.29601" lon="3.68405">
        <ele>659.245</ele>
        <time>2016-06-08T08:57:53Z</time>
      </trkpt>
      <trkpt lat="44.29515" lon="3.68352">
        <ele>663.566</ele>
        <time>2016-06-08T08:58:13Z</time>
      </trkpt>
      <trkpt lat="44.29483" lon="3.68346">
        <ele>653.058</ele>
        <time>2016-06-08T08:58:33Z</time>
      </trkpt>
      <trkpt lat="44.2945" lon="3.68373">
        <ele>655.964</ele>
        <time>2016-06-08T08:58:53Z</time>
      </trkpt>
      <trkpt lat="44.29392" lon="3.68446">
        <ele>657.806</ele>
        <time>2016-06-08T08:59:13Z</time>
      </trkpt>
      <trkpt lat="44.29286" lon="3.6848">
        <ele>654.416</ele>
        <time>2016-06-08T08:59:33Z</time>
      </trkpt>
      <trkpt lat="44.29241" lon="3.68527">
        <ele>653.708</ele>
        <time>2016-06-08T08:59:53Z</time>
      </trkpt>
      <trkpt lat="44.2923" lon="3.68579">
        <ele>653.872</ele>
        <time>2016-06-08T09:00:13Z</time>
      </trkpt>
      <trkpt lat="44.29218" lon="3.68678">
        <ele>671.161</ele>
        <time>2016-06-08T09:00:33Z</time>
      </trkpt>
      <trkpt lat="44.29183" lon="3.68736">
        <ele>668.366</ele>
        <time>2016-06-08T09:00:53Z</time>
      </trkpt>
      <trkpt lat="44.29026" lon="3.68814">
        <ele>659.077</ele>
        <time>2016-06-08T09:01:13Z</time>
      </trkpt>
      <trkpt lat="44.28959" lon="3.68942">
        <ele>677.483</ele>
        <time>2016-06-08T09:01:33Z</time>
      </trkpt>
      <trkpt lat="44.28908" lon="3.68969">
        <ele>673.492</ele>
        <time>2016-06-08T09:01:53Z</time>
      </trkpt>
      <trkpt lat="44.28794" lon="3.68928">
        <ele>665.143</ele>
        <time>2016-06-08T09:02:13Z</time>
      </trkpt>
      <trkpt lat="44.28748" lon="3.68935">
        <ele>659.485</ele>
        <time>2016-06-08T09:02:33Z</time>
      </trkpt>
      <trkpt lat="44.28585" lon="3.69064">
        <ele>665.065</ele>
        <time>2016-06-08T09:02:53Z</time>
      </trkpt>
      <trkpt lat="44.28556" lon="3.69111">
        <ele>663.268</ele>
        <time>2016-06-08T09:03:13Z</time>
      </trkpt>
      <trkpt lat="44.28499" lon="3.69248">
        <ele>669.314</ele>
        <time>2016-06-08T09:03:33Z</time>
      </trkpt>
      <trkpt lat="44.28259" lon="3.69484">
        <ele>662.508</ele>
        <time>2016-06-08T09:03:53Z</time>
      </trkpt>
      <trkpt lat="44.28223" lon="3.69604">
        <ele>672.082</ele>
        <time>2016-06-08T09:04:13Z</time>
      </trkpt>
      <trkpt lat="44.28193" lon="3.69644">
        <ele>668.671</ele>
        <time>2016-06-08T09:04:33Z</time>
      </trkpt>
      <trkpt lat="44.28153" lon="3.69661">
        <ele>667.266</ele>
        <time>2016-06-08T09:04:53Z</time>
      </trkpt>
      <trkpt lat="44.28094" lon="3.69662">
        <ele>664.787</ele>
        <time>2016-06-08T09:05:13Z</time>
      </trkpt>
      <trkpt lat="44.28061" lon="3.69678">
        <ele>663.523</ele>
        <time>2016-06-08T09:05:33Z</time>
      </trkpt>
      <trkpt lat="44.28028" lon="3.69689">
        <ele>666.972</ele>
        <time>2016-06-08T09:05:53Z</time>
      </trkpt>
      <trkpt lat="44.27995" lon="3.69734">
        <ele>668.613</ele>
        <time>2016-06-08T09:06:13Z</time>
      </trkpt>
      <trkpt lat="44.27988" lon="3.69791">
        <ele>669.345</ele>
        <time>2016-06-08T09:06:33Z</time>
      </trkpt>
      <trkpt lat="44.27994" lon="3.69877">
        <ele>669.512</ele>
        <time>2016-06-08T09:06:53Z</time>
      </trkpt>
      <trkpt lat="44.27982" lon="3.6998">
        <ele>668.832</ele>
        <time>2016-06-08T09:07:13Z</time>
      </trkpt>
      <trkpt lat="44.27988" lon="3.70134">
        <ele>675.105</ele>
        <time>2016-06-08T09:07:33Z</time>
      </trkpt>
      <trkpt lat="44.27947" lon="3.70269">
        <ele>669.608</ele>
        <time>2016-06-08T09:07:53Z</time>
      </trkpt>
      <trkpt lat="44.27883" lon="3.70455">
        <ele>674.427</ele>
        <time>2016-06-08T09:08:13Z</time>
      </trkpt>
      <trkpt lat="44.27866" lon="3.70654">
        <ele>685.616</ele>
        <time>2016-06-08T09:08:33Z</time>
      </trkpt>
      <trkpt lat="44.27841" lon="3.70702">
        <ele>686.711</ele>
        <time>2016-06-08T09:08:53Z</time>
      </trkpt>
      <trkpt lat="44.27783" lon="3.70754">
        <ele>682.912</ele>
        <time>2016-06-08T09:09:13Z</time>
      </trkpt>
      <trkpt lat="44.27757" lon="3.70808">
        <ele>682.168</ele>
        <time>2016-06-08T09:09:33Z</time>
      </trkpt>
      <trkpt lat="44.27752" lon="3.70879">
        <ele>682.887</ele>
        <time>2016-06-08T09:09:53Z</time>
      </trkpt>
      <trkpt lat="44.27772" lon="3.7093">
        <ele>683.348</ele>
        <time>2016-06-08T09:10:13Z</time>
      </trkpt>
      <trkpt lat="44.27825" lon="3.71001">
        <ele>694.88</ele>
        <time>2016-06-08T09:10:33Z</time>
      </trkpt>
      <trkpt lat="44.27848" lon="3.71068">
        <ele>687.834</ele>
        <time>2016-06-08T09:10:53Z</time>
      </trkpt>
      <trkpt lat="44.27853" lon="3.71188">
        <ele>685.755</ele>
        <time>2016-06-08T09:11:13Z</time>
      </trkpt>
      <trkpt lat="44.27832" lon="3.7125">
        <ele>685.81</ele>
        <time>2016-06-08T09:11:33Z</time>
      </trkpt>
      <trkpt lat="44.27782" lon="3.71345">
        <ele>688.608</ele>
        <time>2016-06-08T09:11:53Z</time>
      </trkpt>
      <trkpt lat="44.27774" lon="3.71405">
        <ele>690.059</ele>
        <time>2016-06-08T09:12:13Z</time>
      </trkpt>
      <trkpt lat="44.27819" lon="3.71517">
        <ele>692.438</ele>
        <time>2016-06-08T09:12:33Z</time>
      </trkpt>
      <trkpt lat="44.27818" lon="3.7157">
        <ele>692.063</ele>
        <time>2016-06-08T09:12:53Z</time>
      </trkpt>
      <trkpt lat="44.278" lon="3.71662">
        <ele>691.914</ele>
        <time>2016-06-08T09:13:13Z</time>
      </trkpt>
      <trkpt lat="44.27802" lon="3.71837">
        <ele>695.14</ele>
        <time>2016-06-08T09:13:33Z</time>
      </trkpt>
      <trkpt lat="44.27781" lon="3.71957">
        <ele>691.659</ele>
        <time>2016-06-08T09:13:53Z</time>
      </trkpt>
      <trkpt lat="44.27781" lon="3.72038">
        <ele>688.68</ele>
        <time>2016-06-08T09:14:13Z</time>
      </trkpt>
      <trkpt lat="44.27806" lon="3.72253">
        <ele>695.042</ele>
        <time>2016-06-08T09:14:33Z</time>
      </trkpt>
      <trkpt lat="44.2779" lon="3.72349">
        <ele>699.857</ele>
        <time>2016-06-08T09:14:53Z</time>
      </trkpt>
      <trkpt lat="44.2775" lon="3.72403">
        <ele>697</ele>
        <time>2016-06-08T09:15:13Z</time>
      </trkpt>
      <trkpt lat="44.27628" lon="3.72497">
        <ele>693.12</ele>
        <time>2019-03-26T05:45:11Z</time>
      </trkpt>
      <trkpt lat="44.2755" lon="3.726">
        <ele>695.008</ele>
        <time>2019-03-26T05:45:31Z</time>
      </trkpt>
      <trkpt lat="44.27487" lon="3.7278">
        <ele>706.061</ele>
        <time>2019-03-26T05:45:51Z</time>
      </trkpt>
      <trkpt lat="44.27481" lon="3.72879">
        <ele>708.96</ele>
        <time>2019-03-26T05:46:11Z</time>
      </trkpt>
      <trkpt lat="44.27451" lon="3.72954">
        <ele>700.895</ele>
        <time>2019-03-26T05:46:31Z</time>
      </trkpt>
      <trkpt lat="44.2741" lon="3.72987">
        <ele>705.556</ele>
        <time>2019-03-26T05:46:51Z</time>
      </trkpt>
      <trkpt lat="44.27295" lon="3.72964">
        <ele>698.092</ele>
        <time>2019-03-26T05:47:11Z</time>
      </trkpt>
      <trkpt lat="44.27226" lon="3.7298">
        <ele>697.631</ele>
        <time>2019-03-26T05:47:31Z</time>
      </trkpt>
      <trkpt lat="44.27165" lon="3.7302">
        <ele>696.842</ele>
        <time>2019-03-26T05:47:51Z</time>
      </trkpt>
      <trkpt lat="44.27128" lon="3.73066">
        <ele>699.024</ele>
        <time>2019-03-26T05:48:11Z</time>
      </trkpt>
      <trkpt lat="44.27077" lon="3.73002">
        <ele>711.424</ele>
        <time>2016-06-08T09:19:13Z</time>
      </trkpt>
      <trkpt lat="44.27055" lon="3.73006">
        <ele>720.604</ele>
        <time>2016-06-08T09:19:33Z</time>
      </trkpt>
      <trkpt lat="44.27032" lon="3.73055">
        <ele>709.714</ele>
        <time>2016-06-08T09:19:53Z</time>
      </trkpt>
      <trkpt lat="44.27" lon="3.7308">
        <ele>702.608</ele>
        <time>2016-06-08T09:20:13Z</time>
      </trkpt>
      <trkpt lat="44.26975" lon="3.73081">
        <ele>701.948</ele>
        <time>2016-06-08T09:20:33Z</time>
      </trkpt>
      <trkpt lat="44.26923" lon="3.73067">
        <ele>712.967</ele>
        <time>2016-06-08T09:20:53Z</time>
      </trkpt>
      <trkpt lat="44.26894" lon="3.73067">
        <ele>710.252</ele>
        <time>2016-06-08T09:21:13Z</time>
      </trkpt>
      <trkpt lat="44.26878" lon="3.73106">
        <ele>713.113</ele>
        <time>2016-06-08T09:21:33Z</time>
      </trkpt>
      <trkpt lat="44.26895" lon="3.73119">
        <ele>713.199</ele>
        <time>2016-06-08T09:21:53Z</time>
      </trkpt>
      <trkpt lat="44.26939" lon="3.73159">
        <ele>711.538</ele>
        <time>2016-06-08T09:22:13Z</time>
      </trkpt>
      <trkpt lat="44.26985" lon="3.73185">
        <ele>704.189</ele>
        <time>2016-06-08T09:22:33Z</time>
      </trkpt>
      <trkpt lat="44.27" lon="3.73212">
        <ele>707.291</ele>
        <time>2016-06-08T09:22:53Z</time>
      </trkpt>
      <trkpt lat="44.27002" lon="3.73325">
        <ele>718.274</ele>
        <time>2016-06-08T09:23:13Z</time>
      </trkpt>
      <trkpt lat="44.26951" lon="3.734">
        <ele>725.456</ele>
        <time>2016-06-08T09:23:33Z</time>
      </trkpt>
      <trkpt lat="44.26865" lon="3.73487">
        <ele>747.121</ele>
        <time>2016-06-08T09:23:53Z</time>
      </trkpt>
      <trkpt lat="44.26826" lon="3.73559">
        <ele>739.308</ele>
        <time>2016-06-08T09:24:13Z</time>
      </trkpt>
      <trkpt lat="44.26818" lon="3.73611">
        <ele>729.693</ele>
        <time>2016-06-08T09:24:33Z</time>
      </trkpt>
      <trkpt lat="44.26737" lon="3.73565">
        <ele>761.672</ele>
        <time>2016-06-08T09:24:53Z</time>
      </trkpt>
      <trkpt lat="44.267" lon="3.73564">
        <ele>765.017</ele>
        <time>2016-06-08T09:25:13Z</time>
      </trkpt>
      <trkpt lat="44.26644" lon="3.73535">
        <ele>772.428</ele>
        <time>2016-06-08T09:25:33Z</time>
      </trkpt>
      <trkpt lat="44.26574" lon="3.73554">
        <ele>770.964</ele>
        <time>2016-06-08T09:25:53Z</time>
      </trkpt>
      <trkpt lat="44.26527" lon="3.73583">
        <ele>767.063</ele>
        <time>2016-06-08T09:26:13Z</time>
      </trkpt>
      <trkpt lat="44.26512" lon="3.73568">
        <ele>772.124</ele>
        <time>2016-06-08T09:26:33Z</time>
      </trkpt>
      <trkpt lat="44.26574" lon="3.73517">
        <ele>785.766</ele>
        <time>2016-06-08T09:26:53Z</time>
      </trkpt>
      <trkpt lat="44.26618" lon="3.73464">
        <ele>799.052</ele>
        <time>2016-06-08T09:27:13Z</time>
      </trkpt>
      <trkpt lat="44.26752" lon="3.73467">
        <ele>796.753</ele>
        <time>2016-06-08T09:27:33Z</time>
      </trkpt>
      <trkpt lat="44.26777" lon="3.73426">
        <ele>803.008</ele>
        <time>2016-06-08T09:27:53Z</time>
      </trkpt>
      <trkpt lat="44.26799" lon="3.7335">
        <ele>809.108</ele>
        <time>2016-06-08T09:28:13Z</time>
      </trkpt>
      <trkpt lat="44.26829" lon="3.73288">
        <ele>799.031</ele>
        <time>2016-06-08T09:28:33Z</time>
      </trkpt>
      <trkpt lat="44.26798" lon="3.73244">
        <ele>800.99</ele>
        <time>2016-06-08T09:28:53Z</time>
      </trkpt>
      <trkpt lat="44.26667" lon="3.73271">
        <ele>820.325</ele>
        <time>2016-06-08T09:29:13Z</time>
      </trkpt>
      <trkpt lat="44.26524" lon="3.73259">
        <ele>824.686</ele>
        <time>2016-06-08T09:29:33Z</time>
      </trkpt>
      <trkpt lat="44.26468" lon="3.73254">
        <ele>833.572</ele>
        <time>2016-06-08T09:29:53Z</time>
      </trkpt>
      <trkpt lat="44.26428" lon="3.73222">
        <ele>841.251</ele>
        <time>2016-06-08T09:30:13Z</time>
      </trkpt>
      <trkpt lat="44.26403" lon="3.73131">
        <ele>850.142</ele>
        <time>2016-06-08T09:30:33Z</time>
      </trkpt>
      <trkpt lat="44.26358" lon="3.7307">
        <ele>853.374</ele>
        <time>2016-06-08T09:30:53Z</time>
      </trkpt>
      <trkpt lat="44.26311" lon="3.72974">
        <ele>854.518</ele>
        <time>2016-06-08T09:31:13Z</time>
      </trkpt>
      <trkpt lat="44.26323" lon="3.72897">
        <ele>849.398</ele>
        <time>2016-06-08T09:31:33Z</time>
      </trkpt>
      <trkpt lat="44.2628" lon="3.72717">
        <ele>855.317</ele>
        <time>2016-06-08T09:31:53Z</time>
      </trkpt>
      <trkpt lat="44.26237" lon="3.72686">
        <ele>853.608</ele>
        <time>2016-06-08T09:32:13Z</time>
      </trkpt>
      <trkpt lat="44.26177" lon="3.72693">
        <ele>849.087</ele>
        <time>2016-06-08T09:32:33Z</time>
      </trkpt>
      <trkpt lat="44.2612" lon="3.72762">
        <ele>862.316</ele>
        <time>2016-06-08T09:32:53Z</time>
      </trkpt>
      <trkpt lat="44.26033" lon="3.72791">
        <ele>870.191</ele>
        <time>2016-06-08T09:33:13Z</time>
      </trkpt>
      <trkpt lat="44.25993" lon="3.72767">
        <ele>866.342</ele>
        <time>2016-06-08T09:33:33Z</time>
      </trkpt>
      <trkpt lat="44.25926" lon="3.72752">
        <ele>880.918</ele>
        <time>2016-06-08T09:33:53Z</time>
      </trkpt>
      <trkpt lat="44.25904" lon="3.72702">
        <ele>874.177</ele>
        <time>2016-06-08T09:34:13Z</time>
      </trkpt>
      <trkpt lat="44.25877" lon="3.72644">
        <ele>879.788</ele>
        <time>2016-06-08T09:34:33Z</time>
      </trkpt>
      <trkpt lat="44.25875" lon="3.72579">
        <ele>873.31</ele>
        <time>2016-06-08T09:34:53Z</time>
      </trkpt>
      <trkpt lat="44.2572" lon="3.72453">
        <ele>898.645</ele>
        <time>2016-06-08T09:35:13Z</time>
      </trkpt>
      <trkpt lat="44.25692" lon="3.72444">
        <ele>900.147</ele>
        <time>2016-06-08T09:35:33Z</time>
      </trkpt>
      <trkpt lat="44.25628" lon="3.72449">
        <ele>913.711</ele>
        <time>2016-06-08T09:35:53Z</time>
      </trkpt>
      <trkpt lat="44.25552" lon="3.72401">
        <ele>916.108</ele>
        <time>2016-06-08T09:36:13Z</time>
      </trkpt>
      <trkpt lat="44.25515" lon="3.72391">
        <ele>920.56</ele>
        <time>2016-06-08T09:36:33Z</time>
      </trkpt>
      <trkpt lat="44.25458" lon="3.72401">
        <ele>925.699</ele>
        <time>2016-06-08T09:36:53Z</time>
      </trkpt>
      <trkpt lat="44.2544" lon="3.72421">
        <ele>931.954</ele>
        <time>2016-06-08T09:37:13Z</time>
      </trkpt>
      <trkpt lat="44.25334" lon="3.72435">
        <ele>939.795</ele>
        <time>2016-06-08T09:37:33Z</time>
      </trkpt>
      <trkpt lat="44.25267" lon="3.72418">
        <ele>939.581</ele>
        <time>2016-06-08T09:37:53Z</time>
      </trkpt>
      <trkpt lat="44.2516" lon="3.72411">
        <ele>949.05</ele>
        <time>2016-06-08T09:38:13Z</time>
      </trkpt>
      <trkpt lat="44.25094" lon="3.7239">
        <ele>941.071</ele>
        <time>2016-06-08T09:38:33Z</time>
      </trkpt>
      <trkpt lat="44.25012" lon="3.72433">
        <ele>953.053</ele>
        <time>2016-06-08T09:38:53Z</time>
      </trkpt>
      <trkpt lat="44.24899" lon="3.72387">
        <ele>947.215</ele>
        <time>2016-06-08T09:39:13Z</time>
      </trkpt>
      <trkpt lat="44.24851" lon="3.72386">
        <ele>943.865</ele>
        <time>2016-06-08T09:39:33Z</time>
      </trkpt>
      <trkpt lat="44.2477" lon="3.72474">
        <ele>960.311</ele>
        <time>2016-06-08T09:39:53Z</time>
      </trkpt>
      <trkpt lat="44.24753" lon="3.72508">
        <ele>968.408</ele>
        <time>2016-06-08T09:40:13Z</time>
      </trkpt>
      <trkpt lat="44.24586" lon="3.72556">
        <ele>959.247</ele>
        <time>2016-06-08T09:40:33Z</time>
      </trkpt>
      <trkpt lat="44.24515" lon="3.72561">
        <ele>957.076</ele>
        <time>2016-06-08T09:40:53Z</time>
      </trkpt>
      <trkpt lat="44.24471" lon="3.72551">
        <ele>953.251</ele>
        <time>2016-06-08T09:41:13Z</time>
      </trkpt>
      <trkpt lat="44.24438" lon="3.72561">
        <ele>952.392</ele>
        <time>2016-06-08T09:41:33Z</time>
      </trkpt>
      <trkpt lat="44.24409" lon="3.7263">
        <ele>951.128</ele>
        <time>2016-06-08T09:41:53Z</time>
      </trkpt>
      <trkpt lat="44.24367" lon="3.72646">
        <ele>946.157</ele>
        <time>2016-06-08T09:42:13Z</time>
      </trkpt>
      <trkpt lat="44.2434" lon="3.7262">
        <ele>943.768</ele>
        <time>2016-06-08T09:42:33Z</time>
      </trkpt>
      <trkpt lat="44.2435" lon="3.72669">
        <ele>941.99</ele>
        <time>2016-06-08T09:42:53Z</time>
      </trkpt>
      <trkpt lat="44.24382" lon="3.72721">
        <ele>937.527</ele>
        <time>2016-06-08T09:43:13Z</time>
      </trkpt>
      <trkpt lat="44.24377" lon="3.72986">
        <ele>928.868</ele>
        <time>2016-06-08T09:43:33Z</time>
      </trkpt>
      <trkpt lat="44.24356" lon="3.73036">
        <ele>927.514</ele>
        <time>2016-06-08T09:43:53Z</time>
      </trkpt>
      <trkpt lat="44.24214" lon="3.73292">
        <ele>929.408</ele>
        <time>2016-06-08T09:44:13Z</time>
      </trkpt>
      <trkpt lat="44.24261" lon="3.73481">
        <ele>949.928</ele>
        <time>2016-06-08T09:44:33Z</time>
      </trkpt>
      <trkpt lat="44.24293" lon="3.73534">
        <ele>955.637</ele>
        <time>2016-06-08T09:44:53Z</time>
      </trkpt>
      <trkpt lat="44.24268" lon="3.73592">
        <ele>949.012</ele>
        <time>2016-06-08T09:45:13Z</time>
      </trkpt>
      <trkpt lat="44.24269" lon="3.73632">
        <ele>955.283</ele>
        <time>2016-06-08T09:45:33Z</time>
      </trkpt>
      <trkpt lat="44.2429" lon="3.73684">
        <ele>962.029</ele>
        <time>2016-06-08T09:45:53Z</time>
      </trkpt>
      <trkpt lat="44.24265" lon="3.73751">
        <ele>960.858</ele>
        <time>2016-06-08T09:46:13Z</time>
      </trkpt>
      <trkpt lat="44.24285" lon="3.73792">
        <ele>966.859</ele>
        <time>2016-06-08T09:46:33Z</time>
      </trkpt>
      <trkpt lat="44.24291" lon="3.73867">
        <ele>973.491</ele>
        <time>2016-06-08T09:46:53Z</time>
      </trkpt>
      <trkpt lat="44.24268" lon="3.73937">
        <ele>968.876</ele>
        <time>2016-06-08T09:47:13Z</time>
      </trkpt>
      <trkpt lat="44.24247" lon="3.74089">
        <ele>979.39</ele>
        <time>2016-06-08T09:47:33Z</time>
      </trkpt>
      <trkpt lat="44.24248" lon="3.74174">
        <ele>987.719</ele>
        <time>2016-06-08T09:47:53Z</time>
      </trkpt>
      <trkpt lat="44.24233" lon="3.7423">
        <ele>983.308</ele>
        <time>2016-06-08T09:48:13Z</time>
      </trkpt>
      <trkpt lat="44.24258" lon="3.74273">
        <ele>993.833</ele>
        <time>2016-06-08T09:48:33Z</time>
      </trkpt>
      <trkpt lat="44.24234" lon="3.74329">
        <ele>992.212</ele>
        <time>2016-06-08T09:48:53Z</time>
      </trkpt>
      <trkpt lat="44.24205" lon="3.74385">
        <ele>993.887</ele>
        <time>2016-06-08T09:49:13Z</time>
      </trkpt>
      <trkpt lat="44.2421" lon="3.74437">
        <ele>1002.868</ele>
        <time>2016-06-08T09:49:33Z</time>
      </trkpt>
      <trkpt lat="44.2424" lon="3.74498">
        <ele>1010.634</ele>
        <time>2016-06-08T09:49:53Z</time>
      </trkpt>
      <trkpt lat="44.24213" lon="3.74641">
        <ele>1013.893</ele>
        <time>2016-06-08T09:50:13Z</time>
      </trkpt>
      <trkpt lat="44.24176" lon="3.74731">
        <ele>1011.514</ele>
        <time>2016-06-08T09:50:33Z</time>
      </trkpt>
      <trkpt lat="44.24185" lon="3.74811">
        <ele>1014.316</ele>
        <time>2016-06-08T09:50:53Z</time>
      </trkpt>
      <trkpt lat="44.24244" lon="3.74863">
        <ele>1027.767</ele>
        <time>2016-06-08T09:51:13Z</time>
      </trkpt>
      <trkpt lat="44.24258" lon="3.74935">
        <ele>1025.681</ele>
        <time>2016-06-08T09:51:33Z</time>
      </trkpt>
      <trkpt lat="44.2426" lon="3.74981">
        <ele>1021.919</ele>
        <time>2016-06-08T09:51:53Z</time>
      </trkpt>
      <trkpt lat="44.24275" lon="3.75026">
        <ele>1024.308</ele>
        <time>2016-06-08T09:52:13Z</time>
      </trkpt>
      <trkpt lat="44.24279" lon="3.75152">
        <ele>1031.232</ele>
        <time>2016-06-08T09:52:33Z</time>
      </trkpt>
      <trkpt lat="44.24257" lon="3.75228">
        <ele>1026.341</ele>
        <time>2016-06-08T09:52:53Z</time>
      </trkpt>
      <trkpt lat="44.24192" lon="3.7532">
        <ele>1020.586</ele>
        <time>2016-06-08T09:53:13Z</time>
      </trkpt>
      <trkpt lat="44.24131" lon="3.75382">
        <ele>1012.187</ele>
        <time>2016-06-08T09:53:33Z</time>
      </trkpt>
      <trkpt lat="44.24089" lon="3.7548">
        <ele>1009.223</ele>
        <time>2016-06-08T09:53:53Z</time>
      </trkpt>
      <trkpt lat="44.24036" lon="3.75518">
        <ele>1009.232</ele>
        <time>2016-06-08T09:54:13Z</time>
      </trkpt>
      <trkpt lat="44.23987" lon="3.75514">
        <ele>1005.093</ele>
        <time>2016-06-08T09:54:33Z</time>
      </trkpt>
      <trkpt lat="44.23907" lon="3.75525">
        <ele>999.885</ele>
        <time>2016-06-08T09:54:53Z</time>
      </trkpt>
      <trkpt lat="44.23754" lon="3.75559">
        <ele>987.855</ele>
        <time>2016-06-08T09:55:13Z</time>
      </trkpt>
      <trkpt lat="44.23638" lon="3.75615">
        <ele>988.007</ele>
        <time>2016-06-08T09:55:33Z</time>
      </trkpt>
      <trkpt lat="44.23586" lon="3.75615">
        <ele>983.617</ele>
        <time>2016-06-08T09:55:53Z</time>
      </trkpt>
      <trkpt lat="44.23543" lon="3.75635">
        <ele>978.808</ele>
        <time>2016-06-08T09:56:13Z</time>
      </trkpt>
      <trkpt lat="44.23483" lon="3.75733">
        <ele>976.191</ele>
        <time>2016-06-08T09:56:33Z</time>
      </trkpt>
      <trkpt lat="44.23467" lon="3.75847">
        <ele>981.45</ele>
        <time>2016-06-08T09:56:53Z</time>
      </trkpt>
      <trkpt lat="44.23478" lon="3.75895">
        <ele>986.125</ele>
        <time>2016-06-08T09:57:13Z</time>
      </trkpt>
      <trkpt lat="44.23448" lon="3.75931">
        <ele>983.256</ele>
        <time>2016-06-08T09:57:33Z</time>
      </trkpt>
      <trkpt lat="44.23395" lon="3.75961">
        <ele>975.742</ele>
        <time>2016-06-08T09:57:53Z</time>
      </trkpt>
      <trkpt lat="44.2338" lon="3.76114">
        <ele>979.231</ele>
        <time>2016-06-08T09:58:13Z</time>
      </trkpt>
      <trkpt lat="44.234" lon="3.76221">
        <ele>968.712</ele>
        <time>2016-06-08T09:58:33Z</time>
      </trkpt>
      <trkpt lat="44.23424" lon="3.76332">
        <ele>959.044</ele>
        <time>2016-06-08T09:58:53Z</time>
      </trkpt>
      <trkpt lat="44.23458" lon="3.76394">
        <ele>958.176</ele>
        <time>2016-06-08T09:59:13Z</time>
      </trkpt>
      <trkpt lat="44.23492" lon="3.76521">
        <ele>952.79</ele>
        <time>2016-06-08T09:59:33Z</time>
      </trkpt>
      <trkpt lat="44.23488" lon="3.7655">
        <ele>946.919</ele>
        <time>2016-06-08T09:59:53Z</time>
      </trkpt>
      <trkpt lat="44.235" lon="3.76575">
        <ele>947.608</ele>
        <time>2016-06-08T10:00:13Z</time>
      </trkpt>
      <trkpt lat="44.23549" lon="3.76598">
        <ele>950.243</ele>
        <time>2016-06-08T10:00:33Z</time>
      </trkpt>
      <trkpt lat="44.23509" lon="3.76605">
        <ele>943.832</ele>
        <time>2016-06-08T10:00:53Z</time>
      </trkpt>
      <trkpt lat="44.23567" lon="3.76645">
        <ele>939.787</ele>
        <time>2016-06-08T10:01:13Z</time>
      </trkpt>
      <trkpt lat="44.23604" lon="3.76654">
        <ele>943.018</ele>
        <time>2016-06-08T10:01:33Z</time>
      </trkpt>
      <trkpt lat="44.23616" lon="3.76699">
        <ele>938.284</ele>
        <time>2016-06-08T10:01:53Z</time>
      </trkpt>
      <trkpt lat="44.23587" lon="3.76872">
        <ele>926.493</ele>
        <time>2016-06-08T10:02:13Z</time>
      </trkpt>
      <trkpt lat="44.23598" lon="3.76969">
        <ele>921.694</ele>
        <time>2016-06-08T10:02:33Z</time>
      </trkpt>
      <trkpt lat="44.23635" lon="3.77113">
        <ele>918.116</ele>
        <time>2016-06-08T10:02:53Z</time>
      </trkpt>
      <trkpt lat="44.23639" lon="3.77163">
        <ele>916.638</ele>
        <time>2016-06-08T10:03:13Z</time>
      </trkpt>
      <trkpt lat="44.23653" lon="3.77212">
        <ele>912.27</ele>
        <time>2016-06-08T10:03:33Z</time>
      </trkpt>
      <trkpt lat="44.23613" lon="3.77208">
        <ele>902.117</ele>
        <time>2016-06-08T10:03:53Z</time>
      </trkpt>
      <trkpt lat="44.23624" lon="3.77238">
        <ele>899.208</ele>
        <time>2016-06-08T10:04:13Z</time>
      </trkpt>
      <trkpt lat="44.23656" lon="3.77263">
        <ele>901.949</ele>
        <time>2016-06-08T10:04:33Z</time>
      </trkpt>
      <trkpt lat="44.23659" lon="3.77291">
        <ele>901.368</ele>
        <time>2016-06-08T10:04:53Z</time>
      </trkpt>
      <trkpt lat="44.23631" lon="3.77336">
        <ele>898.483</ele>
        <time>2016-06-08T10:05:13Z</time>
      </trkpt>
      <trkpt lat="44.23601" lon="3.77348">
        <ele>895.464</ele>
        <time>2016-06-08T10:05:33Z</time>
      </trkpt>
      <trkpt lat="44.23565" lon="3.77342">
        <ele>890.22</ele>
        <time>2016-06-08T10:05:53Z</time>
      </trkpt>
      <trkpt lat="44.23513" lon="3.77355">
        <ele>885.929</ele>
        <time>2016-06-08T10:06:13Z</time>
      </trkpt>
      <trkpt lat="44.2346" lon="3.77435">
        <ele>893.17</ele>
        <time>2016-06-08T10:06:33Z</time>
      </trkpt>
      <trkpt lat="44.2341" lon="3.77495">
        <ele>889.572</ele>
        <time>2016-06-08T10:06:53Z</time>
      </trkpt>
      <trkpt lat="44.23384" lon="3.77541">
        <ele>892.327</ele>
        <time>2016-06-08T10:07:13Z</time>
      </trkpt>
      <trkpt lat="44.23207" lon="3.77747">
        <ele>889.468</ele>
        <time>2016-06-08T10:07:33Z</time>
      </trkpt>
      <trkpt lat="44.23215" lon="3.77819">
        <ele>885.414</ele>
        <time>2016-06-08T10:07:53Z</time>
      </trkpt>
      <trkpt lat="44.23138" lon="3.77961">
        <ele>882.608</ele>
        <time>2016-06-08T10:08:13Z</time>
      </trkpt>
      <trkpt lat="44.231" lon="3.78075">
        <ele>887.598</ele>
        <time>2016-06-08T10:08:33Z</time>
      </trkpt>
      <trkpt lat="44.23087" lon="3.78161">
        <ele>880.147</ele>
        <time>2016-06-08T10:08:53Z</time>
      </trkpt>
      <trkpt lat="44.23009" lon="3.7836">
        <ele>870.572</ele>
        <time>2016-06-08T10:09:13Z</time>
      </trkpt>
      <trkpt lat="44.22974" lon="3.78418">
        <ele>863.563</ele>
        <time>2016-06-08T10:09:33Z</time>
      </trkpt>
      <trkpt lat="44.22938" lon="3.78442">
        <ele>860.839</ele>
        <time>2016-06-08T10:09:53Z</time>
      </trkpt>
      <trkpt lat="44.22892" lon="3.7845">
        <ele>865.428</ele>
        <time>2016-06-08T10:10:13Z</time>
      </trkpt>
      <trkpt lat="44.22831" lon="3.78496">
        <ele>854.559</ele>
        <time>2016-06-08T10:10:33Z</time>
      </trkpt>
      <trkpt lat="44.22795" lon="3.78529">
        <ele>849.731</ele>
        <time>2016-06-08T10:10:53Z</time>
      </trkpt>
      <trkpt lat="44.22726" lon="3.78581">
        <ele>847.987</ele>
        <time>2016-06-08T10:11:13Z</time>
      </trkpt>
      <trkpt lat="44.22681" lon="3.78642">
        <ele>845.742</ele>
        <time>2016-06-08T10:11:33Z</time>
      </trkpt>
      <trkpt lat="44.2264" lon="3.78684">
        <ele>849.626</ele>
        <time>2016-06-08T10:11:53Z</time>
      </trkpt>
      <trkpt lat="44.22568" lon="3.78971">
        <ele>840.608</ele>
        <time>2016-06-08T10:12:13Z</time>
      </trkpt>
      <trkpt lat="44.22529" lon="3.78991">
        <ele>846.934</ele>
        <time>2016-06-08T10:12:33Z</time>
      </trkpt>
      <trkpt lat="44.22466" lon="3.7918">
        <ele>830.083</ele>
        <time>2016-06-08T10:12:53Z</time>
      </trkpt>
      <trkpt lat="44.22423" lon="3.79244">
        <ele>821.818</ele>
        <time>2016-06-08T10:13:13Z</time>
      </trkpt>
      <trkpt lat="44.22398" lon="3.79303">
        <ele>823.379</ele>
        <time>2016-06-08T10:13:33Z</time>
      </trkpt>
      <trkpt lat="44.22405" lon="3.79353">
        <ele>823.175</ele>
        <time>2016-06-08T10:13:53Z</time>
      </trkpt>
      <trkpt lat="44.22459" lon="3.79458">
        <ele>815.884</ele>
        <time>2016-06-08T10:14:13Z</time>
      </trkpt>
      <trkpt lat="44.22471" lon="3.7954">
        <ele>814.745</ele>
        <time>2016-06-08T10:14:33Z</time>
      </trkpt>
      <trkpt lat="44.22471" lon="3.79676">
        <ele>798.777</ele>
        <time>2016-06-08T10:14:53Z</time>
      </trkpt>
      <trkpt lat="44.22482" lon="3.79675">
        <ele>797.424</ele>
        <time>2016-06-08T10:15:13Z</time>
      </trkpt>
      <trkpt lat="44.22503" lon="3.79568">
        <ele>806.604</ele>
        <time>2016-06-08T10:15:33Z</time>
      </trkpt>
      <trkpt lat="44.22538" lon="3.79729">
        <ele>785.514</ele>
        <time>2016-06-08T10:15:53Z</time>
      </trkpt>
      <trkpt lat="44.22542" lon="3.79833">
        <ele>776.408</ele>
        <time>2016-06-08T10:16:13Z</time>
      </trkpt>
      <trkpt lat="44.22518" lon="3.7989">
        <ele>772.678</ele>
        <time>2016-06-08T10:16:33Z</time>
      </trkpt>
      <trkpt lat="44.22374" lon="3.79916">
        <ele>752.827</ele>
        <time>2016-06-08T10:16:53Z</time>
      </trkpt>
      <trkpt lat="44.22369" lon="3.79894">
        <ele>753.822</ele>
        <time>2016-06-08T10:17:13Z</time>
      </trkpt>
      <trkpt lat="44.22318" lon="3.79815">
        <ele>758.533</ele>
        <time>2016-06-08T10:17:33Z</time>
      </trkpt>
      <trkpt lat="44.22249" lon="3.79851">
        <ele>736.629</ele>
        <time>2016-06-08T10:17:53Z</time>
      </trkpt>
      <trkpt lat="44.2228" lon="3.79858">
        <ele>738.458</ele>
        <time>2016-06-08T10:18:13Z</time>
      </trkpt>
      <trkpt lat="44.22135" lon="3.79931">
        <ele>711.239</ele>
        <time>2016-06-08T10:18:33Z</time>
      </trkpt>
      <trkpt lat="44.22007" lon="3.79851">
        <ele>696.911</ele>
        <time>2016-06-08T10:18:53Z</time>
      </trkpt>
      <trkpt lat="44.2198" lon="3.79879">
        <ele>684.515</ele>
        <time>2016-06-08T10:19:13Z</time>
      </trkpt>
      <trkpt lat="44.21976" lon="3.79919">
        <ele>675.965</ele>
        <time>2016-06-08T10:19:33Z</time>
      </trkpt>
      <trkpt lat="44.2193" lon="3.79996">
        <ele>659.411</ele>
        <time>2016-06-08T10:19:53Z</time>
      </trkpt>
      <trkpt lat="44.21926" lon="3.80089">
        <ele>645.708</ele>
        <time>2016-06-08T10:20:13Z</time>
      </trkpt>
      <trkpt lat="44.21933" lon="3.80187">
        <ele>645.467</ele>
        <time>2016-06-08T10:20:33Z</time>
      </trkpt>
      <trkpt lat="44.21909" lon="3.80329">
        <ele>640.946</ele>
        <time>2016-06-08T10:20:53Z</time>
      </trkpt>
      <trkpt lat="44.21895" lon="3.80431">
        <ele>627.671</ele>
        <time>2016-06-08T10:21:13Z</time>
      </trkpt>
      <trkpt lat="44.21931" lon="3.80398">
        <ele>622.282</ele>
        <time>2016-06-08T10:21:33Z</time>
      </trkpt>
      <trkpt lat="44.2195" lon="3.80364">
        <ele>618.688</ele>
        <time>2016-06-08T10:21:53Z</time>
      </trkpt>
      <trkpt lat="44.22" lon="3.80337">
        <ele>605.987</ele>
        <time>2016-06-08T10:22:13Z</time>
      </trkpt>
      <trkpt lat="44.21996" lon="3.80367">
        <ele>599.758</ele>
        <time>2016-06-08T10:22:33Z</time>
      </trkpt>
      <trkpt lat="44.22034" lon="3.80336">
        <ele>588.25</ele>
        <time>2016-06-08T10:22:53Z</time>
      </trkpt>
      <trkpt lat="44.22039" lon="3.80376">
        <ele>578.445</ele>
        <time>2016-06-08T10:23:13Z</time>
      </trkpt>
      <trkpt lat="44.22052" lon="3.80443">
        <ele>561.347</ele>
        <time>2016-06-08T10:23:33Z</time>
      </trkpt>
      <trkpt lat="44.22016" lon="3.80539">
        <ele>551.911</ele>
        <time>2016-06-08T10:23:53Z</time>
      </trkpt>
      <trkpt lat="44.22047" lon="3.80505">
        <ele>543.208</ele>
        <time>2016-06-08T10:24:13Z</time>
      </trkpt>
      <trkpt lat="44.2207" lon="3.80498">
        <ele>534.84</ele>
        <time>2016-06-08T10:24:33Z</time>
      </trkpt>
      <trkpt lat="44.22033" lon="3.80564">
        <ele>530.529</ele>
        <time>2016-06-08T10:24:53Z</time>
      </trkpt>
      <trkpt lat="44.2201" lon="3.8065">
        <ele>526.394</ele>
        <time>2016-06-08T10:25:13Z</time>
      </trkpt>
      <trkpt lat="44.22013" lon="3.80709">
        <ele>509.015</ele>
        <time>2016-06-08T10:25:33Z</time>
      </trkpt>
      <trkpt lat="44.21929" lon="3.8087">
        <ele>499.911</ele>
        <time>2016-06-08T10:25:53Z</time>
      </trkpt>
      <trkpt lat="44.21856" lon="3.80926">
        <ele>497.08</ele>
        <time>2016-06-08T10:26:13Z</time>
      </trkpt>
      <trkpt lat="44.21843" lon="3.80896">
        <ele>498.671</ele>
        <time>2016-06-08T10:26:33Z</time>
      </trkpt>
      <trkpt lat="44.2182" lon="3.80896">
        <ele>495.673</ele>
        <time>2016-06-08T10:26:53Z</time>
      </trkpt>
      <trkpt lat="44.21757" lon="3.8084">
        <ele>492.825</ele>
        <time>2016-06-08T10:27:13Z</time>
      </trkpt>
      <trkpt lat="44.21702" lon="3.80831">
        <ele>490.726</ele>
        <time>2016-06-08T10:27:33Z</time>
      </trkpt>
      <trkpt lat="44.21601" lon="3.80763">
        <ele>495.008</ele>
        <time>2016-06-08T10:27:53Z</time>
      </trkpt>
      <trkpt lat="44.21591" lon="3.80732">
        <ele>497.308</ele>
        <time>2016-06-08T10:28:13Z</time>
      </trkpt>
      <trkpt lat="44.21611" lon="3.80679">
        <ele>505.238</ele>
        <time>2016-06-08T10:28:33Z</time>
      </trkpt>
      <trkpt lat="44.2159" lon="3.80659">
        <ele>508.527</ele>
        <time>2016-06-08T10:28:53Z</time>
      </trkpt>
      <trkpt lat="44.21522" lon="3.80707">
        <ele>510.382</ele>
        <time>2016-06-08T10:29:13Z</time>
      </trkpt>
      <trkpt lat="44.21484" lon="3.807">
        <ele>516.793</ele>
        <time>2016-06-08T10:29:33Z</time>
      </trkpt>
      <trkpt lat="44.21428" lon="3.8073">
        <ele>517.229</ele>
        <time>2016-06-08T10:29:53Z</time>
      </trkpt>
      <trkpt lat="44.2139" lon="3.80794">
        <ele>508.098</ele>
        <time>2016-06-08T10:30:13Z</time>
      </trkpt>
      <trkpt lat="44.21344" lon="3.80787">
        <ele>523.269</ele>
        <time>2016-06-08T10:30:33Z</time>
      </trkpt>
      <trkpt lat="44.21241" lon="3.80776">
        <ele>531.951</ele>
        <time>2016-06-08T10:30:53Z</time>
      </trkpt>
      <trkpt lat="44.21179" lon="3.8075">
        <ele>541.679</ele>
        <time>2016-06-08T10:31:13Z</time>
      </trkpt>
      <trkpt lat="44.21148" lon="3.80762">
        <ele>545.105</ele>
        <time>2016-06-08T10:31:33Z</time>
      </trkpt>
      <trkpt lat="44.21128" lon="3.80794">
        <ele>546.725</ele>
        <time>2016-06-08T10:31:53Z</time>
      </trkpt>
      <trkpt lat="44.21117" lon="3.8084">
        <ele>548.408</ele>
        <time>2016-06-08T10:32:13Z</time>
      </trkpt>
      <trkpt lat="44.21059" lon="3.80904">
        <ele>557.883</ele>
        <time>2016-06-08T10:32:33Z</time>
      </trkpt>
      <trkpt lat="44.2098" lon="3.8092">
        <ele>564.952</ele>
        <time>2016-06-08T10:32:53Z</time>
      </trkpt>
      <trkpt lat="44.20926" lon="3.80862">
        <ele>563.587</ele>
        <time>2016-06-08T10:33:13Z</time>
      </trkpt>
      <trkpt lat="44.20896" lon="3.80866">
        <ele>561.648</ele>
        <time>2016-06-08T10:33:33Z</time>
      </trkpt>
      <trkpt lat="44.20838" lon="3.80934">
        <ele>559.394</ele>
        <time>2016-06-08T10:33:53Z</time>
      </trkpt>
      <trkpt lat="44.20782" lon="3.81038">
        <ele>552.073</ele>
        <time>2016-06-08T10:34:13Z</time>
      </trkpt>
      <trkpt lat="44.20721" lon="3.8121">
        <ele>547.164</ele>
        <time>2016-06-08T10:34:33Z</time>
      </trkpt>
      <trkpt lat="44.20715" lon="3.81277">
        <ele>538.746</ele>
        <time>2016-06-08T10:34:53Z</time>
      </trkpt>
      <trkpt lat="44.20692" lon="3.813">
        <ele>533.787</ele>
        <time>2016-06-08T10:35:13Z</time>
      </trkpt>
      <trkpt lat="44.20644" lon="3.81303">
        <ele>536.142</ele>
        <time>2016-06-08T10:35:33Z</time>
      </trkpt>
      <trkpt lat="44.20618" lon="3.81459">
        <ele>515.826</ele>
        <time>2016-06-08T10:35:53Z</time>
      </trkpt>
      <trkpt lat="44.20611" lon="3.81488">
        <ele>514.308</ele>
        <time>2016-06-08T10:36:13Z</time>
      </trkpt>
      <trkpt lat="44.20602" lon="3.81545">
        <ele>512.024</ele>
        <time>2016-06-08T10:36:33Z</time>
      </trkpt>
      <trkpt lat="44.20568" lon="3.81632">
        <ele>513.223</ele>
        <time>2016-06-08T10:36:53Z</time>
      </trkpt>
      <trkpt lat="44.20525" lon="3.81697">
        <ele>510.278</ele>
        <time>2016-06-08T10:37:13Z</time>
      </trkpt>
      <trkpt lat="44.20489" lon="3.81714">
        <ele>512.939</ele>
        <time>2016-06-08T10:37:33Z</time>
      </trkpt>
      <trkpt lat="44.20457" lon="3.81776">
        <ele>510.225</ele>
        <time>2016-06-08T10:37:53Z</time>
      </trkpt>
      <trkpt lat="44.20429" lon="3.81883">
        <ele>500.334</ele>
        <time>2016-06-08T10:38:13Z</time>
      </trkpt>
      <trkpt lat="44.20424" lon="3.81951">
        <ele>497.365</ele>
        <time>2016-06-08T10:38:33Z</time>
      </trkpt>
      <trkpt lat="44.20397" lon="3.82002">
        <ele>502.517</ele>
        <time>2016-06-08T10:38:53Z</time>
      </trkpt>
      <trkpt lat="44.20396" lon="3.82086">
        <ele>492.887</ele>
        <time>2016-06-08T10:39:13Z</time>
      </trkpt>
      <trkpt lat="44.20382" lon="3.82139">
        <ele>486.042</ele>
        <time>2016-06-08T10:39:33Z</time>
      </trkpt>
      <trkpt lat="44.20324" lon="3.82186">
        <ele>485.626</ele>
        <time>2016-06-08T10:39:53Z</time>
      </trkpt>
      <trkpt lat="44.20285" lon="3.82315">
        <ele>470.108</ele>
        <time>2016-06-08T10:40:13Z</time>
      </trkpt>
      <trkpt lat="44.20247" lon="3.82379">
        <ele>468.414</ele>
        <time>2016-06-08T10:40:33Z</time>
      </trkpt>
      <trkpt lat="44.20242" lon="3.82489">
        <ele>468.923</ele>
        <time>2016-06-08T10:40:53Z</time>
      </trkpt>
      <trkpt lat="44.20263" lon="3.82598">
        <ele>469.348</ele>
        <time>2016-06-08T10:41:13Z</time>
      </trkpt>
      <trkpt lat="44.20222" lon="3.82727">
        <ele>475.949</ele>
        <time>2016-06-08T10:41:33Z</time>
      </trkpt>
      <trkpt lat="44.20232" lon="3.8279">
        <ele>467.365</ele>
        <time>2016-06-08T10:41:53Z</time>
      </trkpt>
      <trkpt lat="44.20194" lon="3.82785">
        <ele>471.874</ele>
        <time>2021-01-05T12:02:54Z</time>
      </trkpt>
      <trkpt lat="44.2017" lon="3.82811">
        <ele>468.785</ele>
        <time>2021-01-05T12:03:14Z</time>
      </trkpt>
      <trkpt lat="44.20202" lon="3.82817">
        <ele>463.797</ele>
        <time>2016-06-08T10:43:13Z</time>
      </trkpt>
      <trkpt lat="44.20173" lon="3.82836">
        <ele>458.822</ele>
        <time>2016-06-08T10:43:33Z</time>
      </trkpt>
      <trkpt lat="44.20142" lon="3.82887">
        <ele>448.962</ele>
        <time>2016-06-08T10:43:53Z</time>
      </trkpt>
      <trkpt lat="44.20061" lon="3.82921">
        <ele>458.408</ele>
        <time>2016-06-08T10:44:13Z</time>
      </trkpt>
      <trkpt lat="44.20039" lon="3.8296">
        <ele>456.608</ele>
        <time>2016-06-08T10:44:33Z</time>
      </trkpt>
      <trkpt lat="44.20056" lon="3.83004">
        <ele>444.368</ele>
        <time>2016-06-08T10:44:53Z</time>
      </trkpt>
      <trkpt lat="44.20048" lon="3.83078">
        <ele>438.447</ele>
        <time>2016-06-08T10:45:13Z</time>
      </trkpt>
      <trkpt lat="44.19986" lon="3.83189">
        <ele>437.222</ele>
        <time>2016-06-08T10:45:33Z</time>
      </trkpt>
      <trkpt lat="44.19958" lon="3.83201">
        <ele>434.113</ele>
        <time>2016-06-08T10:45:53Z</time>
      </trkpt>
      <trkpt lat="44.19909" lon="3.8318">
        <ele>435.219</ele>
        <time>2016-06-08T10:46:13Z</time>
      </trkpt>
      <trkpt lat="44.19879" lon="3.83182">
        <ele>435.958</ele>
        <time>2016-06-08T10:46:33Z</time>
      </trkpt>
      <trkpt lat="44.19879" lon="3.83221">
        <ele>425.769</ele>
        <time>2016-06-08T10:46:53Z</time>
      </trkpt>
      <trkpt lat="44.19838" lon="3.83326">
        <ele>412.181</ele>
        <time>2016-06-08T10:47:13Z</time>
      </trkpt>
      <trkpt lat="44.19819" lon="3.83334">
        <ele>407.232</ele>
        <time>2016-06-08T10:47:33Z</time>
      </trkpt>
      <trkpt lat="44.19773" lon="3.83303">
        <ele>403.692</ele>
        <time>2016-06-08T10:47:53Z</time>
      </trkpt>
      <trkpt lat="44.19729" lon="3.83244">
        <ele>409.211</ele>
        <time>2016-06-08T10:48:13Z</time>
      </trkpt>
      <trkpt lat="44.19695" lon="3.83253">
        <ele>407.308</ele>
        <time>2016-06-08T10:48:33Z</time>
      </trkpt>
      <trkpt lat="44.19697" lon="3.83329">
        <ele>396.099</ele>
        <time>2016-06-08T10:48:53Z</time>
      </trkpt>
      <trkpt lat="44.19655" lon="3.83358">
        <ele>394.198</ele>
        <time>2016-06-08T10:49:13Z</time>
      </trkpt>
      <trkpt lat="44.19631" lon="3.83342">
        <ele>400.713</ele>
        <time>2016-06-08T10:49:33Z</time>
      </trkpt>
      <trkpt lat="44.19615" lon="3.83366">
        <ele>395.294</ele>
        <time>2016-06-08T10:49:53Z</time>
      </trkpt>
      <trkpt lat="44.19573" lon="3.83391">
        <ele>398.65</ele>
        <time>2016-06-08T10:50:13Z</time>
      </trkpt>
      <trkpt lat="44.19562" lon="3.83444">
        <ele>391.039</ele>
        <time>2016-06-08T10:50:33Z</time>
      </trkpt>
      <trkpt lat="44.19522" lon="3.83496">
        <ele>385.99</ele>
        <time>2016-06-08T10:50:53Z</time>
      </trkpt>
      <trkpt lat="44.19489" lon="3.83518">
        <ele>388.142</ele>
        <time>2016-06-08T10:51:13Z</time>
      </trkpt>
      <trkpt lat="44.19496" lon="3.83549">
        <ele>384.924</ele>
        <time>2016-06-08T10:51:33Z</time>
      </trkpt>
      <trkpt lat="44.1954" lon="3.83608">
        <ele>379.404</ele>
        <time>2016-06-08T10:51:53Z</time>
      </trkpt>
      <trkpt lat="44.1954" lon="3.83651">
        <ele>375.714</ele>
        <time>2016-06-08T10:52:13Z</time>
      </trkpt>
      <trkpt lat="44.19514" lon="3.83694">
        <ele>375.508</ele>
        <time>2016-06-08T10:52:33Z</time>
      </trkpt>
      <trkpt lat="44.19458" lon="3.8391">
        <ele>366.388</ele>
        <time>2016-06-08T10:52:53Z</time>
      </trkpt>
      <trkpt lat="44.19442" lon="3.83928">
        <ele>364.577</ele>
        <time>2016-06-08T10:53:13Z</time>
      </trkpt>
      <trkpt lat="44.19382" lon="3.83938">
        <ele>356.192</ele>
        <time>2016-06-08T10:53:33Z</time>
      </trkpt>
      <trkpt lat="44.19348" lon="3.83905">
        <ele>365.543</ele>
        <time>2016-06-08T10:53:53Z</time>
      </trkpt>
      <trkpt lat="44.19319" lon="3.83951">
        <ele>353.799</ele>
        <time>2016-06-08T10:54:13Z</time>
      </trkpt>
      <trkpt lat="44.19222" lon="3.83976">
        <ele>335.628</ele>
        <time>2016-06-08T10:54:33Z</time>
      </trkpt>
      <trkpt lat="44.19199" lon="3.83941">
        <ele>337.249</ele>
        <time>2016-06-08T10:54:53Z</time>
      </trkpt>
      <trkpt lat="44.19175" lon="3.83926">
        <ele>331.581</ele>
        <time>2016-06-08T10:55:13Z</time>
      </trkpt>
      <trkpt lat="44.19169" lon="3.8389">
        <ele>336.073</ele>
        <time>2016-06-08T10:55:33Z</time>
      </trkpt>
      <trkpt lat="44.19088" lon="3.83787">
        <ele>315.185</ele>
        <time>2016-06-08T10:55:53Z</time>
      </trkpt>
      <trkpt lat="44.19093" lon="3.83746">
        <ele>317.613</ele>
        <time>2016-06-08T10:56:13Z</time>
      </trkpt>
      <trkpt lat="44.19128" lon="3.83696">
        <ele>331.208</ele>
        <time>2021-01-05T12:16:54Z</time>
      </trkpt>
      <trkpt lat="44.19126" lon="3.83687">
        <ele>330.953</ele>
        <time>2021-01-05T12:17:14Z</time>
      </trkpt>
      <trkpt lat="44.19045" lon="3.83692">
        <ele>308.862</ele>
        <time>2016-06-08T10:56:53Z</time>
      </trkpt>
      <trkpt lat="44.18998" lon="3.83632">
        <ele>304.287</ele>
        <time>2016-06-08T10:57:13Z</time>
      </trkpt>
      <trkpt lat="44.18971" lon="3.83567">
        <ele>305.658</ele>
        <time>2016-06-08T10:57:33Z</time>
      </trkpt>
      <trkpt lat="44.18927" lon="3.83519">
        <ele>300.914</ele>
        <time>2016-06-08T10:57:53Z</time>
      </trkpt>
      <trkpt lat="44.18905" lon="3.83454">
        <ele>296.573</ele>
        <time>2016-06-08T10:58:13Z</time>
      </trkpt>
      <trkpt lat="44.18892" lon="3.83398">
        <ele>295.964</ele>
        <time>2016-06-08T10:58:33Z</time>
      </trkpt>
      <trkpt lat="44.18872" lon="3.83357">
        <ele>303.036</ele>
        <time>2021-01-05T12:19:34Z</time>
      </trkpt>
      <trkpt lat="44.18845" lon="3.83327">
        <ele>296.717</ele>
        <time>2016-06-08T10:58:53Z</time>
      </trkpt>
      <trkpt lat="44.18816" lon="3.83325">
        <ele>293.787</ele>
        <time>2021-01-05T12:20:14Z</time>
      </trkpt>
      <trkpt lat="44.18785" lon="3.83342">
        <ele>288.015</ele>
        <time>2016-06-08T10:59:13Z</time>
      </trkpt>
      <trkpt lat="44.18724" lon="3.83405">
        <ele>275.708</ele>
        <time>2016-06-08T10:59:33Z</time>
      </trkpt>
      <trkpt lat="44.18689" lon="3.83402">
        <ele>268.317</ele>
        <time>2021-01-05T12:21:14Z</time>
      </trkpt>
      <trkpt lat="44.18679" lon="3.83361">
        <ele>270.016</ele>
        <time>2016-06-08T11:00:13Z</time>
      </trkpt>
      <trkpt lat="44.18704" lon="3.8325">
        <ele>268.481</ele>
        <time>2016-06-08T11:00:33Z</time>
      </trkpt>
      <trkpt lat="44.18658" lon="3.83226">
        <ele>265.212</ele>
        <time>2016-06-08T11:00:53Z</time>
      </trkpt>
      <trkpt lat="44.18614" lon="3.83272">
        <ele>276.438</ele>
        <time>2016-06-08T11:01:13Z</time>
      </trkpt>
      <trkpt lat="44.1858" lon="3.83354">
        <ele>267.257</ele>
        <time>2016-06-08T11:01:33Z</time>
      </trkpt>
      <trkpt lat="44.18498" lon="3.83467">
        <ele>269.398</ele>
        <time>2016-06-08T11:01:53Z</time>
      </trkpt>
      <trkpt lat="44.18399" lon="3.83516">
        <ele>271.95</ele>
        <time>2016-06-08T11:02:13Z</time>
      </trkpt>
      <trkpt lat="44.18361" lon="3.83512">
        <ele>274.997</ele>
        <time>2016-06-08T11:02:33Z</time>
      </trkpt>
      <trkpt lat="44.18284" lon="3.83521">
        <ele>277.423</ele>
        <time>2019-03-26T07:32:31Z</time>
      </trkpt>
      <trkpt lat="44.18118" lon="3.83518">
        <ele>282.425</ele>
        <time>2016-06-08T11:02:53Z</time>
      </trkpt>
      <trkpt lat="44.18101" lon="3.83529">
        <ele>282.108</ele>
        <time>2016-06-08T11:03:13Z</time>
      </trkpt>
      <trkpt lat="44.18105" lon="3.83568">
        <ele>272.535</ele>
        <time>2016-06-08T11:03:33Z</time>
      </trkpt>
      <trkpt lat="44.18078" lon="3.83643">
        <ele>270.434</ele>
        <time>2016-06-08T11:03:53Z</time>
      </trkpt>
      <trkpt lat="44.18052" lon="3.83652">
        <ele>271.949</ele>
        <time>2016-06-08T11:04:13Z</time>
      </trkpt>
      <trkpt lat="44.17956" lon="3.83654">
        <ele>276.18</ele>
        <time>2016-06-08T11:04:33Z</time>
      </trkpt>
      <trkpt lat="44.17869" lon="3.83738">
        <ele>270.676</ele>
        <time>2016-06-08T11:04:53Z</time>
      </trkpt>
      <trkpt lat="44.17851" lon="3.83783">
        <ele>268.775</ele>
        <time>2016-06-08T11:05:13Z</time>
      </trkpt>
      <trkpt lat="44.17814" lon="3.83807">
        <ele>272.676</ele>
        <time>2016-06-08T11:05:33Z</time>
      </trkpt>
      <trkpt lat="44.17771" lon="3.8381">
        <ele>281.558</ele>
        <time>2016-06-08T11:05:53Z</time>
      </trkpt>
      <trkpt lat="44.17721" lon="3.83846">
        <ele>278.991</ele>
        <time>2016-06-08T11:06:13Z</time>
      </trkpt>
      <trkpt lat="44.17688" lon="3.83856">
        <ele>284.181</ele>
        <time>2016-06-08T11:06:33Z</time>
      </trkpt>
      <trkpt lat="44.17634" lon="3.83918">
        <ele>287.319</ele>
        <time>2016-06-08T11:06:53Z</time>
      </trkpt>
      <trkpt lat="44.17624" lon="3.83966">
        <ele>283.008</ele>
        <time>2016-06-08T11:07:13Z</time>
      </trkpt>
      <trkpt lat="44.17597" lon="3.84028">
        <ele>290.485</ele>
        <time>2016-06-08T11:07:33Z</time>
      </trkpt>
      <trkpt lat="44.1755" lon="3.8422">
        <ele>297.144</ele>
        <time>2016-06-08T11:07:53Z</time>
      </trkpt>
      <trkpt lat="44.17504" lon="3.84271">
        <ele>300.399</ele>
        <time>2016-06-08T11:08:13Z</time>
      </trkpt>
      <trkpt lat="44.17443" lon="3.84267">
        <ele>299.46</ele>
        <time>2016-06-08T11:08:33Z</time>
      </trkpt>
      <trkpt lat="44.1735" lon="3.84217">
        <ele>283.066</ele>
        <time>2016-06-08T11:08:53Z</time>
      </trkpt>
      <trkpt lat="44.17276" lon="3.84219">
        <ele>277.955</ele>
        <time>2016-06-08T11:09:13Z</time>
      </trkpt>
      <trkpt lat="44.17223" lon="3.84145">
        <ele>273.526</ele>
        <time>2016-06-08T11:09:33Z</time>
      </trkpt>
      <trkpt lat="44.17197" lon="3.84126">
        <ele>265.138</ele>
        <time>2016-06-08T11:09:53Z</time>
      </trkpt>
      <trkpt lat="44.17234" lon="3.84084">
        <ele>264.555</ele>
        <time>2016-06-08T11:10:13Z</time>
      </trkpt>
      <trkpt lat="44.17151" lon="3.83975">
        <ele>254.007</ele>
        <time>2016-06-08T11:10:33Z</time>
      </trkpt>
      <trkpt lat="44.17124" lon="3.8391">
        <ele>252.017</ele>
        <time>2016-06-08T11:10:53Z</time>
      </trkpt>
      <trkpt lat="44.17042" lon="3.83883">
        <ele>259.508</ele>
        <time>2016-06-08T11:11:13Z</time>
      </trkpt>
      <trkpt lat="44.16927" lon="3.8397">
        <ele>269.541</ele>
        <time>2016-06-08T11:11:33Z</time>
      </trkpt>
      <trkpt lat="44.16804" lon="3.84165">
        <ele>262.41</ele>
        <time>2016-06-08T11:11:53Z</time>
      </trkpt>
      <trkpt lat="44.16776" lon="3.8422">
        <ele>259.435</ele>
        <time>2016-06-08T11:12:13Z</time>
      </trkpt>
      <trkpt lat="44.16748" lon="3.84232">
        <ele>260.266</ele>
        <time>2016-06-08T11:12:33Z</time>
      </trkpt>
      <trkpt lat="44.16326" lon="3.84199">
        <ele>254.432</ele>
        <time>2016-06-08T11:12:53Z</time>
      </trkpt>
      <trkpt lat="44.16333" lon="3.84149">
        <ele>252.891</ele>
        <time>2016-06-08T11:13:13Z</time>
      </trkpt>
      <trkpt lat="44.16324" lon="3.84112">
        <ele>257.122</ele>
        <time>2016-06-08T11:13:33Z</time>
      </trkpt>
      <trkpt lat="44.16311" lon="3.84166">
        <ele>260.934</ele>
        <time>2016-06-08T11:13:53Z</time>
      </trkpt>
      <trkpt lat="44.1628" lon="3.84233">
        <ele>274.462</ele>
        <time>2016-06-08T11:14:13Z</time>
      </trkpt>
      <trkpt lat="44.16284" lon="3.8419">
        <ele>273.383</ele>
        <time>2016-06-08T11:14:33Z</time>
      </trkpt>
      <trkpt lat="44.16269" lon="3.84108">
        <ele>278.011</ele>
        <time>2016-06-08T11:14:53Z</time>
      </trkpt>
      <trkpt lat="44.16175" lon="3.8411">
        <ele>299.908</ele>
        <time>2016-06-08T11:15:13Z</time>
      </trkpt>
      <trkpt lat="44.1605" lon="3.84126">
        <ele>284.952</ele>
        <time>2016-06-08T11:15:33Z</time>
      </trkpt>
      <trkpt lat="44.15987" lon="3.84168">
        <ele>272.431</ele>
        <time>2016-06-08T11:15:53Z</time>
      </trkpt>
      <trkpt lat="44.15949" lon="3.84153">
        <ele>260.936</ele>
        <time>2016-06-08T11:16:13Z</time>
      </trkpt>
      <trkpt lat="44.1592" lon="3.84117">
        <ele>254.427</ele>
        <time>2016-06-08T11:16:33Z</time>
      </trkpt>
      <trkpt lat="44.15872" lon="3.84111">
        <ele>241.593</ele>
        <time>2016-06-08T11:16:53Z</time>
      </trkpt>
      <trkpt lat="44.15852" lon="3.8407">
        <ele>237.732</ele>
        <time>2016-06-08T11:17:13Z</time>
      </trkpt>
      <trkpt lat="44.15812" lon="3.84049">
        <ele>236.643</ele>
        <time>2016-06-08T11:17:33Z</time>
      </trkpt>
      <trkpt lat="44.15684" lon="3.84063">
        <ele>234.585</ele>
        <time>2016-06-08T11:17:53Z</time>
      </trkpt>
      <trkpt lat="44.15678" lon="3.84121">
        <ele>234.525</ele>
        <time>2016-06-08T11:18:13Z</time>
      </trkpt>
      <trkpt lat="44.15655" lon="3.84132">
        <ele>239.326</ele>
        <time>2016-06-08T11:18:33Z</time>
      </trkpt>
      <trkpt lat="44.15675" lon="3.84147">
        <ele>238.908</ele>
        <time>2016-06-08T11:18:53Z</time>
      </trkpt>
      <trkpt lat="44.15671" lon="3.84176">
        <ele>246.408</ele>
        <time>2021-01-05T12:40:54Z</time>
      </trkpt>
      <trkpt lat="44.15676" lon="3.84218">
        <ele>253.998</ele>
        <time>2019-03-26T07:49:11Z</time>
      </trkpt>
      <trkpt lat="44.15685" lon="3.84266">
        <ele>261.557</ele>
        <time>2021-01-05T12:41:34Z</time>
      </trkpt>
      <trkpt lat="44.15656" lon="3.84233">
        <ele>265.482</ele>
        <time>2019-03-26T07:49:51Z</time>
      </trkpt>
      <trkpt lat="44.1563" lon="3.8419">
        <ele>261.933</ele>
        <time>2021-01-05T12:42:14Z</time>
      </trkpt>
      <trkpt lat="44.15625" lon="3.84195">
        <ele>265.299</ele>
        <time>2021-01-05T12:42:34Z</time>
      </trkpt>
      <trkpt lat="44.15636" lon="3.84221">
        <ele>268.328</ele>
        <time>2021-01-05T12:42:54Z</time>
      </trkpt>
      <trkpt lat="44.15636" lon="3.84254">
        <ele>278.129</ele>
        <time>2019-03-26T07:51:11Z</time>
      </trkpt>
      <trkpt lat="44.15609" lon="3.842">
        <ele>271.721</ele>
        <time>2019-03-26T07:51:31Z</time>
      </trkpt>
      <trkpt lat="44.15586" lon="3.84194">
        <ele>277.052</ele>
        <time>2019-03-26T07:51:51Z</time>
      </trkpt>
      <trkpt lat="44.15538" lon="3.84166">
        <ele>287.053</ele>
        <time>2019-03-26T07:52:11Z</time>
      </trkpt>
      <trkpt lat="44.15532" lon="3.84153">
        <ele>285.808</ele>
        <time>2019-03-26T07:52:31Z</time>
      </trkpt>
      <trkpt lat="44.15457" lon="3.841">
        <ele>296.708</ele>
        <time>2019-03-26T07:52:51Z</time>
      </trkpt>
      <trkpt lat="44.15454" lon="3.8406">
        <ele>289.241</ele>
        <time>2019-03-26T07:53:11Z</time>
      </trkpt>
      <trkpt lat="44.1541" lon="3.84023">
        <ele>305.92</ele>
        <time>2019-03-26T07:53:31Z</time>
      </trkpt>
      <trkpt lat="44.15414" lon="3.83974">
        <ele>300.475</ele>
        <time>2019-03-26T07:53:51Z</time>
      </trkpt>
      <trkpt lat="44.1541" lon="3.83945">
        <ele>299.136</ele>
        <time>2019-03-26T07:54:11Z</time>
      </trkpt>
      <trkpt lat="44.15392" lon="3.83936">
        <ele>306.122</ele>
        <time>2019-03-26T07:54:31Z</time>
      </trkpt>
      <trkpt lat="44.15398" lon="3.83903">
        <ele>301.551</ele>
        <time>2019-03-26T07:54:51Z</time>
      </trkpt>
      <trkpt lat="44.15397" lon="3.83834">
        <ele>301.892</ele>
        <time>2019-03-26T07:55:11Z</time>
      </trkpt>
      <trkpt lat="44.15376" lon="3.8384">
        <ele>304.334</ele>
        <time>2019-03-26T07:55:31Z</time>
      </trkpt>
      <trkpt lat="44.15342" lon="3.83853">
        <ele>309.015</ele>
        <time>2019-03-26T07:55:51Z</time>
      </trkpt>
      <trkpt lat="44.153" lon="3.8389">
        <ele>320.265</ele>
        <time>2019-03-26T07:56:11Z</time>
      </trkpt>
      <trkpt lat="44.15263" lon="3.83889">
        <ele>328.511</ele>
        <time>2019-03-26T07:56:31Z</time>
      </trkpt>
      <trkpt lat="44.15233" lon="3.83871">
        <ele>335.008</ele>
        <time>2019-03-26T07:56:51Z</time>
      </trkpt>
      <trkpt lat="44.1523" lon="3.83879">
        <ele>338.047</ele>
        <time>2019-03-26T07:57:11Z</time>
      </trkpt>
      <trkpt lat="44.15265" lon="3.83919">
        <ele>338.216</ele>
        <time>2019-03-26T07:57:31Z</time>
      </trkpt>
      <trkpt lat="44.15297" lon="3.83931">
        <ele>331.961</ele>
        <time>2019-03-26T07:57:51Z</time>
      </trkpt>
      <trkpt lat="44.15307" lon="3.83979">
        <ele>338.682</ele>
        <time>2019-03-26T07:58:11Z</time>
      </trkpt>
      <trkpt lat="44.15285" lon="3.83954">
        <ele>340.858</ele>
        <time>2019-03-26T07:58:31Z</time>
      </trkpt>
      <trkpt lat="44.15176" lon="3.83924">
        <ele>369.187</ele>
        <time>2019-03-26T07:58:51Z</time>
      </trkpt>
      <trkpt lat="44.15172" lon="3.83922">
        <ele>370.258</ele>
        <time>2016-06-08T11:23:33Z</time>
      </trkpt>
      <trkpt lat="44.15093" lon="3.83858">
        <ele>380.42</ele>
        <time>2016-06-08T11:23:53Z</time>
      </trkpt>
      <trkpt lat="44.15004" lon="3.83826">
        <ele>397.662</ele>
        <time>2016-06-08T11:24:13Z</time>
      </trkpt>
      <trkpt lat="44.14959" lon="3.83795">
        <ele>408.883</ele>
        <time>2016-06-08T11:24:33Z</time>
      </trkpt>
      <trkpt lat="44.14817" lon="3.8373">
        <ele>433.011</ele>
        <time>2016-06-08T11:24:53Z</time>
      </trkpt>
      <trkpt lat="44.14767" lon="3.83747">
        <ele>449.208</ele>
        <time>2016-06-08T11:25:13Z</time>
      </trkpt>
      <trkpt lat="44.14646" lon="3.83657">
        <ele>468.242</ele>
        <time>2016-06-08T11:25:33Z</time>
      </trkpt>
      <trkpt lat="44.14571" lon="3.83516">
        <ele>484.681</ele>
        <time>2016-06-08T11:25:53Z</time>
      </trkpt>
      <trkpt lat="44.14557" lon="3.83512">
        <ele>488.476</ele>
        <time>2016-06-08T11:26:13Z</time>
      </trkpt>
      <trkpt lat="44.14485" lon="3.83396">
        <ele>500.297</ele>
        <time>2016-06-08T11:26:33Z</time>
      </trkpt>
      <trkpt lat="44.14483" lon="3.83413">
        <ele>505.323</ele>
        <time>2016-06-08T11:26:53Z</time>
      </trkpt>
      <trkpt lat="44.14491" lon="3.83458">
        <ele>510.292</ele>
        <time>2016-06-08T11:27:13Z</time>
      </trkpt>
      <trkpt lat="44.14487" lon="3.83541">
        <ele>511.993</ele>
        <time>2016-06-08T11:27:33Z</time>
      </trkpt>
      <trkpt lat="44.14467" lon="3.83548">
        <ele>512.945</ele>
        <time>2016-06-08T11:27:53Z</time>
      </trkpt>
      <trkpt lat="44.14423" lon="3.835">
        <ele>524.041</ele>
        <time>2016-06-08T11:28:13Z</time>
      </trkpt>
      <trkpt lat="44.14364" lon="3.83508">
        <ele>517.381</ele>
        <time>2016-06-08T11:28:33Z</time>
      </trkpt>
      <trkpt lat="44.14338" lon="3.83496">
        <ele>516.609</ele>
        <time>2016-06-08T11:28:53Z</time>
      </trkpt>
      <trkpt lat="44.14308" lon="3.83454">
        <ele>528.208</ele>
        <time>2016-06-08T11:29:13Z</time>
      </trkpt>
      <trkpt lat="44.14281" lon="3.83451">
        <ele>529.26</ele>
        <time>2021-02-03T05:15:52Z</time>
      </trkpt>
      <trkpt lat="44.14272" lon="3.83467">
        <ele>521.519</ele>
        <time>2021-02-03T05:16:12Z</time>
      </trkpt>
      <trkpt lat="44.14233" lon="3.83439">
        <ele>535.194</ele>
        <time>2021-02-03T05:16:32Z</time>
      </trkpt>
      <trkpt lat="44.14216" lon="3.83449">
        <ele>533.345</ele>
        <time>2021-02-03T05:16:52Z</time>
      </trkpt>
      <trkpt lat="44.1416" lon="3.83502">
        <ele>519.621</ele>
        <time>2021-02-03T05:17:12Z</time>
      </trkpt>
      <trkpt lat="44.14123" lon="3.83519">
        <ele>515.63</ele>
        <time>2021-02-03T05:17:32Z</time>
      </trkpt>
      <trkpt lat="44.1406" lon="3.83506">
        <ele>526.111</ele>
        <time>2021-02-03T05:17:52Z</time>
      </trkpt>
      <trkpt lat="44.13997" lon="3.83519">
        <ele>523.613</ele>
        <time>2021-02-03T05:18:12Z</time>
      </trkpt>
      <trkpt lat="44.13976" lon="3.83508">
        <ele>529.078</ele>
        <time>2021-02-03T05:18:32Z</time>
      </trkpt>
      <trkpt lat="44.13926" lon="3.8351">
        <ele>528.533</ele>
        <time>2021-02-03T05:18:52Z</time>
      </trkpt>
      <trkpt lat="44.13906" lon="3.83472">
        <ele>546.626</ele>
        <time>2021-02-03T05:19:12Z</time>
      </trkpt>
      <trkpt lat="44.13848" lon="3.83506">
        <ele>535.308</ele>
        <time>2021-02-03T05:19:32Z</time>
      </trkpt>
      <trkpt lat="44.13775" lon="3.83471">
        <ele>559.163</ele>
        <time>2021-02-03T05:19:52Z</time>
      </trkpt>
      <trkpt lat="44.13733" lon="3.83513">
        <ele>555.832</ele>
        <time>2021-02-03T05:20:12Z</time>
      </trkpt>
      <trkpt lat="44.13717" lon="3.83546">
        <ele>556.227</ele>
        <time>2021-02-03T05:20:32Z</time>
      </trkpt>
      <trkpt lat="44.13705" lon="3.83558">
        <ele>558.758</ele>
        <time>2021-02-03T05:20:52Z</time>
      </trkpt>
      <trkpt lat="44.13684" lon="3.83617">
        <ele>560.044</ele>
        <time>2021-02-03T05:21:12Z</time>
      </trkpt>
      <trkpt lat="44.13636" lon="3.83836">
        <ele>572.193</ele>
        <time>2021-02-03T05:21:32Z</time>
      </trkpt>
      <trkpt lat="44.13662" lon="3.83916">
        <ele>574.014</ele>
        <time>2021-02-03T05:21:52Z</time>
      </trkpt>
      <trkpt lat="44.13638" lon="3.83896">
        <ele>577.876</ele>
        <time>2021-02-03T05:22:12Z</time>
      </trkpt>
      <trkpt lat="44.13566" lon="3.83851">
        <ele>591.285</ele>
        <time>2021-02-03T05:22:32Z</time>
      </trkpt>
      <trkpt lat="44.13577" lon="3.83744">
        <ele>591.389</ele>
        <time>2021-02-03T05:22:52Z</time>
      </trkpt>
      <trkpt lat="44.13572" lon="3.83718">
        <ele>592.317</ele>
        <time>2021-02-03T05:23:12Z</time>
      </trkpt>
      <trkpt lat="44.13562" lon="3.83768">
        <ele>593.508</ele>
        <time>2021-02-03T05:23:32Z</time>
      </trkpt>
      <trkpt lat="44.13513" lon="3.83869">
        <ele>601.384</ele>
        <time>2016-06-08T11:34:13Z</time>
      </trkpt>
      <trkpt lat="44.13501" lon="3.83967">
        <ele>591.863</ele>
        <time>2016-06-08T11:34:33Z</time>
      </trkpt>
      <trkpt lat="44.13482" lon="3.8399">
        <ele>586.258</ele>
        <time>2016-06-08T11:34:53Z</time>
      </trkpt>
      <trkpt lat="44.13475" lon="3.83981">
        <ele>584.319</ele>
        <time>2016-06-08T11:35:13Z</time>
      </trkpt>
      <trkpt lat="44.13409" lon="3.84105">
        <ele>549.155</ele>
        <time>2016-06-08T11:35:33Z</time>
      </trkpt>
      <trkpt lat="44.13389" lon="3.84058">
        <ele>544.614</ele>
        <time>2016-06-08T11:35:53Z</time>
      </trkpt>
      <trkpt lat="44.13375" lon="3.84055">
        <ele>542.365</ele>
        <time>2016-06-08T11:36:13Z</time>
      </trkpt>
      <trkpt lat="44.13359" lon="3.84045">
        <ele>543.367</ele>
        <time>2016-06-08T11:36:33Z</time>
      </trkpt>
      <trkpt lat="44.13287" lon="3.84135">
        <ele>524.633</ele>
        <time>2016-06-08T11:36:53Z</time>
      </trkpt>
      <trkpt lat="44.13256" lon="3.84147">
        <ele>524.723</ele>
        <time>2016-06-08T11:37:13Z</time>
      </trkpt>
      <trkpt lat="44.13124" lon="3.84322">
        <ele>498.915</ele>
        <time>2016-06-08T11:37:33Z</time>
      </trkpt>
      <trkpt lat="44.1309" lon="3.84346">
        <ele>489.508</ele>
        <time>2016-06-08T11:37:53Z</time>
      </trkpt>
      <trkpt lat="44.13064" lon="3.84427">
        <ele>477.259</ele>
        <time>2016-06-08T11:38:13Z</time>
      </trkpt>
      <trkpt lat="44.1302" lon="3.84502">
        <ele>470.418</ele>
        <time>2016-06-08T11:38:33Z</time>
      </trkpt>
      <trkpt lat="44.13" lon="3.84554">
        <ele>463.713</ele>
        <time>2016-06-08T11:38:53Z</time>
      </trkpt>
      <trkpt lat="44.12897" lon="3.84638">
        <ele>461.514</ele>
        <time>2016-06-08T11:39:13Z</time>
      </trkpt>
      <trkpt lat="44.12745" lon="3.84708">
        <ele>456.44</ele>
        <time>2016-06-08T11:39:33Z</time>
      </trkpt>
      <trkpt lat="44.12645" lon="3.84718">
        <ele>443.159</ele>
        <time>2016-06-08T11:39:53Z</time>
      </trkpt>
      <trkpt lat="44.12553" lon="3.84771">
        <ele>425.99</ele>
        <time>2016-06-08T11:40:13Z</time>
      </trkpt>
      <trkpt lat="44.12471" lon="3.84791">
        <ele>417.282</ele>
        <time>2016-06-08T11:40:33Z</time>
      </trkpt>
      <trkpt lat="44.12307" lon="3.84774">
        <ele>393.714</ele>
        <time>2016-06-08T11:40:53Z</time>
      </trkpt>
      <trkpt lat="44.12231" lon="3.84791">
        <ele>389.054</ele>
        <time>2016-06-08T11:41:13Z</time>
      </trkpt>
      <trkpt lat="44.12207" lon="3.84785">
        <ele>386.409</ele>
        <time>2016-06-08T11:41:33Z</time>
      </trkpt>
      <trkpt lat="44.1217" lon="3.84805">
        <ele>381.708</ele>
        <time>2016-06-08T11:41:53Z</time>
      </trkpt>
      <trkpt lat="44.12094" lon="3.84812">
        <ele>370.717</ele>
        <time>2016-06-08T11:42:13Z</time>
      </trkpt>
      <trkpt lat="44.12015" lon="3.84862">
        <ele>361.976</ele>
        <time>2016-06-08T11:42:33Z</time>
      </trkpt>
      <trkpt lat="44.1189" lon="3.84918">
        <ele>334.931</ele>
        <time>2016-06-08T11:42:53Z</time>
      </trkpt>
      <trkpt lat="44.11899" lon="3.84844">
        <ele>332.962</ele>
        <time>2016-06-08T11:43:13Z</time>
      </trkpt>
      <trkpt lat="44.11956" lon="3.8469">
        <ele>318.478</ele>
        <time>2016-06-08T11:43:33Z</time>
      </trkpt>
      <trkpt lat="44.12031" lon="3.84543">
        <ele>302.537</ele>
        <time>2016-06-08T11:43:53Z</time>
      </trkpt>
      <trkpt lat="44.12139" lon="3.84505">
        <ele>291.258</ele>
        <time>2016-06-08T11:44:13Z</time>
      </trkpt>
      <trkpt lat="44.12024" lon="3.84475">
        <ele>273.75</ele>
        <time>2016-06-08T11:44:33Z</time>
      </trkpt>
      <trkpt lat="44.11922" lon="3.84545">
        <ele>263.133</ele>
        <time>2016-06-08T11:44:53Z</time>
      </trkpt>
      <trkpt lat="44.1191" lon="3.84588">
        <ele>267.123</ele>
        <time>2016-06-08T11:45:13Z</time>
      </trkpt>
      <trkpt lat="44.11856" lon="3.84623">
        <ele>253.815</ele>
        <time>2016-06-08T11:45:33Z</time>
      </trkpt>
      <trkpt lat="44.11817" lon="3.84698">
        <ele>253.908</ele>
        <time>2016-06-08T11:45:53Z</time>
      </trkpt>
      <trkpt lat="44.11744" lon="3.84752">
        <ele>240.879</ele>
        <time>2016-06-08T11:46:13Z</time>
      </trkpt>
      <trkpt lat="44.11722" lon="3.84783">
        <ele>239.928</ele>
        <time>2016-06-08T11:46:33Z</time>
      </trkpt>
      <trkpt lat="44.11646" lon="3.84845">
        <ele>226.053</ele>
        <time>2016-06-08T11:46:53Z</time>
      </trkpt>
      <trkpt lat="44.11559" lon="3.84955">
        <ele>212.754</ele>
        <time>2016-06-08T11:47:13Z</time>
      </trkpt>
      <trkpt lat="44.11546" lon="3.85037">
        <ele>211.54</ele>
        <time>2016-06-08T11:47:33Z</time>
      </trkpt>
      <trkpt lat="44.11514" lon="3.85099">
        <ele>207.829</ele>
        <time>2016-06-08T11:47:53Z</time>
      </trkpt>
      <trkpt lat="44.11506" lon="3.85188">
        <ele>212.57</ele>
        <time>2016-06-08T11:48:13Z</time>
      </trkpt>
      <trkpt lat="44.11472" lon="3.85328">
        <ele>206.872</ele>
        <time>2016-06-08T11:48:33Z</time>
      </trkpt>
      <trkpt lat="44.11407" lon="3.85438">
        <ele>205.864</ele>
        <time>2016-06-08T11:48:53Z</time>
      </trkpt>
      <trkpt lat="44.11368" lon="3.85573">
        <ele>210.106</ele>
        <time>2016-06-08T11:49:13Z</time>
      </trkpt>
      <trkpt lat="44.11274" lon="3.85765">
        <ele>209.116</ele>
        <time>2016-06-08T11:49:33Z</time>
      </trkpt>
      <trkpt lat="44.11237" lon="3.86066">
        <ele>209.908</ele>
        <time>2016-06-08T11:49:53Z</time>
      </trkpt>
      <trkpt lat="44.112" lon="3.86192">
        <ele>206.282</ele>
        <time>2016-06-08T11:50:13Z</time>
      </trkpt>
      <trkpt lat="44.11224" lon="3.86297">
        <ele>204.511</ele>
        <time>2016-06-08T11:50:33Z</time>
      </trkpt>
      <trkpt lat="44.11302" lon="3.86487">
        <ele>202.726</ele>
        <time>2016-06-08T11:50:53Z</time>
      </trkpt>
      <trkpt lat="44.11382" lon="3.86766">
        <ele>195.317</ele>
        <time>2019-03-26T08:26:51Z</time>
      </trkpt>
      <trkpt lat="44.1141" lon="3.86964">
        <ele>192.493</ele>
        <time>2019-03-26T08:27:11Z</time>
      </trkpt>
      <trkpt lat="44.11394" lon="3.87174">
        <ele>199.842</ele>
        <time>2019-03-26T08:27:31Z</time>
      </trkpt>
      <trkpt lat="44.11331" lon="3.87262">
        <ele>198.383</ele>
        <time>2019-03-26T08:27:51Z</time>
      </trkpt>
      <trkpt lat="44.11237" lon="3.87326">
        <ele>197.245</ele>
        <time>2016-06-08T11:52:53Z</time>
      </trkpt>
      <trkpt lat="44.11207" lon="3.87183">
        <ele>194.918</ele>
        <time>2016-06-08T11:53:13Z</time>
      </trkpt>
      <trkpt lat="44.11157" lon="3.87205">
        <ele>199.998</ele>
        <time>2016-06-08T11:53:33Z</time>
      </trkpt>
      <trkpt lat="44.11069" lon="3.87184">
        <ele>199.817</ele>
        <time>2016-06-08T11:53:53Z</time>
      </trkpt>
      <trkpt lat="44.11002" lon="3.87183">
        <ele>203.208</ele>
        <time>2016-06-08T11:54:13Z</time>
      </trkpt>
      <trkpt lat="44.10975" lon="3.87224">
        <ele>195.367</ele>
        <time>2016-06-08T11:54:33Z</time>
      </trkpt>
      <trkpt lat="44.10905" lon="3.87215">
        <ele>204.366</ele>
        <time>2016-06-08T11:54:53Z</time>
      </trkpt>
      <trkpt lat="44.10777" lon="3.87285">
        <ele>209.881</ele>
        <time>2016-06-08T11:55:13Z</time>
      </trkpt>
      <trkpt lat="44.10707" lon="3.8735">
        <ele>212.042</ele>
        <time>2016-06-08T11:55:33Z</time>
      </trkpt>
      <trkpt lat="44.10657" lon="3.87454">
        <ele>210.148</ele>
        <time>2016-06-08T11:55:53Z</time>
      </trkpt>
      <trkpt lat="44.10619" lon="3.87579">
        <ele>198.377</ele>
        <time>2016-06-08T11:56:13Z</time>
      </trkpt>
      <trkpt lat="44.10573" lon="3.87704">
        <ele>197.298</ele>
        <time>2016-06-08T11:56:33Z</time>
      </trkpt>
      <trkpt lat="44.10503" lon="3.87828">
        <ele>189.64</ele>
        <time>2016-06-08T11:56:53Z</time>
      </trkpt>
      <trkpt lat="44.10512" lon="3.87862">
        <ele>185.788</ele>
        <time>2016-06-08T11:57:13Z</time>
      </trkpt>
      <trkpt lat="44.10436" lon="3.88037">
        <ele>186.524</ele>
        <time>2016-06-08T11:57:33Z</time>
      </trkpt>
      <trkpt lat="44.10387" lon="3.87997">
        <ele>196.026</ele>
        <time>2016-06-08T11:57:53Z</time>
      </trkpt>
      <trkpt lat="44.10242" lon="3.88321">
        <ele>189.308</ele>
        <time>2016-06-08T11:58:13Z</time>
      </trkpt>
      <trkpt lat="44.10534" lon="3.88478">
        <ele>194.484</ele>
        <time>2016-06-08T11:58:33Z</time>
      </trkpt>
      <trkpt lat="44.1063" lon="3.88563">
        <ele>193.413</ele>
        <time>2016-06-08T11:58:53Z</time>
      </trkpt>
      <trkpt lat="44.10677" lon="3.88646">
        <ele>198.918</ele>
        <time>2016-06-08T11:59:13Z</time>
      </trkpt>
      <trkpt lat="44.10721" lon="3.88761">
        <ele>198.189</ele>
        <time>2016-06-08T11:59:33Z</time>
      </trkpt>
      <trkpt lat="44.1075" lon="3.88783">
        <ele>198.875</ele>
        <time>2016-06-08T11:59:53Z</time>
      </trkpt>
      <trkpt lat="44.10769" lon="3.88786">
        <ele>199.984</ele>
        <time>2016-06-08T12:00:13Z</time>
      </trkpt>
      <trkpt lat="44.10793" lon="3.88883">
        <ele>203.695</ele>
        <time>2016-06-08T12:00:33Z</time>
      </trkpt>
      <trkpt lat="44.10802" lon="3.89014">
        <ele>214.787</ele>
        <time>2016-06-08T12:00:53Z</time>
      </trkpt>
      <trkpt lat="44.10848" lon="3.89141">
        <ele>227.887</ele>
        <time>2016-06-08T12:01:13Z</time>
      </trkpt>
      <trkpt lat="44.10856" lon="3.89188">
        <ele>233.242</ele>
        <time>2016-06-08T12:01:33Z</time>
      </trkpt>
      <trkpt lat="44.10875" lon="3.89225">
        <ele>232.726</ele>
        <time>2016-06-08T12:01:53Z</time>
      </trkpt>
      <trkpt lat="44.10872" lon="3.89269">
        <ele>237.108</ele>
        <time>2016-06-08T12:02:13Z</time>
      </trkpt>
      <trkpt lat="44.10861" lon="3.89302">
        <ele>240.964</ele>
        <time>2016-06-08T12:02:33Z</time>
      </trkpt>
      <trkpt lat="44.10884" lon="3.89383">
        <ele>243.323</ele>
        <time>2016-06-08T12:02:53Z</time>
      </trkpt>
      <trkpt lat="44.10895" lon="3.89491">
        <ele>251.348</ele>
        <time>2016-06-08T12:03:13Z</time>
      </trkpt>
      <trkpt lat="44.10952" lon="3.8961">
        <ele>260.889</ele>
        <time>2016-06-08T12:03:33Z</time>
      </trkpt>
      <trkpt lat="44.10966" lon="3.89652">
        <ele>263.995</ele>
        <time>2016-06-08T12:03:53Z</time>
      </trkpt>
      <trkpt lat="44.1101" lon="3.8972">
        <ele>272.524</ele>
        <time>2016-06-08T12:04:13Z</time>
      </trkpt>
      <trkpt lat="44.11036" lon="3.89698">
        <ele>269.055</ele>
        <time>2016-06-08T12:04:33Z</time>
      </trkpt>
      <trkpt lat="44.11058" lon="3.89696">
        <ele>271.627</ele>
        <time>2016-06-08T12:04:53Z</time>
      </trkpt>
      <trkpt lat="44.11106" lon="3.89742">
        <ele>285.192</ele>
        <time>2016-06-08T12:05:13Z</time>
      </trkpt>
      <trkpt lat="44.11057" lon="3.89739">
        <ele>282.873</ele>
        <time>2016-06-08T12:05:33Z</time>
      </trkpt>
      <trkpt lat="44.11085" lon="3.89758">
        <ele>289.32</ele>
        <time>2016-06-08T12:05:53Z</time>
      </trkpt>
      <trkpt lat="44.11112" lon="3.8978">
        <ele>296.608</ele>
        <time>2016-06-08T12:06:13Z</time>
      </trkpt>
      <trkpt lat="44.11137" lon="3.89773">
        <ele>296.885</ele>
        <time>2016-06-08T12:06:33Z</time>
      </trkpt>
      <trkpt lat="44.1117" lon="3.89779">
        <ele>299.124</ele>
        <time>2016-06-08T12:06:53Z</time>
      </trkpt>
      <trkpt lat="44.1118" lon="3.89799">
        <ele>301.449</ele>
        <time>2016-06-08T12:07:13Z</time>
      </trkpt>
      <trkpt lat="44.11176" lon="3.89839">
        <ele>309.69</ele>
        <time>2016-06-08T12:07:33Z</time>
      </trkpt>
      <trkpt lat="44.11274" lon="3.89883">
        <ele>305.116</ele>
        <time>2016-06-08T12:07:53Z</time>
      </trkpt>
      <trkpt lat="44.11314" lon="3.89961">
        <ele>311.575</ele>
        <time>2016-06-08T12:08:13Z</time>
      </trkpt>
      <trkpt lat="44.11343" lon="3.8996">
        <ele>307.876</ele>
        <time>2016-06-08T12:08:33Z</time>
      </trkpt>
      <trkpt lat="44.11358" lon="3.89972">
        <ele>308.228</ele>
        <time>2016-06-08T12:08:53Z</time>
      </trkpt>
      <trkpt lat="44.11318" lon="3.90077">
        <ele>318.245</ele>
        <time>2016-06-08T12:09:13Z</time>
      </trkpt>
      <trkpt lat="44.11361" lon="3.90117">
        <ele>303.747</ele>
        <time>2016-06-08T12:09:33Z</time>
      </trkpt>
      <trkpt lat="44.1139" lon="3.90168">
        <ele>309.311</ele>
        <time>2016-06-08T12:09:53Z</time>
      </trkpt>
      <trkpt lat="44.11437" lon="3.9015">
        <ele>300.908</ele>
        <time>2016-06-08T12:10:13Z</time>
      </trkpt>
      <trkpt lat="44.11477" lon="3.9019">
        <ele>307.15</ele>
        <time>2016-06-08T12:10:33Z</time>
      </trkpt>
      <trkpt lat="44.11518" lon="3.90266">
        <ele>305.829</ele>
        <time>2016-06-08T12:10:53Z</time>
      </trkpt>
      <trkpt lat="44.11539" lon="3.90364">
        <ele>305.354</ele>
        <time>2016-06-08T12:11:13Z</time>
      </trkpt>
      <trkpt lat="44.11498" lon="3.9045">
        <ele>317.995</ele>
        <time>2016-06-08T12:11:33Z</time>
      </trkpt>
      <trkpt lat="44.11529" lon="3.90584">
        <ele>315.491</ele>
        <time>2016-06-08T12:11:53Z</time>
      </trkpt>
      <trkpt lat="44.11502" lon="3.90634">
        <ele>332.21</ele>
        <time>2016-06-08T12:12:13Z</time>
      </trkpt>
      <trkpt lat="44.11545" lon="3.90744">
        <ele>328.771</ele>
        <time>2021-01-05T13:39:54Z</time>
      </trkpt>
      <trkpt lat="44.11553" lon="3.90798">
        <ele>334.043</ele>
        <time>2021-01-05T13:40:14Z</time>
      </trkpt>
      <trkpt lat="44.11578" lon="3.90841">
        <ele>331.757</ele>
        <time>2021-01-05T13:40:34Z</time>
      </trkpt>
      <trkpt lat="44.11595" lon="3.90901">
        <ele>336.6</ele>
        <time>2021-01-05T13:40:54Z</time>
      </trkpt>
      <trkpt lat="44.11611" lon="3.90944">
        <ele>333.72</ele>
        <time>2021-01-05T13:41:14Z</time>
      </trkpt>
      <trkpt lat="44.11608" lon="3.90983">
        <ele>335.508</ele>
        <time>2021-01-05T13:41:34Z</time>
      </trkpt>
      <trkpt lat="44.11585" lon="3.91042">
        <ele>345.181</ele>
        <time>2021-01-05T13:41:54Z</time>
      </trkpt>
      <trkpt lat="44.11589" lon="3.91129">
        <ele>344.21</ele>
        <time>2021-01-05T13:42:14Z</time>
      </trkpt>
      <trkpt lat="44.11583" lon="3.91162">
        <ele>348.125</ele>
        <time>2021-01-05T13:42:34Z</time>
      </trkpt>
      <trkpt lat="44.11623" lon="3.91241">
        <ele>339.136</ele>
        <time>2021-01-05T13:42:54Z</time>
      </trkpt>
      <trkpt lat="44.11653" lon="3.91359">
        <ele>337.072</ele>
        <time>2021-01-05T13:43:14Z</time>
      </trkpt>
      <trkpt lat="44.1167" lon="3.91464">
        <ele>330.961</ele>
        <time>2021-01-05T13:43:34Z</time>
      </trkpt>
      <trkpt lat="44.11713" lon="3.91598">
        <ele>322.972</ele>
        <time>2021-01-05T13:43:54Z</time>
      </trkpt>
      <trkpt lat="44.11784" lon="3.91732">
        <ele>308.544</ele>
        <time>2021-01-05T13:44:14Z</time>
      </trkpt>
      <trkpt lat="44.11765" lon="3.91814">
        <ele>312.479</ele>
        <time>2021-01-05T13:44:34Z</time>
      </trkpt>
      <trkpt lat="44.11759" lon="3.9187">
        <ele>307.305</ele>
        <time>2021-01-05T13:44:54Z</time>
      </trkpt>
      <trkpt lat="44.11742" lon="3.9191">
        <ele>311.625</ele>
        <time>2021-01-05T13:45:14Z</time>
      </trkpt>
      <trkpt lat="44.11738" lon="3.91941">
        <ele>310.508</ele>
        <time>2021-01-05T13:45:34Z</time>
      </trkpt>
      <trkpt lat="44.11744" lon="3.91967">
        <ele>302.643</ele>
        <time>2021-01-05T13:45:54Z</time>
      </trkpt>
      <trkpt lat="44.11737" lon="3.91999">
        <ele>305.042</ele>
        <time>2021-01-05T13:46:14Z</time>
      </trkpt>
      <trkpt lat="44.11744" lon="3.92138">
        <ele>286.637</ele>
        <time>2021-01-05T13:46:34Z</time>
      </trkpt>
      <trkpt lat="44.11719" lon="3.92222">
        <ele>279.968</ele>
        <time>2021-01-05T13:46:54Z</time>
      </trkpt>
      <trkpt lat="44.11689" lon="3.92267">
        <ele>283.194</ele>
        <time>2021-01-05T13:47:14Z</time>
      </trkpt>
      <trkpt lat="44.11668" lon="3.92285">
        <ele>290.043</ele>
        <time>2021-01-05T13:47:34Z</time>
      </trkpt>
      <trkpt lat="44.11633" lon="3.92335">
        <ele>296.474</ele>
        <time>2021-01-05T13:47:54Z</time>
      </trkpt>
      <trkpt lat="44.11658" lon="3.92468">
        <ele>249.386</ele>
        <time>2021-01-05T13:48:14Z</time>
      </trkpt>
      <trkpt lat="44.11628" lon="3.92544">
        <ele>253.861</ele>
        <time>2021-01-05T13:48:34Z</time>
      </trkpt>
      <trkpt lat="44.11585" lon="3.92628">
        <ele>266.921</ele>
        <time>2021-01-05T13:48:54Z</time>
      </trkpt>
      <trkpt lat="44.11614" lon="3.92685">
        <ele>240.913</ele>
        <time>2021-01-05T13:49:14Z</time>
      </trkpt>
      <trkpt lat="44.11609" lon="3.92766">
        <ele>248.108</ele>
        <time>2021-01-05T13:49:34Z</time>
      </trkpt>
      <trkpt lat="44.11618" lon="3.9282">
        <ele>241.692</ele>
        <time>2021-01-05T13:49:54Z</time>
      </trkpt>
      <trkpt lat="44.11615" lon="3.92875">
        <ele>243.081</ele>
        <time>2021-01-05T13:50:14Z</time>
      </trkpt>
      <trkpt lat="44.11628" lon="3.92915">
        <ele>231.336</ele>
        <time>2021-01-05T13:50:34Z</time>
      </trkpt>
      <trkpt lat="44.11633" lon="3.93104">
        <ele>223.297</ele>
        <time>2021-01-05T13:50:54Z</time>
      </trkpt>
      <trkpt lat="44.11625" lon="3.93231">
        <ele>212.313</ele>
        <time>2021-01-05T13:51:14Z</time>
      </trkpt>
      <trkpt lat="44.11589" lon="3.93302">
        <ele>211.852</ele>
        <time>2021-01-05T13:51:34Z</time>
      </trkpt>
      <trkpt lat="44.11545" lon="3.93299">
        <ele>222.973</ele>
        <time>2021-01-05T13:51:54Z</time>
      </trkpt>
      <trkpt lat="44.11539" lon="3.93316">
        <ele>221.385</ele>
        <time>2021-01-05T13:52:14Z</time>
      </trkpt>
      <trkpt lat="44.11541" lon="3.934">
        <ele>212.057</ele>
        <time>2021-01-05T13:52:34Z</time>
      </trkpt>
      <trkpt lat="44.11437" lon="3.93581">
        <ele>200.1</ele>
        <time>2021-01-05T13:52:54Z</time>
      </trkpt>
      <trkpt lat="44.11334" lon="3.93665">
        <ele>187.52</ele>
        <time>2021-01-05T13:53:14Z</time>
      </trkpt>
      <trkpt lat="44.1131" lon="3.93724">
        <ele>178.208</ele>
        <time>2021-01-05T13:53:34Z</time>
      </trkpt>
      <trkpt lat="44.11249" lon="3.93771">
        <ele>173.321</ele>
        <time>2021-01-05T13:53:54Z</time>
      </trkpt>
      <trkpt lat="44.11177" lon="3.93817">
        <ele>167.17</ele>
        <time>2021-01-05T13:54:14Z</time>
      </trkpt>
      <trkpt lat="44.11172" lon="3.93956">
        <ele>172.895</ele>
        <time>2021-01-05T13:54:34Z</time>
      </trkpt>
      <trkpt lat="44.1114" lon="3.94008">
        <ele>176.716</ele>
        <time>2021-01-05T13:54:54Z</time>
      </trkpt>
      <trkpt lat="44.11132" lon="3.94087">
        <ele>180.472</ele>
        <time>2021-01-05T13:55:14Z</time>
      </trkpt>
      <trkpt lat="44.1115" lon="3.94092">
        <ele>183.981</ele>
        <time>2021-01-05T13:55:34Z</time>
      </trkpt>
      <trkpt lat="44.11163" lon="3.94142">
        <ele>187.872</ele>
        <time>2021-01-05T13:55:54Z</time>
      </trkpt>
      <trkpt lat="44.11151" lon="3.94226">
        <ele>189.564</ele>
        <time>2021-01-05T13:56:14Z</time>
      </trkpt>
      <trkpt lat="44.11138" lon="3.94259">
        <ele>188.642</ele>
        <time>2021-01-05T13:56:34Z</time>
      </trkpt>
      <trkpt lat="44.11118" lon="3.94273">
        <ele>184.722</ele>
        <time>2021-01-05T13:56:54Z</time>
      </trkpt>
      <trkpt lat="44.11118" lon="3.94343">
        <ele>185.014</ele>
        <time>2021-01-05T13:57:14Z</time>
      </trkpt>
      <trkpt lat="44.11102" lon="3.94373">
        <ele>182.408</ele>
        <time>2021-01-05T13:57:34Z</time>
      </trkpt>
      <trkpt lat="44.11098" lon="3.94444">
        <ele>184.39</ele>
        <time>2021-01-05T13:57:54Z</time>
      </trkpt>
      <trkpt lat="44.11075" lon="3.94547">
        <ele>183.049</ele>
        <time>2021-01-05T13:58:14Z</time>
      </trkpt>
      <trkpt lat="44.11028" lon="3.947">
        <ele>179.714</ele>
        <time>2021-01-05T13:58:34Z</time>
      </trkpt>
      <trkpt lat="44.1103" lon="3.94772">
        <ele>178.425</ele>
        <time>2021-01-05T13:58:54Z</time>
      </trkpt>
      <trkpt lat="44.11045" lon="3.94824">
        <ele>176.221</ele>
        <time>2021-01-05T13:59:14Z</time>
      </trkpt>
      <trkpt lat="44.11102" lon="3.94892">
        <ele>177.18</ele>
        <time>2021-01-05T13:59:34Z</time>
      </trkpt>
      <trkpt lat="44.11198" lon="3.94981">
        <ele>181.941</ele>
        <time>2021-01-05T13:59:54Z</time>
      </trkpt>
      <trkpt lat="44.11232" lon="3.94993">
        <ele>181.453</ele>
        <time>2021-01-05T14:00:14Z</time>
      </trkpt>
      <trkpt lat="44.11227" lon="3.95028">
        <ele>185.725</ele>
        <time>2021-01-05T14:00:34Z</time>
      </trkpt>
      <trkpt lat="44.11321" lon="3.9511">
        <ele>193.426</ele>
        <time>2021-01-05T14:00:54Z</time>
      </trkpt>
      <trkpt lat="44.1134" lon="3.95139">
        <ele>198.908</ele>
        <time>2021-01-05T14:01:14Z</time>
      </trkpt>
      <trkpt lat="44.11372" lon="3.95214">
        <ele>206.908</ele>
        <time>2021-01-05T14:01:34Z</time>
      </trkpt>
      <trkpt lat="44.11324" lon="3.95174">
        <ele>212.538</ele>
        <time>2021-01-05T14:01:54Z</time>
      </trkpt>
      <trkpt lat="44.1135" lon="3.95224">
        <ele>217.167</ele>
        <time>2021-01-05T14:02:14Z</time>
      </trkpt>
      <trkpt lat="44.11323" lon="3.95203">
        <ele>220.932</ele>
        <time>2021-01-05T14:02:34Z</time>
      </trkpt>
      <trkpt lat="44.11339" lon="3.95244">
        <ele>226.423</ele>
        <time>2021-01-05T14:02:54Z</time>
      </trkpt>
      <trkpt lat="44.11309" lon="3.95478">
        <ele>269.879</ele>
        <time>2021-01-05T14:03:14Z</time>
      </trkpt>
      <trkpt lat="44.1129" lon="3.95585">
        <ele>282.368</ele>
        <time>2021-01-05T14:03:34Z</time>
      </trkpt>
      <trkpt lat="44.11273" lon="3.95607">
        <ele>289.019</ele>
        <time>2021-01-05T14:03:54Z</time>
      </trkpt>
      <trkpt lat="44.11253" lon="3.95625">
        <ele>294.491</ele>
        <time>2021-01-05T14:04:14Z</time>
      </trkpt>
      <trkpt lat="44.11245" lon="3.95689">
        <ele>301.582</ele>
        <time>2021-01-05T14:04:34Z</time>
      </trkpt>
      <trkpt lat="44.11293" lon="3.95691">
        <ele>295.843</ele>
        <time>2021-01-05T14:04:54Z</time>
      </trkpt>
      <trkpt lat="44.11327" lon="3.95725">
        <ele>300.517</ele>
        <time>2021-01-05T14:05:14Z</time>
      </trkpt>
      <trkpt lat="44.11351" lon="3.95811">
        <ele>324.108</ele>
        <time>2021-01-05T14:05:34Z</time>
      </trkpt>
      <trkpt lat="44.11369" lon="3.95814">
        <ele>327.414</ele>
        <time>2021-01-05T14:05:54Z</time>
      </trkpt>
      <trkpt lat="44.11407" lon="3.95745">
        <ele>320.443</ele>
        <time>2021-01-05T14:06:14Z</time>
      </trkpt>
      <trkpt lat="44.11451" lon="3.95612">
        <ele>317.228</ele>
        <time>2021-01-05T14:06:34Z</time>
      </trkpt>
      <trkpt lat="44.11485" lon="3.95582">
        <ele>322.899</ele>
        <time>2021-01-05T14:06:54Z</time>
      </trkpt>
      <trkpt lat="44.1151" lon="3.95574">
        <ele>323.695</ele>
        <time>2021-01-05T14:07:14Z</time>
      </trkpt>
      <trkpt lat="44.11535" lon="3.95615">
        <ele>331.194</ele>
        <time>2021-01-05T14:07:34Z</time>
      </trkpt>
      <trkpt lat="44.11583" lon="3.95668">
        <ele>342.455</ele>
        <time>2021-01-05T14:07:54Z</time>
      </trkpt>
      <trkpt lat="44.11596" lon="3.95716">
        <ele>345.037</ele>
        <time>2021-01-05T14:08:14Z</time>
      </trkpt>
      <trkpt lat="44.11615" lon="3.95817">
        <ele>354.028</ele>
        <time>2021-01-05T14:08:34Z</time>
      </trkpt>
      <trkpt lat="44.11685" lon="3.95986">
        <ele>370.289</ele>
        <time>2021-01-05T14:08:54Z</time>
      </trkpt>
      <trkpt lat="44.11707" lon="3.96007">
        <ele>375.517</ele>
        <time>2021-01-05T14:09:14Z</time>
      </trkpt>
      <trkpt lat="44.11811" lon="3.95933">
        <ele>361.908</ele>
        <time>2021-01-05T14:09:34Z</time>
      </trkpt>
      <trkpt lat="44.11842" lon="3.95946">
        <ele>368.798</ele>
        <time>2021-01-05T14:09:54Z</time>
      </trkpt>
      <trkpt lat="44.11928" lon="3.96002">
        <ele>381.737</ele>
        <time>2021-01-05T14:10:14Z</time>
      </trkpt>
      <trkpt lat="44.11999" lon="3.96021">
        <ele>389.482</ele>
        <time>2021-01-05T14:10:34Z</time>
      </trkpt>
      <trkpt lat="44.12111" lon="3.96035">
        <ele>405.563</ele>
        <time>2021-01-05T14:10:54Z</time>
      </trkpt>
      <trkpt lat="44.12208" lon="3.96007">
        <ele>415.539</ele>
        <time>2021-01-05T14:11:14Z</time>
      </trkpt>
      <trkpt lat="44.1212" lon="3.96112">
        <ele>423.138</ele>
        <time>2021-01-05T14:11:34Z</time>
      </trkpt>
      <trkpt lat="44.12118" lon="3.96123">
        <ele>423.259</ele>
        <time>2021-01-05T14:11:54Z</time>
      </trkpt>
      <trkpt lat="44.12196" lon="3.96079">
        <ele>434.081</ele>
        <time>2021-01-05T14:12:14Z</time>
      </trkpt>
      <trkpt lat="44.12269" lon="3.96057">
        <ele>437.326</ele>
        <time>2021-01-05T14:12:34Z</time>
      </trkpt>
      <trkpt lat="44.12303" lon="3.9607">
        <ele>440.947</ele>
        <time>2021-01-05T14:12:54Z</time>
      </trkpt>
      <trkpt lat="44.12347" lon="3.96142">
        <ele>448.211</ele>
        <time>2021-01-05T14:13:14Z</time>
      </trkpt>
      <trkpt lat="44.12423" lon="3.96212">
        <ele>446.008</ele>
        <time>2021-01-05T14:13:34Z</time>
      </trkpt>
      <trkpt lat="44.12473" lon="3.96235">
        <ele>442.228</ele>
        <time>2021-01-05T14:13:54Z</time>
      </trkpt>
      <trkpt lat="44.12533" lon="3.96251">
        <ele>436.847</ele>
        <time>2021-01-05T14:14:14Z</time>
      </trkpt>
      <trkpt lat="44.12605" lon="3.96282">
        <ele>428.552</ele>
        <time>2021-01-05T14:14:34Z</time>
      </trkpt>
      <trkpt lat="44.1268" lon="3.96283">
        <ele>425.923</ele>
        <time>2021-01-05T14:14:54Z</time>
      </trkpt>
      <trkpt lat="44.12768" lon="3.96294">
        <ele>426.819</ele>
        <time>2021-01-05T14:15:14Z</time>
      </trkpt>
      <trkpt lat="44.12814" lon="3.96285">
        <ele>424.458</ele>
        <time>2021-01-05T14:15:34Z</time>
      </trkpt>
      <trkpt lat="44.1288" lon="3.96261">
        <ele>423.849</ele>
        <time>2021-01-05T14:15:54Z</time>
      </trkpt>
      <trkpt lat="44.1294" lon="3.96258">
        <ele>429.781</ele>
        <time>2021-01-05T14:16:14Z</time>
      </trkpt>
      <trkpt lat="44.12964" lon="3.96277">
        <ele>435.781</ele>
        <time>2021-01-05T14:16:34Z</time>
      </trkpt>
      <trkpt lat="44.12972" lon="3.96351">
        <ele>442.561</ele>
        <time>2021-01-05T14:16:54Z</time>
      </trkpt>
      <trkpt lat="44.12983" lon="3.96403">
        <ele>444.717</ele>
        <time>2021-01-05T14:17:14Z</time>
      </trkpt>
      <trkpt lat="44.12984" lon="3.96465">
        <ele>442.508</ele>
        <time>2021-01-05T14:17:34Z</time>
      </trkpt>
      <trkpt lat="44.13" lon="3.96495">
        <ele>445.314</ele>
        <time>2021-01-05T14:17:54Z</time>
      </trkpt>
      <trkpt lat="44.13025" lon="3.96492">
        <ele>445.943</ele>
        <time>2021-01-05T14:18:14Z</time>
      </trkpt>
      <trkpt lat="44.13039" lon="3.96446">
        <ele>452.868</ele>
        <time>2021-01-05T14:18:34Z</time>
      </trkpt>
      <trkpt lat="44.13054" lon="3.96352">
        <ele>462.529</ele>
        <time>2021-01-05T14:18:54Z</time>
      </trkpt>
      <trkpt lat="44.13068" lon="3.96331">
        <ele>465.985</ele>
        <time>2021-01-05T14:19:14Z</time>
      </trkpt>
      <trkpt lat="44.13092" lon="3.96362">
        <ele>469.294</ele>
        <time>2021-01-05T14:19:34Z</time>
      </trkpt>
      <trkpt lat="44.13119" lon="3.96355">
        <ele>473.155</ele>
        <time>2021-01-05T14:19:54Z</time>
      </trkpt>
      <trkpt lat="44.13194" lon="3.96319">
        <ele>485.517</ele>
        <time>2021-01-05T14:20:14Z</time>
      </trkpt>
      <trkpt lat="44.13246" lon="3.96317">
        <ele>497.733</ele>
        <time>2021-01-05T14:20:34Z</time>
      </trkpt>
      <trkpt lat="44.13301" lon="3.96332">
        <ele>513.023</ele>
        <time>2021-01-05T14:20:54Z</time>
      </trkpt>
      <trkpt lat="44.13359" lon="3.96362">
        <ele>519.415</ele>
        <time>2021-01-05T14:21:14Z</time>
      </trkpt>
      <trkpt lat="44.13428" lon="3.96369">
        <ele>528.008</ele>
        <time>2021-01-05T14:21:34Z</time>
      </trkpt>
      <trkpt lat="44.13478" lon="3.964">
        <ele>529.429</ele>
        <time>2021-01-05T14:21:54Z</time>
      </trkpt>
      <trkpt lat="44.13503" lon="3.96409">
        <ele>533.298</ele>
        <time>2021-01-05T14:22:14Z</time>
      </trkpt>
      <trkpt lat="44.13587" lon="3.96478">
        <ele>545.643</ele>
        <time>2021-01-05T14:22:34Z</time>
      </trkpt>
      <trkpt lat="44.1362" lon="3.9649">
        <ele>548.684</ele>
        <time>2021-01-05T14:22:54Z</time>
      </trkpt>
      <trkpt lat="44.13663" lon="3.96533">
        <ele>557.11</ele>
        <time>2021-01-05T14:23:14Z</time>
      </trkpt>
      <trkpt lat="44.13693" lon="3.96596">
        <ele>559.319</ele>
        <time>2021-01-05T14:23:34Z</time>
      </trkpt>
      <trkpt lat="44.13732" lon="3.96701">
        <ele>571.88</ele>
        <time>2021-01-05T14:23:54Z</time>
      </trkpt>
      <trkpt lat="44.13788" lon="3.96741">
        <ele>579.112</ele>
        <time>2021-01-05T14:24:14Z</time>
      </trkpt>
      <trkpt lat="44.13863" lon="3.96731">
        <ele>578.652</ele>
        <time>2021-01-05T14:24:34Z</time>
      </trkpt>
      <trkpt lat="44.13901" lon="3.96707">
        <ele>581.253</ele>
        <time>2021-01-05T14:24:54Z</time>
      </trkpt>
      <trkpt lat="44.13961" lon="3.96686">
        <ele>586.608</ele>
        <time>2021-01-05T14:25:14Z</time>
      </trkpt>
      <trkpt lat="44.14012" lon="3.96619">
        <ele>600.508</ele>
        <time>2021-01-05T14:25:34Z</time>
      </trkpt>
      <trkpt lat="44.14056" lon="3.96607">
        <ele>607.591</ele>
        <time>2021-01-05T14:25:54Z</time>
      </trkpt>
      <trkpt lat="44.14117" lon="3.96612">
        <ele>615.67</ele>
        <time>2021-01-05T14:26:14Z</time>
      </trkpt>
      <trkpt lat="44.14167" lon="3.96642">
        <ele>619.145</ele>
        <time>2021-01-05T14:26:34Z</time>
      </trkpt>
      <trkpt lat="44.14193" lon="3.9669">
        <ele>617.836</ele>
        <time>2021-01-05T14:26:54Z</time>
      </trkpt>
      <trkpt lat="44.1424" lon="3.96737">
        <ele>623.242</ele>
        <time>2021-01-05T14:27:14Z</time>
      </trkpt>
      <trkpt lat="44.14252" lon="3.96773">
        <ele>623.921</ele>
        <time>2021-01-05T14:27:34Z</time>
      </trkpt>
      <trkpt lat="44.1421" lon="3.96879">
        <ele>615.342</ele>
        <time>2021-01-05T14:27:54Z</time>
      </trkpt>
      <trkpt lat="44.14186" lon="3.96983">
        <ele>611.164</ele>
        <time>2021-01-05T14:28:14Z</time>
      </trkpt>
      <trkpt lat="44.14166" lon="3.97035">
        <ele>611.087</ele>
        <time>2021-01-05T14:28:34Z</time>
      </trkpt>
      <trkpt lat="44.14163" lon="3.97064">
        <ele>610.442</ele>
        <time>2021-01-05T14:28:54Z</time>
      </trkpt>
      <trkpt lat="44.14181" lon="3.97122">
        <ele>607.826</ele>
        <time>2021-01-05T14:29:14Z</time>
      </trkpt>
      <trkpt lat="44.14181" lon="3.97162">
        <ele>613.108</ele>
        <time>2016-06-08T13:04:53Z</time>
      </trkpt>
      <trkpt lat="44.14218" lon="3.97356">
        <ele>616.974</ele>
        <time>2016-06-08T13:05:13Z</time>
      </trkpt>
      <trkpt lat="44.14215" lon="3.97514">
        <ele>618.123</ele>
        <time>2016-06-08T13:05:33Z</time>
      </trkpt>
      <trkpt lat="44.14218" lon="3.97581">
        <ele>629.538</ele>
        <time>2016-06-08T13:05:53Z</time>
      </trkpt>
      <trkpt lat="44.14152" lon="3.97811">
        <ele>647.169</ele>
        <time>2016-06-08T13:06:13Z</time>
      </trkpt>
      <trkpt lat="44.14153" lon="3.97904">
        <ele>637.335</ele>
        <time>2016-06-08T13:06:33Z</time>
      </trkpt>
      <trkpt lat="44.14192" lon="3.97976">
        <ele>622.584</ele>
        <time>2016-06-08T13:06:53Z</time>
      </trkpt>
      <trkpt lat="44.1421" lon="3.98072">
        <ele>599.365</ele>
        <time>2016-06-08T13:07:13Z</time>
      </trkpt>
      <trkpt lat="44.14217" lon="3.98187">
        <ele>573.157</ele>
        <time>2016-06-08T13:07:33Z</time>
      </trkpt>
      <trkpt lat="44.14203" lon="3.98272">
        <ele>562.289</ele>
        <time>2016-06-08T13:07:53Z</time>
      </trkpt>
      <trkpt lat="44.14195" lon="3.98503">
        <ele>543.806</ele>
        <time>2016-06-08T13:08:13Z</time>
      </trkpt>
      <trkpt lat="44.14195" lon="3.98638">
        <ele>538.626</ele>
        <time>2016-06-08T13:08:33Z</time>
      </trkpt>
      <trkpt lat="44.14131" lon="3.98882">
        <ele>523.308</ele>
        <time>2016-06-08T13:08:53Z</time>
      </trkpt>
      <trkpt lat="44.14057" lon="3.9909">
        <ele>497.214</ele>
        <time>2016-06-08T13:09:13Z</time>
      </trkpt>
      <trkpt lat="44.13988" lon="3.99216">
        <ele>489.923</ele>
        <time>2016-06-08T13:09:33Z</time>
      </trkpt>
      <trkpt lat="44.13879" lon="3.99372">
        <ele>507.648</ele>
        <time>2016-06-08T13:09:53Z</time>
      </trkpt>
      <trkpt lat="44.13838" lon="3.99534">
        <ele>517.529</ele>
        <time>2016-06-08T13:10:13Z</time>
      </trkpt>
      <trkpt lat="44.13813" lon="3.99562">
        <ele>518.855</ele>
        <time>2016-06-08T13:10:33Z</time>
      </trkpt>
      <trkpt lat="44.13802" lon="3.99593">
        <ele>523.964</ele>
        <time>2016-06-08T13:10:53Z</time>
      </trkpt>
      <trkpt lat="44.13773" lon="3.99632">
        <ele>527.665</ele>
        <time>2016-06-08T13:11:13Z</time>
      </trkpt>
      <trkpt lat="44.13782" lon="3.9989">
        <ele>526.727</ele>
        <time>2016-06-08T13:11:33Z</time>
      </trkpt>
      <trkpt lat="44.13744" lon="4.00133">
        <ele>539.026</ele>
        <time>2016-06-08T13:11:53Z</time>
      </trkpt>
      <trkpt lat="44.13686" lon="4.00248">
        <ele>538.147</ele>
        <time>2016-06-08T13:12:13Z</time>
      </trkpt>
      <trkpt lat="44.13676" lon="4.00325">
        <ele>516.511</ele>
        <time>2016-06-08T13:12:33Z</time>
      </trkpt>
      <trkpt lat="44.13599" lon="4.00531">
        <ele>477.108</ele>
        <time>2016-06-08T13:12:53Z</time>
      </trkpt>
      <trkpt lat="44.13601" lon="4.00642">
        <ele>479.698</ele>
        <time>2016-06-08T13:13:13Z</time>
      </trkpt>
      <trkpt lat="44.13606" lon="4.00695">
        <ele>468.477</ele>
        <time>2016-06-08T13:13:33Z</time>
      </trkpt>
      <trkpt lat="44.13583" lon="4.00767">
        <ele>473.442</ele>
        <time>2016-06-08T13:13:53Z</time>
      </trkpt>
      <trkpt lat="44.13529" lon="4.00836">
        <ele>467.653</ele>
        <time>2016-06-08T13:14:13Z</time>
      </trkpt>
      <trkpt lat="44.13532" lon="4.00888">
        <ele>464.679</ele>
        <time>2016-06-08T13:14:33Z</time>
      </trkpt>
      <trkpt lat="44.13524" lon="4.00891">
        <ele>464.718</ele>
        <time>2016-06-08T13:14:53Z</time>
      </trkpt>
      <trkpt lat="44.13531" lon="4.00952">
        <ele>472.869</ele>
        <time>2016-06-08T13:15:13Z</time>
      </trkpt>
      <trkpt lat="44.13553" lon="4.01002">
        <ele>477.841</ele>
        <time>2016-06-08T13:15:33Z</time>
      </trkpt>
      <trkpt lat="44.13569" lon="4.01055">
        <ele>486.696</ele>
        <time>2016-06-08T13:15:53Z</time>
      </trkpt>
      <trkpt lat="44.13602" lon="4.01108">
        <ele>487.131</ele>
        <time>2016-06-08T13:16:13Z</time>
      </trkpt>
      <trkpt lat="44.13602" lon="4.01148">
        <ele>492.524</ele>
        <time>2016-06-08T13:16:33Z</time>
      </trkpt>
      <trkpt lat="44.1358" lon="4.01192">
        <ele>503.308</ele>
        <time>2016-06-08T13:16:53Z</time>
      </trkpt>
      <trkpt lat="44.13572" lon="4.01222">
        <ele>504.015</ele>
        <time>2016-06-08T13:17:13Z</time>
      </trkpt>
      <trkpt lat="44.13538" lon="4.01237">
        <ele>510.024</ele>
        <time>2016-06-08T13:17:33Z</time>
      </trkpt>
      <trkpt lat="44.13473" lon="4.01337">
        <ele>520.239</ele>
        <time>2016-06-08T13:17:53Z</time>
      </trkpt>
      <trkpt lat="44.13436" lon="4.01381">
        <ele>528.14</ele>
        <time>2016-06-08T13:18:13Z</time>
      </trkpt>
      <trkpt lat="44.13407" lon="4.01388">
        <ele>527.176</ele>
        <time>2016-06-08T13:18:33Z</time>
      </trkpt>
      <trkpt lat="44.13346" lon="4.01442">
        <ele>526.145</ele>
        <time>2016-06-08T13:18:53Z</time>
      </trkpt>
      <trkpt lat="44.13385" lon="4.01494">
        <ele>534.586</ele>
        <time>2016-06-08T13:19:13Z</time>
      </trkpt>
      <trkpt lat="44.13444" lon="4.0155">
        <ele>535.948</ele>
        <time>2016-06-08T13:19:33Z</time>
      </trkpt>
      <trkpt lat="44.13465" lon="4.01719">
        <ele>519.356</ele>
        <time>2016-06-08T13:19:53Z</time>
      </trkpt>
      <trkpt lat="44.13436" lon="4.01821">
        <ele>529.959</ele>
        <time>2016-06-08T13:20:13Z</time>
      </trkpt>
      <trkpt lat="44.13434" lon="4.01923">
        <ele>532.714</ele>
        <time>2016-06-08T13:20:33Z</time>
      </trkpt>
      <trkpt lat="44.13399" lon="4.02051">
        <ele>543.808</ele>
        <time>2016-06-08T13:20:53Z</time>
      </trkpt>
      <trkpt lat="44.13355" lon="4.0209">
        <ele>553.541</ele>
        <time>2019-03-26T09:59:11Z</time>
      </trkpt>
      <trkpt lat="44.13344" lon="4.0212">
        <ele>556.21</ele>
        <time>2019-03-26T09:59:31Z</time>
      </trkpt>
      <trkpt lat="44.13356" lon="4.02146">
        <ele>557.895</ele>
        <time>2019-03-26T09:59:51Z</time>
      </trkpt>
      <trkpt lat="44.13327" lon="4.02203">
        <ele>555.666</ele>
        <time>2016-06-08T13:21:33Z</time>
      </trkpt>
      <trkpt lat="44.13335" lon="4.02227">
        <ele>553.452</ele>
        <time>2016-06-08T13:21:53Z</time>
      </trkpt>
      <trkpt lat="44.13385" lon="4.02276">
        <ele>553.091</ele>
        <time>2016-06-08T13:22:13Z</time>
      </trkpt>
      <trkpt lat="44.13434" lon="4.02396">
        <ele>546.272</ele>
        <time>2019-03-26T10:01:11Z</time>
      </trkpt>
      <trkpt lat="44.13422" lon="4.02475">
        <ele>529.024</ele>
        <time>2019-03-26T10:01:31Z</time>
      </trkpt>
      <trkpt lat="44.13445" lon="4.02537">
        <ele>520.761</ele>
        <time>2019-03-26T10:01:51Z</time>
      </trkpt>
      <trkpt lat="44.13451" lon="4.02606">
        <ele>512.621</ele>
        <time>2019-03-26T10:02:11Z</time>
      </trkpt>
      <trkpt lat="44.13442" lon="4.02733">
        <ele>504.213</ele>
        <time>2019-03-26T10:02:31Z</time>
      </trkpt>
      <trkpt lat="44.13463" lon="4.0285">
        <ele>501.408</ele>
        <time>2019-03-26T10:02:51Z</time>
      </trkpt>
      <trkpt lat="44.13469" lon="4.02948">
        <ele>495.792</ele>
        <time>2019-03-26T10:03:11Z</time>
      </trkpt>
      <trkpt lat="44.13495" lon="4.02993">
        <ele>483.711</ele>
        <time>2019-03-26T10:03:31Z</time>
      </trkpt>
      <trkpt lat="44.13506" lon="4.03067">
        <ele>478.746</ele>
        <time>2019-03-26T10:03:51Z</time>
      </trkpt>
      <trkpt lat="44.13532" lon="4.03138">
        <ele>483.057</ele>
        <time>2016-06-08T13:23:33Z</time>
      </trkpt>
      <trkpt lat="44.13559" lon="4.03188">
        <ele>486.073</ele>
        <time>2016-06-08T13:23:53Z</time>
      </trkpt>
      <trkpt lat="44.13564" lon="4.03251">
        <ele>487.812</ele>
        <time>2016-06-08T13:24:13Z</time>
      </trkpt>
      <trkpt lat="44.13551" lon="4.03316">
        <ele>484.643</ele>
        <time>2019-03-26T10:05:11Z</time>
      </trkpt>
      <trkpt lat="44.13561" lon="4.034">
        <ele>475.555</ele>
        <time>2019-03-26T10:05:31Z</time>
      </trkpt>
      <trkpt lat="44.13552" lon="4.03456">
        <ele>470.182</ele>
        <time>2019-03-26T10:05:51Z</time>
      </trkpt>
      <trkpt lat="44.13562" lon="4.03519">
        <ele>465.943</ele>
        <time>2019-03-26T10:06:11Z</time>
      </trkpt>
      <trkpt lat="44.13554" lon="4.03581">
        <ele>477.117</ele>
        <time>2019-03-26T10:06:31Z</time>
      </trkpt>
      <trkpt lat="44.13558" lon="4.03628">
        <ele>480.808</ele>
        <time>2019-03-26T10:06:51Z</time>
      </trkpt>
      <trkpt lat="44.13539" lon="4.03665">
        <ele>476.254</ele>
        <time>2019-03-26T10:07:11Z</time>
      </trkpt>
      <trkpt lat="44.13502" lon="4.03709">
        <ele>466.113</ele>
        <time>2019-03-26T10:07:31Z</time>
      </trkpt>
      <trkpt lat="44.13491" lon="4.03767">
        <ele>455.088</ele>
        <time>2019-03-26T10:07:51Z</time>
      </trkpt>
      <trkpt lat="44.1347" lon="4.03793">
        <ele>449.179</ele>
        <time>2016-06-08T13:25:53Z</time>
      </trkpt>
      <trkpt lat="44.1348" lon="4.03879">
        <ele>425.945</ele>
        <time>2019-03-26T10:08:31Z</time>
      </trkpt>
      <trkpt lat="44.1346" lon="4.03909">
        <ele>419.434</ele>
        <time>2019-03-26T10:08:51Z</time>
      </trkpt>
      <trkpt lat="44.13417" lon="4.03927">
        <ele>413.295</ele>
        <time>2019-03-26T10:09:11Z</time>
      </trkpt>
      <trkpt lat="44.13372" lon="4.03981">
        <ele>396.787</ele>
        <time>2019-03-26T10:09:31Z</time>
      </trkpt>
      <trkpt lat="44.13256" lon="4.04056">
        <ele>371.826</ele>
        <time>2016-06-08T13:27:13Z</time>
      </trkpt>
      <trkpt lat="44.1322" lon="4.0407">
        <ele>363.647</ele>
        <time>2016-06-08T13:27:33Z</time>
      </trkpt>
      <trkpt lat="44.1314" lon="4.04154">
        <ele>342.711</ele>
        <time>2016-06-08T13:27:53Z</time>
      </trkpt>
      <trkpt lat="44.13171" lon="4.04177">
        <ele>343.808</ele>
        <time>2016-06-08T13:28:13Z</time>
      </trkpt>
      <trkpt lat="44.13268" lon="4.04189">
        <ele>335.868</ele>
        <time>2016-06-08T13:28:33Z</time>
      </trkpt>
      <trkpt lat="44.13307" lon="4.0418">
        <ele>337.887</ele>
        <time>2016-06-08T13:28:53Z</time>
      </trkpt>
      <trkpt lat="44.13419" lon="4.04209">
        <ele>334.442</ele>
        <time>2016-06-08T13:29:13Z</time>
      </trkpt>
      <trkpt lat="44.13459" lon="4.04283">
        <ele>320.543</ele>
        <time>2016-06-08T13:29:33Z</time>
      </trkpt>
      <trkpt lat="44.13499" lon="4.04297">
        <ele>323.139</ele>
        <time>2016-06-08T13:29:53Z</time>
      </trkpt>
      <trkpt lat="44.1351" lon="4.04338">
        <ele>315.328</ele>
        <time>2016-06-08T13:30:13Z</time>
      </trkpt>
      <trkpt lat="44.13533" lon="4.04385">
        <ele>308.959</ele>
        <time>2016-06-08T13:30:33Z</time>
      </trkpt>
      <trkpt lat="44.1353" lon="4.04439">
        <ele>305.261</ele>
        <time>2016-06-08T13:30:53Z</time>
      </trkpt>
      <trkpt lat="44.13549" lon="4.04478">
        <ele>305.941</ele>
        <time>2016-06-08T13:31:13Z</time>
      </trkpt>
      <trkpt lat="44.13518" lon="4.04554">
        <ele>308.981</ele>
        <time>2016-06-08T13:31:33Z</time>
      </trkpt>
      <trkpt lat="44.13443" lon="4.04668">
        <ele>307.909</ele>
        <time>2016-06-08T13:31:53Z</time>
      </trkpt>
      <trkpt lat="44.13335" lon="4.04809">
        <ele>311.008</ele>
        <time>2016-06-08T13:32:13Z</time>
      </trkpt>
      <trkpt lat="44.13285" lon="4.04862">
        <ele>298.31</ele>
        <time>2016-06-08T13:32:33Z</time>
      </trkpt>
      <trkpt lat="44.13264" lon="4.04939">
        <ele>297.959</ele>
        <time>2016-06-08T13:32:53Z</time>
      </trkpt>
      <trkpt lat="44.13281" lon="4.05017">
        <ele>298.574</ele>
        <time>2016-06-08T13:33:13Z</time>
      </trkpt>
      <trkpt lat="44.13328" lon="4.05073">
        <ele>292.385</ele>
        <time>2016-06-08T13:33:33Z</time>
      </trkpt>
      <trkpt lat="44.13368" lon="4.05103">
        <ele>286.391</ele>
        <time>2016-06-08T13:33:53Z</time>
      </trkpt>
      <trkpt lat="44.13416" lon="4.05125">
        <ele>286.45</ele>
        <time>2016-06-08T13:34:13Z</time>
      </trkpt>
      <trkpt lat="44.13424" lon="4.05184">
        <ele>280.591</ele>
        <time>2016-06-08T13:34:33Z</time>
      </trkpt>
      <trkpt lat="44.13395" lon="4.05249">
        <ele>272.823</ele>
        <time>2016-06-08T13:34:53Z</time>
      </trkpt>
      <trkpt lat="44.13316" lon="4.05364">
        <ele>256.411</ele>
        <time>2016-06-08T13:35:13Z</time>
      </trkpt>
      <trkpt lat="44.13254" lon="4.05424">
        <ele>253.821</ele>
        <time>2016-06-08T13:35:33Z</time>
      </trkpt>
      <trkpt lat="44.13244" lon="4.05472">
        <ele>254.503</ele>
        <time>2019-03-26T10:18:31Z</time>
      </trkpt>
      <trkpt lat="44.1328" lon="4.05445">
        <ele>254.908</ele>
        <time>2016-06-08T13:36:13Z</time>
      </trkpt>
      <trkpt lat="44.13331" lon="4.05481">
        <ele>250.897</ele>
        <time>2019-03-26T10:19:11Z</time>
      </trkpt>
      <trkpt lat="44.13405" lon="4.05474">
        <ele>254.856</ele>
        <time>2019-03-26T10:19:31Z</time>
      </trkpt>
      <trkpt lat="44.13425" lon="4.05489">
        <ele>254.121</ele>
        <time>2016-06-08T13:37:13Z</time>
      </trkpt>
      <trkpt lat="44.1343" lon="4.05548">
        <ele>249.842</ele>
        <time>2019-03-26T10:20:11Z</time>
      </trkpt>
      <trkpt lat="44.13446" lon="4.05566">
        <ele>252.768</ele>
        <time>2019-03-26T10:20:31Z</time>
      </trkpt>
      <trkpt lat="44.13462" lon="4.0555">
        <ele>255.337</ele>
        <time>2019-03-26T10:20:51Z</time>
      </trkpt>
      <trkpt lat="44.1349" lon="4.05557">
        <ele>259.058</ele>
        <time>2016-06-08T13:37:53Z</time>
      </trkpt>
      <trkpt lat="44.13504" lon="4.05583">
        <ele>262.02</ele>
        <time>2016-06-08T13:38:13Z</time>
      </trkpt>
      <trkpt lat="44.13519" lon="4.05674">
        <ele>268.359</ele>
        <time>2016-06-08T13:38:33Z</time>
      </trkpt>
      <trkpt lat="44.1354" lon="4.05739">
        <ele>269.803</ele>
        <time>2019-03-26T10:22:11Z</time>
      </trkpt>
      <trkpt lat="44.13581" lon="4.05769">
        <ele>269.923</ele>
        <time>2019-03-26T10:22:31Z</time>
      </trkpt>
      <trkpt lat="44.13569" lon="4.05831">
        <ele>274.908</ele>
        <time>2019-03-26T10:22:51Z</time>
      </trkpt>
      <trkpt lat="44.13568" lon="4.05861">
        <ele>276.321</ele>
        <time>2019-03-26T10:23:11Z</time>
      </trkpt>
      <trkpt lat="44.13554" lon="4.05941">
        <ele>272.75</ele>
        <time>2019-03-26T10:23:31Z</time>
      </trkpt>
      <trkpt lat="44.13571" lon="4.06007">
        <ele>267.665</ele>
        <time>2016-06-08T13:39:53Z</time>
      </trkpt>
      <trkpt lat="44.13519" lon="4.06035">
        <ele>260.336</ele>
        <time>2016-06-08T13:40:13Z</time>
      </trkpt>
      <trkpt lat="44.13509" lon="4.06054">
        <ele>260.972</ele>
        <time>2016-06-08T13:40:33Z</time>
      </trkpt>
      <trkpt lat="44.13507" lon="4.06065">
        <ele>261.281</ele>
        <time>2019-03-26T10:24:51Z</time>
      </trkpt>
      <trkpt lat="44.13493" lon="4.06116">
        <ele>258.572</ele>
        <time>2019-03-26T10:25:11Z</time>
      </trkpt>
      <trkpt lat="44.13476" lon="4.06126">
        <ele>255.854</ele>
        <time>2019-03-26T10:25:31Z</time>
      </trkpt>
      <trkpt lat="44.1346" lon="4.06147">
        <ele>248.417</ele>
        <time>2019-03-26T10:25:51Z</time>
      </trkpt>
      <trkpt lat="44.13407" lon="4.06184">
        <ele>238.987</ele>
        <time>2019-03-26T10:26:11Z</time>
      </trkpt>
      <trkpt lat="44.13364" lon="4.06261">
        <ele>218.615</ele>
        <time>2016-06-08T13:42:13Z</time>
      </trkpt>
      <trkpt lat="44.13329" lon="4.06282">
        <ele>216.708</ele>
        <time>2019-03-26T10:26:51Z</time>
      </trkpt>
      <trkpt lat="44.13312" lon="4.06325">
        <ele>212.557</ele>
        <time>2019-03-26T10:27:11Z</time>
      </trkpt>
      <trkpt lat="44.1329" lon="4.06367">
        <ele>211.346</ele>
        <time>2019-03-26T10:27:31Z</time>
      </trkpt>
      <trkpt lat="44.13295" lon="4.06452">
        <ele>199.211</ele>
        <time>2019-03-26T10:27:51Z</time>
      </trkpt>
      <trkpt lat="44.13268" lon="4.06482">
        <ele>198.292</ele>
        <time>2019-03-26T10:28:11Z</time>
      </trkpt>
      <trkpt lat="44.13227" lon="4.06514">
        <ele>197.798</ele>
        <time>2019-03-26T10:28:31Z</time>
      </trkpt>
      <trkpt lat="44.13209" lon="4.06551">
        <ele>192.727</ele>
        <time>2019-03-26T10:28:51Z</time>
      </trkpt>
      <trkpt lat="44.13197" lon="4.06594">
        <ele>189.028</ele>
        <time>2019-03-26T10:29:11Z</time>
      </trkpt>
      <trkpt lat="44.13148" lon="4.06637">
        <ele>180.48</ele>
        <time>2019-03-26T10:29:31Z</time>
      </trkpt>
      <trkpt lat="44.13101" lon="4.06697">
        <ele>165.295</ele>
        <time>2019-03-26T10:29:51Z</time>
      </trkpt>
      <trkpt lat="44.13113" lon="4.0671">
        <ele>165.949</ele>
        <time>2019-03-26T10:30:11Z</time>
      </trkpt>
      <trkpt lat="44.13116" lon="4.06745">
        <ele>161.723</ele>
        <time>2016-06-08T13:46:33Z</time>
      </trkpt>
      <trkpt lat="44.13099" lon="4.06761">
        <ele>157.308</ele>
        <time>2019-03-26T10:30:51Z</time>
      </trkpt>
      <trkpt lat="44.13078" lon="4.06759">
        <ele>154.175</ele>
        <time>2019-03-26T10:31:11Z</time>
      </trkpt>
      <trkpt lat="44.13056" lon="4.06765">
        <ele>149.684</ele>
        <time>2016-06-08T13:47:13Z</time>
      </trkpt>
      <trkpt lat="44.13038" lon="4.06798">
        <ele>148.059</ele>
        <time>2016-06-08T13:47:33Z</time>
      </trkpt>
      <trkpt lat="44.13042" lon="4.069">
        <ele>144.38</ele>
        <time>2016-06-08T13:47:53Z</time>
      </trkpt>
      <trkpt lat="44.13005" lon="4.06919">
        <ele>143.896</ele>
        <time>2016-06-08T13:48:13Z</time>
      </trkpt>
      <trkpt lat="44.1295" lon="4.06993">
        <ele>141.385</ele>
        <time>2016-06-08T13:48:33Z</time>
      </trkpt>
      <trkpt lat="44.12882" lon="4.07028">
        <ele>140.736</ele>
        <time>2016-06-08T13:48:53Z</time>
      </trkpt>
      <trkpt lat="44.12804" lon="4.0709">
        <ele>138.578</ele>
        <time>2016-06-08T13:49:13Z</time>
      </trkpt>
      <trkpt lat="44.12671" lon="4.07073">
        <ele>139.271</ele>
        <time>2016-06-08T13:49:33Z</time>
      </trkpt>
      <trkpt lat="44.12665" lon="4.07188">
        <ele>131.141</ele>
        <time>2016-06-08T13:49:53Z</time>
      </trkpt>
      <trkpt lat="44.12597" lon="4.0716">
        <ele>128.115</ele>
        <time>2016-06-08T13:50:13Z</time>
      </trkpt>
      <trkpt lat="44.12533" lon="4.07123">
        <ele>131.008</ele>
        <time>2016-06-08T13:50:33Z</time>
      </trkpt>
      <trkpt lat="44.12483" lon="4.07104">
        <ele>132.893</ele>
        <time>2016-06-08T13:50:53Z</time>
      </trkpt>
      <trkpt lat="44.12424" lon="4.07101">
        <ele>133.472</ele>
        <time>2016-06-08T13:51:13Z</time>
      </trkpt>
      <trkpt lat="44.12415" lon="4.07246">
        <ele>130.567</ele>
        <time>2016-06-08T13:51:33Z</time>
      </trkpt>
      <trkpt lat="44.12429" lon="4.07287">
        <ele>134.248</ele>
        <time>2021-01-05T15:22:54Z</time>
      </trkpt>
      <trkpt lat="44.1246" lon="4.07676">
        <ele>141.594</ele>
        <time>2021-01-05T15:23:14Z</time>
      </trkpt>
      <trkpt lat="44.12485" lon="4.07656">
        <ele>142.783</ele>
        <time>2021-01-05T15:23:34Z</time>
      </trkpt>
      <trkpt lat="44.12505" lon="4.07658">
        <ele>143.674</ele>
        <time>2021-01-05T15:23:54Z</time>
      </trkpt>
      <trkpt lat="44.12526" lon="4.07686">
        <ele>144.226</ele>
        <time>2021-01-05T15:24:14Z</time>
      </trkpt>
      <trkpt lat="44.12766" lon="4.08391">
        <ele>138.026</ele>
        <time>2021-01-05T15:24:34Z</time>
      </trkpt>
    </trkseg>
  </trk>
</gpx>